[[{"header":{"parameterUnit":"m.s-1","parameterCategory":1,"la1":31.0,"la2":29.5877,"lo1":-88.7671,"lo2":-86.6584,"dy":0.0162,"dx":0.0185,"nx":115,"ny":88,"refTime":"2023-05-20T06:00:00:Z","depth":0,"parameterNumber":2,"parameterNumberName":"U-component_of_WINDS"},"data":[0.0,0.0,0.0,0.0,0.0,0.0,0.0,0.0,0.0,0.0,0.0,0.0,0.0,0.0,0.0,0.0,0.0,0.0,0.0,0.0,0.0,0.0,0.0,0.0,0.0,0.0,0.0,0.0,0.0,0.0,0.0,0.0,0.0,0.0,0.0,0.0,0.0,0.0,0.0,0.0,0.0,0.0,0.0,0.0,0.0,0.0,0.0,0.0,0.0,0.0,0.0,0.0,0.0,0.0,0.0,0.0,0.0,0.0,0.0,0.0,0.0,0.0,0.0,0.0,0.0,0.0,0.0,0.0,0.0,0.0,0.0,0.0,0.0,0.0,0.0,0.0,0.0,0.0,0.0,0.0,0.0,0.0,0.0,0.0,0.0,0.0,0.0,0.0,0.0,0.0,0.0,0.0,0.0,0.0,0.0,0.0,0.0,0.0,0.0,0.0,0.0,0.0,0.0,0.0,0.0,0.0,0.0,0.0,0.0,0.0,0.0,0.0,0.0,0.0,0.0,0.0,0.0,0.0,0.0,0.0,0.0,0.0,0.0,0.0,0.0,0.0,0.0,0.0,0.0,0.0,0.0,0.0,0.0,0.0,0.0,0.0,0.0,0.0,0.0,0.0,0.0,0.0,0.0,0.0,0.0,0.0,0.0,0.0,0.0,0.0,0.0,0.0,0.0,0.0,0.0,0.0,0.0,0.0,0.0,0.0,0.0,0.0,0.0,0.0,0.0,0.0,0.0,0.0,0.0,0.0,0.0,0.0,0.0,0.0,0.0,0.0,0.0,0.0,0.0,0.0,0.0,0.0,0.0,0.0,0.0,0.0,0.0,0.0,0.0,0.0,0.0,0.0,0.0,0.0,0.0,0.0,0.0,0.0,0.0,0.0,0.0,0.0,0.0,0.0,0.0,0.0,0.0,0.0,0.0,0.0,0.0,0.0,0.0,0.0,0.0,0.0,0.0,0.0,0.0,0.0,0.0,0.0,0.0,0.0,0.0,0.0,0.0,0.0,0.0,0.0,0.0,0.0,0.0,0.0,0.0,0.0,0.0,0.0,0.0,0.0,0.0,0.0,0.0,0.0,0.0,0.0,0.0,0.0,0.0,0.0,0.0,0.0,0.0,0.0,0.0,0.0,0.0,0.0,0.0,0.0,0.0,0.0,0.0,0.0,0.0,0.0,0.0,0.0,0.0,0.0,0.0,0.0,0.0,0.0,0.0,0.0,0.0,0.0,0.0,0.0,0.0,0.0,0.0,0.0,0.0,0.0,0.0,0.0,0.0,0.0,0.0,0.0,0.0,0.0,0.0,0.0,0.0,0.0,0.0,0.0,0.0,0.0,0.0,0.0,0.0,0.0,0.0,0.0,0.0,0.0,0.0,0.0,0.0,0.0,0.0,0.0,0.0,0.0,0.0,0.0,0.0,0.0,0.0,0.0,0.0,0.0,0.0,0.0,0.0,0.0,0.0,0.0,0.0,0.0,0.0,0.0,0.0,0.0,0.0,0.0,0.0,0.0,0.0,0.0,0.0,0.0,0.0,0.0,0.0,0.0,0.0,0.0,0.0,0.0,0.0,0.0,0.0,0.0,0.0,0.0,0.0,0.0,0.0,0.0,0.0,0.0,0.0,0.0,0.0,0.0,0.0,0.0,0.0,0.0,0.0,0.0,0.0,0.0,0.0,0.0,0.0,0.0,0.0,0.0,0.0,0.0,0.0,0.0,0.0,0.0,0.0,0.0,0.0,0.0,0.0,0.0,0.0,0.0,0.0,0.0,0.0,0.0,0.0,0.0,0.0,0.0,0.0,0.0,0.0,0.0,0.0,0.0,0.0,0.0,0.0,0.0,0.0,0.0,0.0,0.0,0.0,0.0,0.0,0.0,0.0,0.0,0.0,0.0,0.0,0.0,0.0,0.0,0.0,0.0,0.0,0.0,0.0,0.0,0.0,0.0,0.0,0.0,0.0,0.0,0.0,0.0,0.0,0.0,0.0,0.0,0.0,0.0,0.0,0.0,0.0,0.0,0.0,0.0,0.0,0.0,0.0,0.0,0.0,0.0,0.0,0.0,0.0,0.0,0.0,0.0,0.0,0.0,0.0,0.0,0.0,0.0,0.0,0.0,0.0,0.0,0.0,0.0,0.0,0.0,0.0,0.0,0.0,0.0,0.0,0.0,0.0,0.0,0.0,0.0,0.0,0.0,0.0,0.0,0.0,0.0,0.0,0.0,0.0,0.0,0.0,0.0,0.0,0.0,0.0,0.0,0.0,0.0,0.0,0.0,0.0,0.0,0.0,0.0,0.0,0.0,0.0,0.0,0.0,0.0,0.0,0.0,0.0,0.0,0.0,0.0,0.0,0.0,0.0,0.0,0.0,0.0,0.0,0.0,0.0,0.0,0.0,0.0,0.0,0.0,0.0,0.0,0.0,0.0,0.0,0.0,0.0,0.0,0.0,0.0,0.0,0.0,0.0,0.0,0.0,0.0,0.0,0.0,0.0,0.0,0.0,0.0,0.0,0.0,0.0,0.0,0.0,0.0,0.0,0.0,0.0,0.0,0.0,0.0,0.0,0.0,0.0,0.0,0.0,0.0,0.0,0.0,0.0,0.0,0.0,0.0,0.0,0.0,0.0,0.0,0.0,0.0,0.0,0.0,0.0,0.0,0.0,0.0,0.0,0.0,0.0,0.0,0.0,0.0,0.0,0.0,0.0,0.0,0.0,0.0,0.0,0.0,0.0,0.0,0.0,0.0,0.0,0.0,0.0,0.0,0.0,0.0,0.0,0.0,0.0,0.0,0.0,0.0,0.0,0.0,0.0,0.0,0.0,0.0,0.0,0.0,0.0,0.0,0.0,0.0,0.0,0.0,0.0,0.0,0.0,0.0,0.0,0.0,0.0,0.0,0.0,0.0,0.0,0.0,0.0,0.0,0.0,0.0,0.0,0.0,0.0,0.0,0.0,0.0,0.0,0.0,0.0,0.0,0.0,0.0,0.0,0.0,0.0,0.0,0.0,0.0,0.0,0.0,0.0,0.0,0.0,0.0,0.0,0.0,0.0,0.0,0.0,0.0,0.0,0.0,0.0,0.0,0.0,0.0,0.0,0.0,0.0,0.0,0.0,0.0,0.0,0.0,0.0,0.0,0.0,0.0,0.0,0.0,0.0,0.0,0.0,0.0,0.0,0.0,0.0,0.0,0.0,0.0,0.0,0.0,0.0,0.0,0.0,0.0,0.0,0.0,0.0,0.0,0.0,0.0,0.0,0.0,0.0,0.0,0.0,0.0,0.0,0.0,0.0,0.0,0.0,0.0,0.0,0.0,0.0,0.0,0.0,0.0,0.0,0.0,0.0,0.0,0.0,0.0,0.0,0.0,0.0,0.0,0.0,0.0,0.0,0.0,0.0,0.0,0.0,0.0,0.0,0.0,0.0,0.0,0.0,0.0,0.0,0.0,0.0,0.0,0.0,0.0,0.0,0.0,0.0,0.0,0.0,0.0,0.0,0.0,0.0,0.0,0.0,0.0,0.0,0.0,0.0,0.0,0.0,0.0,0.0,0.0,0.0,0.0,0.0,0.0,0.0,0.0,0.0,0.0,0.0,0.0,0.0,0.0,0.0,0.0,0.0,0.0,0.0,0.0,0.0,0.0,0.0,0.0,0.0,0.0,0.0,0.0,0.0,0.0,0.0,0.0,0.0,0.0,0.0,0.0,0.0,0.0,0.0,0.0,0.0,0.0,0.0,0.0,0.0,0.0,0.0,0.0,0.0,0.0,0.0,0.0,0.0,0.0,0.0,0.0,0.0,0.0,0.0,0.0,0.0,0.0,0.0,0.0,0.0,0.0,0.0,0.0,0.0,0.0,0.0,0.0,0.0,0.0,0.0,0.0,0.0,0.0,0.0,0.0,0.0,0.0,0.0,0.0,0.0,0.0,0.0,0.0,0.0,0.0,0.0,0.0,0.0,0.0,0.0,0.0,0.0,0.0,0.0,0.0,0.0,0.0,0.0,0.0,0.0,0.0,0.0,0.0,0.0,0.0,0.0,0.0,0.0,0.0,0.0,0.0,0.0,0.0,0.0,0.0,0.0,0.0,0.0,0.0,0.0,0.0,0.0,0.0,0.0,0.0,0.0,0.0,0.0,0.0,0.0,0.0,0.0,0.0,0.0,0.0,0.0,0.0,0.0,0.0,0.0,0.0,0.0,0.0,0.0,0.0,0.0,0.0,0.0,0.0,0.0,0.0,0.0,0.0,0.0,0.0,0.0,0.0,0.0,0.0,0.0,0.0,2.0514,0.0,0.0,0.0,0.0,0.0,0.0,0.0,0.0,0.0,0.0,0.0,0.0,0.0,0.0,0.0,0.0,0.0,0.0,0.0,0.0,0.0,0.0,0.0,0.0,0.0,0.0,0.0,0.0,0.0,0.0,0.0,0.0,0.0,0.0,0.0,0.0,0.0,0.0,0.0,0.0,0.0,0.0,0.0,0.0,0.0,0.0,0.0,0.0,0.0,0.0,0.0,0.0,0.0,0.0,0.0,0.0,0.0,0.0,0.0,0.0,0.0,0.0,0.0,0.0,0.0,0.0,0.0,0.0,0.0,0.0,0.0,0.0,0.0,0.0,0.0,0.0,0.0,0.0,0.0,0.0,0.0,0.0,0.0,0.0,0.0,0.0,0.0,0.0,0.0,0.0,0.0,0.0,0.0,0.0,0.0,0.0,0.0,0.0,0.0,0.0,0.0,0.0,0.0,0.0,0.0,0.0,0.0,0.0,0.0,0.0,2.0516,2.0516,2.0516,2.0516,2.0516,0.0,0.0,0.0,0.0,0.0,0.0,0.0,0.0,0.0,0.0,0.0,0.0,0.0,0.0,0.0,0.0,0.0,0.0,0.0,0.0,0.0,0.0,0.0,0.0,0.0,0.0,0.0,0.0,0.0,0.0,0.0,0.0,0.0,0.0,0.0,0.0,0.0,0.0,0.0,0.0,0.0,0.0,0.0,0.0,0.0,0.0,0.0,0.0,0.0,0.0,0.0,0.0,0.0,0.0,0.0,0.0,0.0,0.0,0.0,0.0,0.0,0.0,0.0,0.0,0.0,0.0,0.0,0.0,0.0,0.0,0.0,0.0,0.0,0.0,0.0,0.0,0.0,0.0,0.0,0.0,0.0,0.0,0.0,0.0,0.0,0.0,0.0,0.0,0.0,0.0,0.0,0.0,0.0,0.0,0.0,0.0,0.0,0.0,0.0,0.0,0.0,0.0,0.0,0.0,0.0,0.0,0.0,0.0,0.0,0.0,0.0,0.0,2.0523,2.0523,2.0523,0.0,0.0,0.0,0.0,0.0,0.0,0.0,0.0,0.0,0.0,0.0,0.0,0.0,0.0,0.0,0.0,0.0,0.0,0.0,0.0,0.0,0.0,0.0,0.0,0.0,0.0,0.0,0.0,0.0,0.0,0.0,0.0,0.0,0.0,0.0,0.0,0.0,0.0,0.0,0.0,0.0,0.0,0.0,0.0,0.0,0.0,0.0,0.0,0.0,0.0,0.0,0.0,0.0,0.0,0.0,0.0,0.0,0.0,0.0,0.0,0.0,0.0,0.0,0.0,0.0,0.0,0.0,0.0,0.0,0.0,0.0,0.0,0.0,0.0,0.0,0.0,0.0,0.0,0.0,0.0,0.0,0.0,0.0,0.0,0.0,0.0,0.0,0.0,0.0,0.0,0.0,0.0,0.0,0.0,0.0,0.0,0.0,0.0,0.0,0.0,0.0,0.0,0.0,0.0,0.0,0.0,0.0,0.0,0.0,0.0,2.0591,2.0593,2.0593,0.0,2.0591,0.0,0.0,0.0,0.0,0.0,0.0,0.0,0.0,0.0,0.0,0.0,0.0,0.0,0.0,0.0,0.0,0.0,0.0,0.0,0.0,0.0,0.0,0.0,0.0,0.0,0.0,0.0,0.0,0.0,0.0,0.0,0.0,0.0,0.0,0.0,0.0,0.0,0.0,0.0,0.0,0.0,0.0,0.0,0.0,0.0,0.0,0.0,0.0,0.0,0.0,0.0,0.0,0.0,0.0,0.0,0.0,0.0,0.0,0.0,0.0,0.0,0.0,0.0,0.0,0.0,0.0,0.0,0.0,0.0,0.0,0.0,0.0,0.0,0.0,0.0,0.0,0.0,0.0,0.0,0.0,0.0,0.0,0.0,0.0,0.0,0.0,0.0,0.0,0.0,0.0,0.0,0.0,0.0,0.0,0.0,0.0,0.0,0.0,0.0,0.0,0.0,0.0,0.0,0.0,0.0,0.0,0.0,0.0,0.0,0.0,2.0593,2.0593,2.0593,2.0593,0.0,0.0,0.0,0.0,0.0,0.0,0.0,0.0,0.0,0.0,0.0,0.0,0.0,0.0,0.0,0.0,0.0,0.0,0.0,0.0,0.0,0.0,0.0,0.0,0.0,0.0,0.0,0.0,0.0,0.0,0.0,0.0,0.0,0.0,0.0,0.0,0.0,0.0,0.0,0.0,0.0,0.0,0.0,0.0,0.0,0.0,0.0,0.0,0.0,0.0,0.0,0.0,0.0,0.0,0.0,0.0,0.0,0.0,0.0,0.0,0.0,0.0,0.0,0.0,0.0,0.0,0.0,0.0,0.0,0.0,0.0,0.0,0.0,0.0,0.0,0.0,0.0,0.0,0.0,0.0,0.0,0.0,0.0,0.0,0.0,0.0,0.0,0.0,0.0,0.0,0.0,0.0,0.0,0.0,0.0,0.0,0.0,0.0,0.0,0.0,0.0,0.0,0.0,0.0,0.0,0.0,0.0,0.0,0.0,0.0,2.1279,2.1201,2.0968,2.0968,2.085,2.0615,0.0,0.0,0.0,0.0,0.0,0.0,0.0,0.0,0.0,0.0,0.0,0.0,0.0,0.0,0.0,0.0,0.0,0.0,0.0,0.0,0.0,0.0,0.0,0.0,0.0,0.0,0.0,0.0,0.0,0.0,0.0,0.0,0.0,0.0,0.0,0.0,0.0,0.0,0.0,0.0,0.0,0.0,0.0,0.0,0.0,0.0,0.0,0.0,0.0,0.0,0.0,0.0,0.0,0.0,0.0,0.0,0.0,0.0,0.0,0.0,0.0,0.0,0.0,0.0,0.0,0.0,0.0,0.0,0.0,0.0,0.0,0.0,0.0,0.0,0.0,0.0,0.0,0.0,0.0,0.0,0.0,0.0,0.0,0.0,0.0,0.0,0.0,0.0,0.0,0.0,0.0,0.0,0.0,0.0,0.0,0.0,0.0,0.0,0.0,0.0,0.0,0.0,0.0,0.0,0.0,0.0,0.0,0.0,2.2935,2.2962,2.2614,2.1871,2.1832,2.1461,0.0,0.0,0.0,0.0,0.0,0.0,0.0,0.0,0.0,0.0,0.0,0.0,0.0,0.0,0.0,0.0,0.0,0.0,0.0,0.0,0.0,0.0,0.0,0.0,0.0,0.0,0.0,0.0,0.0,0.0,0.0,0.0,0.0,0.0,0.0,0.0,0.0,0.0,0.0,0.0,0.0,0.0,0.0,0.0,0.0,0.0,0.0,0.0,0.0,0.0,0.0,0.0,0.0,0.0,0.0,0.0,0.0,0.0,0.0,0.0,0.0,0.0,0.0,0.0,0.0,0.0,0.0,0.0,0.0,0.0,0.0,0.0,0.0,0.0,0.0,0.0,0.0,0.0,0.0,0.0,0.0,0.0,0.0,0.0,0.0,0.0,0.0,0.0,0.0,0.0,0.0,0.0,0.0,0.0,0.0,0.0,0.0,0.0,0.0,0.0,0.0,0.0,0.0,0.0,0.0,0.0,0.0,0.0,0.0,2.3095,2.3142,2.3046,2.2753,2.2694,2.2262,0.0,0.0,0.0,0.0,0.0,0.0,0.0,0.0,0.0,0.0,0.0,0.0,0.0,0.0,0.0,0.0,0.0,0.0,0.0,0.0,0.0,0.0,0.0,0.0,0.0,0.0,0.0,0.0,0.0,0.0,0.0,0.0,0.0,0.0,0.0,0.0,0.0,0.0,0.0,0.0,0.0,0.0,0.0,0.0,0.0,0.0,0.0,0.0,0.0,0.0,0.0,0.0,0.0,0.0,0.0,0.0,0.0,0.0,0.0,0.0,0.0,0.0,0.0,0.0,0.0,0.0,0.0,0.0,0.0,0.0,0.0,0.0,0.0,0.0,0.0,0.0,0.0,0.0,0.0,0.0,0.0,0.0,0.0,0.0,0.0,0.0,0.0,0.0,0.0,0.0,0.0,0.0,0.0,0.0,0.0,0.0,0.0,0.0,0.0,0.0,0.0,0.0,0.0,0.0,0.0,0.0,0.0,0.0,0.0,2.3941,0.0,2.3886,2.3592,2.3545,2.3129,0.0,0.0,0.0,0.0,0.0,0.0,0.0,0.0,0.0,0.0,0.0,0.0,0.0,0.0,0.0,0.0,0.0,0.0,0.0,0.0,0.0,0.0,0.0,0.0,0.0,0.0,0.0,0.0,0.0,0.0,0.0,0.0,0.0,0.0,0.0,0.0,0.0,0.0,0.0,0.0,0.0,0.0,0.0,0.0,0.0,0.0,0.0,0.0,0.0,0.0,0.0,0.0,0.0,0.0,0.0,0.0,0.0,0.0,0.0,0.0,0.0,0.0,0.0,0.0,0.0,0.0,0.0,0.0,0.0,0.0,0.0,0.0,0.0,0.0,0.0,0.0,0.0,0.0,0.0,0.0,0.0,0.0,0.0,0.0,0.0,0.0,0.0,0.0,0.0,0.0,0.0,0.0,0.0,0.0,0.0,0.0,0.0,0.0,0.0,0.0,0.0,0.0,0.0,0.0,0.0,0.0,0.0,0.0,2.4837,2.5625,2.5644,2.5213,2.4438,2.4417,2.3987,0.0,0.0,0.0,0.0,0.0,0.0,0.0,0.0,0.0,0.0,0.0,0.0,0.0,0.0,0.0,0.0,0.0,0.0,0.0,0.0,0.0,0.0,0.0,0.0,0.0,0.0,0.0,0.0,0.0,0.0,0.0,0.0,0.0,0.0,0.0,0.0,0.0,0.0,0.0,0.0,0.0,0.0,0.0,0.0,0.0,0.0,0.0,0.0,0.0,0.0,0.0,0.0,0.0,0.0,0.0,0.0,0.0,0.0,0.0,0.0,0.0,0.0,0.0,0.0,0.0,0.0,0.0,0.0,0.0,0.0,0.0,0.0,0.0,0.0,0.0,0.0,0.0,0.0,0.0,0.0,0.0,0.0,0.0,0.0,0.0,0.0,0.0,0.0,0.0,0.0,0.0,0.0,0.0,0.0,0.0,0.0,0.0,0.0,0.0,0.0,0.0,0.0,0.0,0.0,0.0,0.0,0.0,0.0,0.0,2.5703,2.57,2.5556,2.5317,2.5297,2.4887,0.0,0.0,0.0,0.0,0.0,0.0,0.0,0.0,0.0,0.0,0.0,0.0,0.0,0.0,0.0,0.0,0.0,0.0,0.0,0.0,0.0,0.0,0.0,0.0,0.0,0.0,0.0,0.0,0.0,0.0,0.0,0.0,0.0,0.0,0.0,0.0,0.0,0.0,0.0,0.0,0.0,0.0,0.0,0.0,0.0,0.0,0.0,0.0,0.0,0.0,0.0,0.0,0.0,0.0,0.0,0.0,0.0,0.0,0.0,0.0,0.0,0.0,0.0,0.0,0.0,0.0,0.0,0.0,0.0,0.0,0.0,0.0,0.0,0.0,0.0,0.0,0.0,0.0,0.0,0.0,0.0,0.0,0.0,0.0,0.0,0.0,0.0,0.0,0.0,0.0,0.0,0.0,0.0,0.0,0.0,0.0,0.0,0.0,0.0,0.0,0.0,0.0,0.0,0.0,0.0,0.0,0.0,0.0,0.0,2.6677,2.6337,2.6177,2.6177,2.5863,2.5453,2.4907,0.0,0.0,0.0,0.0,0.0,0.0,0.0,0.0,0.0,0.0,0.0,0.0,0.0,0.0,0.0,0.0,0.0,0.0,0.0,0.0,0.0,0.0,0.0,0.0,0.0,0.0,0.0,0.0,0.0,0.0,0.0,0.0,0.0,0.0,0.0,0.0,0.0,0.0,0.0,0.0,0.0,0.0,0.0,0.0,0.0,0.0,0.0,0.0,0.0,0.0,0.0,0.0,0.0,0.0,0.0,0.0,0.0,0.0,0.0,0.0,0.0,0.0,0.0,0.0,0.0,0.0,0.0,0.0,0.0,0.0,0.0,0.0,0.0,0.0,0.0,0.0,0.0,0.0,0.0,0.0,0.0,0.0,0.0,0.0,0.0,0.0,0.0,0.0,0.0,0.0,0.0,0.0,0.0,0.0,0.0,0.0,0.0,0.0,0.0,0.0,0.0,0.0,0.0,0.0,0.0,0.0,0.0,0.0,2.8435,2.76,2.7134,2.7075,2.6234,2.5765,0.0,0.0,0.0,0.0,0.0,0.0,0.0,0.0,0.0,0.0,0.0,0.0,0.0,0.0,0.0,0.0,0.0,0.0,0.0,0.0,0.0,0.0,0.0,0.0,0.0,0.0,0.0,0.0,0.0,0.0,0.0,0.0,0.0,0.0,0.0,0.0,0.0,0.0,0.0,0.0,0.0,0.0,0.0,0.0,0.0,0.0,0.0,0.0,0.0,0.0,0.0,0.0,0.0,0.0,0.0,0.0,0.0,0.0,0.0,0.0,0.0,0.0,0.0,0.0,0.0,0.0,0.0,0.0,0.0,0.0,0.0,0.0,0.0,0.0,0.0,0.0,0.0,0.0,0.0,0.0,0.0,0.0,0.0,0.0,0.0,0.0,0.0,0.0,0.0,0.0,0.0,0.0,0.0,0.0,0.0,0.0,0.0,0.0,0.0,0.0,0.0,0.0,0.0,0.0,0.0,0.0,0.0,0.0,0.0,3.0155,2.9377,2.8615,2.7971,2.7114,2.6646,0.0,0.0,0.0,0.0,0.0,0.0,0.0,0.0,0.0,0.0,0.0,0.0,0.0,0.0,0.0,0.0,0.0,0.0,0.0,0.0,0.0,0.0,0.0,0.0,0.0,0.0,0.0,0.0,0.0,0.0,0.0,0.0,0.0,0.0,0.0,0.0,0.0,0.0,0.0,0.0,0.0,0.0,0.0,0.0,0.0,0.0,0.0,0.0,0.0,0.0,0.0,0.0,0.0,0.0,0.0,0.0,0.0,0.0,0.0,0.0,0.0,0.0,0.0,0.0,0.0,0.0,0.0,0.0,0.0,0.0,0.0,0.0,0.0,0.0,0.0,0.0,0.0,0.0,0.0,0.0,0.0,0.0,0.0,0.0,0.0,0.0,0.0,0.0,0.0,0.0,0.0,0.0,0.0,0.0,0.0,0.0,0.0,0.0,0.0,0.0,0.0,0.0,0.0,0.0,0.0,0.0,0.0,0.0,3.0376,3.088,3.0411,2.9884,2.9357,2.8186,2.7368,0.0,0.0,0.0,0.0,0.0,0.0,0.0,0.0,0.0,0.0,0.0,0.0,0.0,0.0,0.0,0.0,0.0,0.0,0.0,0.0,0.0,0.0,0.0,0.0,0.0,0.0,0.0,0.0,0.0,0.0,0.0,0.0,0.0,0.0,0.0,0.0,0.0,0.0,0.0,0.0,0.0,0.0,0.0,0.0,0.0,0.0,0.0,0.0,0.0,0.0,0.0,0.0,0.0,0.0,0.0,0.0,0.0,0.0,0.0,0.0,0.0,0.0,0.0,0.0,0.0,0.0,0.0,0.0,0.0,0.0,0.0,0.0,0.0,0.0,0.0,0.0,0.0,0.0,0.0,0.0,0.0,0.0,0.0,0.0,0.0,0.0,0.0,0.0,0.0,0.0,0.0,0.0,0.0,0.0,0.0,0.0,0.0,0.0,0.0,0.0,0.0,0.0,0.0,0.0,0.0,0.0,0.0,0.0,3.0909,3.0919,3.088,3.086,3.0762,2.9259,2.803,0.0,0.0,0.0,0.0,0.0,0.0,0.0,0.0,0.0,0.0,0.0,0.0,0.0,0.0,0.0,0.0,0.0,0.0,0.0,0.0,0.0,0.0,0.0,0.0,0.0,0.0,0.0,0.0,0.0,0.0,0.0,0.0,0.0,0.0,0.0,0.0,0.0,0.0,0.0,0.0,0.0,0.0,0.0,0.0,0.0,0.0,0.0,0.0,0.0,0.0,0.0,0.0,0.0,0.0,0.0,0.0,0.0,0.0,0.0,0.0,0.0,0.0,0.0,0.0,0.0,0.0,0.0,0.0,0.0,0.0,0.0,0.0,0.0,0.0,0.0,0.0,0.0,0.0,0.0,0.0,0.0,0.0,0.0,0.0,0.0,0.0,0.0,0.0,0.0,0.0,0.0,0.0,0.0,0.0,0.0,0.0,0.0,0.0,0.0,0.0,0.0,0.0,0.0,0.0,0.0,0.0,0.0,0.0,3.0921,3.0899,3.086,3.0821,3.0801,2.9845,2.8906,0.0,0.0,0.0,0.0,0.0,0.0,0.0,0.0,0.0,0.0,0.0,0.0,0.0,0.0,0.0,0.0,0.0,0.0,0.0,0.0,0.0,0.0,0.0,0.0,0.0,0.0,0.0,0.0,0.0,0.0,0.0,0.0,0.0,0.0,0.0,0.0,0.0,0.0,0.0,0.0,0.0,0.0,0.0,0.0,0.0,0.0,0.0,0.0,1.9505,0.0,0.0,0.0,0.0,0.0,0.0,0.0,0.0,0.0,0.0,0.0,0.0,0.0,0.0,0.0,0.0,0.0,0.0,0.0,0.0,0.0,0.0,0.0,0.0,0.0,0.0,0.0,0.0,0.0,0.0,0.0,0.0,0.0,0.0,0.0,0.0,0.0,0.0,0.0,0.0,0.0,0.0,0.0,0.0,0.0,0.0,0.0,0.0,0.0,0.0,0.0,0.0,0.0,0.0,0.0,0.0,0.0,0.0,0.0,3.086,3.086,3.0821,3.0799,3.0777,3.0389,2.9762,0.0,0.0,0.0,0.0,0.0,0.0,0.0,0.0,0.0,0.0,0.0,0.0,0.0,0.0,0.0,0.0,0.0,0.0,0.0,0.0,0.0,0.0,0.0,0.0,0.0,0.0,0.0,0.0,0.0,0.0,0.0,0.0,0.0,0.0,0.0,0.0,0.0,0.0,0.0,0.0,0.0,0.0,0.0,0.0,0.0,0.0,0.0,0.0,0.0,0.0,0.0,0.0,0.0,0.0,0.0,0.0,0.0,0.0,0.0,0.0,0.0,0.0,0.0,0.0,0.0,0.0,0.0,0.0,0.0,0.0,0.0,0.0,0.0,0.0,0.0,0.0,0.0,0.0,0.0,0.0,0.0,0.0,0.0,0.0,0.0,0.0,0.0,0.0,0.0,0.0,0.0,0.0,0.0,0.0,0.0,0.0,0.0,0.0,0.0,0.0,0.0,0.0,0.0,0.0,0.0,0.0,0.0,3.0919,3.0997,3.0994,3.0994,3.1011,3.1006,3.0849,3.0459,2.9712,0.0,0.0,0.0,0.0,0.0,0.0,0.0,0.0,0.0,0.0,0.0,0.0,0.0,0.0,0.0,0.0,0.0,0.0,0.0,0.0,0.0,0.0,0.0,0.0,0.0,0.0,0.0,0.0,0.0,0.0,0.0,0.0,0.0,0.0,0.0,0.0,0.0,0.0,2.0088,1.9988,0.0,0.0,0.0,0.0,0.0,0.0,0.0,0.0,1.9393,0.0,0.0,0.0,0.0,0.0,0.0,0.0,0.0,0.0,0.0,0.0,0.0,0.0,0.0,0.0,0.0,0.0,0.0,0.0,0.0,0.0,0.0,0.0,0.0,0.0,0.0,0.0,0.0,0.0,0.0,0.0,0.0,0.0,0.0,0.0,0.0,0.0,0.0,0.0,0.0,0.0,0.0,0.0,0.0,0.0,0.0,0.0,0.0,0.0,0.0,0.0,0.0,0.0,0.0,0.0,0.0,3.0801,3.1504,3.1892,3.1887,3.1887,3.19,3.1874,3.1172,3.0739,3.0533,0.0,0.0,0.0,0.0,0.0,0.0,0.0,0.0,0.0,0.0,0.0,0.0,0.0,0.0,0.0,0.0,0.0,0.0,0.0,0.0,0.0,0.0,0.0,0.0,0.0,0.0,0.0,0.0,0.0,0.0,0.0,0.0,0.0,0.0,0.0,0.0,0.0,0.0,0.0,1.9966,1.9889,0.0,0.0,0.0,0.0,0.0,0.0,0.0,0.0,1.9277,0.0,0.0,0.0,0.0,0.0,0.0,0.0,0.0,0.0,0.0,0.0,0.0,0.0,0.0,0.0,0.0,0.0,0.0,0.0,0.0,0.0,0.0,0.0,0.0,0.0,0.0,0.0,0.0,0.0,0.0,0.0,0.0,0.0,0.0,0.0,0.0,0.0,0.0,0.0,0.0,0.0,0.0,0.0,0.0,0.0,0.0,0.0,0.0,0.0,0.0,0.0,0.0,0.0,0.0,0.0,3.1471,3.1884,3.2329,3.2752,3.2775,3.2572,3.2116,3.1683,3.1265,0.0,0.0,0.0,0.0,0.0,0.0,0.0,0.0,0.0,0.0,0.0,0.0,0.0,0.0,0.0,0.0,0.0,0.0,0.0,0.0,0.0,0.0,0.0,0.0,0.0,0.0,0.0,0.0,0.0,0.0,0.0,0.0,0.0,0.0,0.0,0.0,0.0,0.0,0.0,0.0,1.9977,1.993,1.9896,0.0,0.0,0.0,0.0,0.0,0.0,2.0028,1.9772,0.0,0.0,0.0,0.0,0.0,0.0,0.0,0.0,0.0,0.0,0.0,0.0,0.0,0.0,0.0,0.0,0.0,0.0,0.0,0.0,0.0,0.0,0.0,0.0,0.0,0.0,0.0,0.0,0.0,0.0,0.0,0.0,0.0,0.0,0.0,0.0,0.0,0.0,0.0,0.0,0.0,0.0,0.0,0.0,0.0,0.0,0.0,0.0,0.0,0.0,0.0,0.0,0.0,0.0,0.0,3.2065,3.228,3.2764,3.3598,3.3637,3.3219,3.2367,3.2167,3.167,0.0,0.0,0.0,0.0,0.0,0.0,0.0,0.0,0.0,0.0,0.0,0.0,0.0,0.0,0.0,0.0,0.0,0.0,0.0,0.0,0.0,0.0,0.0,0.0,0.0,0.0,0.0,0.0,0.0,0.0,0.0,0.0,0.0,0.0,0.0,0.0,0.0,0.0,0.0,0.0,0.0,2.0274,2.0387,2.0827,0.0,0.0,0.0,0.0,2.1025,2.0839,0.0,0.0,0.0,0.0,0.0,0.0,0.0,0.0,0.0,0.0,0.0,0.0,0.0,0.0,0.0,0.0,0.0,0.0,0.0,0.0,0.0,0.0,0.0,0.0,0.0,0.0,0.0,0.0,0.0,0.0,0.0,0.0,0.0,0.0,0.0,0.0,0.0,0.0,0.0,0.0,0.0,0.0,0.0,0.0,0.0,0.0,0.0,0.0,0.0,0.0,0.0,0.0,0.0,0.0,0.0,0.0,3.2085,3.2845,3.3633,3.4408,3.4452,3.4052,3.3186,3.2421,3.1617,0.0,0.0,0.0,0.0,0.0,0.0,0.0,0.0,0.0,0.0,0.0,0.0,0.0,0.0,0.0,0.0,0.0,0.0,0.0,0.0,0.0,0.0,0.0,0.0,0.0,0.0,0.0,0.0,0.0,0.0,0.0,0.0,0.0,0.0,0.0,0.0,0.0,0.0,0.0,0.0,0.0,2.1334,2.201,2.2028,2.1969,0.0,0.0,2.1867,2.1783,2.1692,0.0,0.0,0.0,0.0,0.0,0.0,0.0,0.0,0.0,0.0,0.0,0.0,0.0,0.0,0.0,0.0,0.0,0.0,0.0,0.0,0.0,0.0,0.0,0.0,0.0,0.0,0.0,0.0,0.0,0.0,0.0,0.0,0.0,0.0,0.0,0.0,0.0,0.0,0.0,0.0,0.0,0.0,0.0,0.0,0.0,0.0,0.0,0.0,0.0,0.0,0.0,0.0,0.0,0.0,0.0,3.1403,3.2727,3.3156,3.3988,3.5275,3.534,3.4685,3.3317,3.294,3.211,0.0,0.0,0.0,0.0,0.0,0.0,0.0,0.0,0.0,0.0,0.0,0.0,0.0,0.0,0.0,0.0,0.0,0.0,0.0,0.0,0.0,0.0,0.0,0.0,0.0,0.0,0.0,0.0,0.0,0.0,0.0,0.0,0.0,0.0,0.0,0.0,0.0,0.0,0.0,0.0,0.0,0.0,2.2369,2.2651,0.0,0.0,0.0,2.3157,2.2662,0.0,0.0,0.0,0.0,0.0,0.0,0.0,0.0,0.0,0.0,0.0,0.0,0.0,0.0,0.0,0.0,0.0,0.0,0.0,0.0,0.0,0.0,0.0,0.0,0.0,0.0,0.0,0.0,0.0,0.0,0.0,0.0,0.0,0.0,0.0,0.0,0.0,0.0,0.0,0.0,0.0,0.0,0.0,0.0,0.0,0.0,0.0,0.0,0.0,0.0,0.0,0.0,0.0,0.0,0.0,0.0,0.0,3.3252,3.3498,3.4354,3.5806,3.5857,3.5033,3.3332,3.3266,0.0,0.0,0.0,0.0,0.0,0.0,0.0,0.0,0.0,0.0,0.0,0.0,0.0,0.0,0.0,0.0,0.0,0.0,0.0,0.0,0.0,0.0,0.0,0.0,0.0,0.0,0.0,2.0292,0.0,0.0,0.0,0.0,0.0,0.0,0.0,0.0,0.0,0.0,0.0,0.0,0.0,0.0,2.2791,2.2978,2.3416,2.3718,0.0,0.0,2.4208,2.3544,2.3362,2.3088,0.0,0.0,0.0,0.0,0.0,0.0,0.0,0.0,0.0,0.0,0.0,0.0,0.0,0.0,0.0,0.0,0.0,0.0,0.0,0.0,0.0,0.0,0.0,0.0,0.0,0.0,0.0,0.0,0.0,0.0,0.0,0.0,0.0,0.0,0.0,0.0,0.0,0.0,0.0,0.0,0.0,0.0,0.0,0.0,0.0,0.0,0.0,0.0,0.0,0.0,0.0,0.0,0.0,0.0,0.0,3.3291,3.4049,3.4863,3.576,3.5801,3.496,3.3189,3.3112,3.2309,0.0,0.0,0.0,0.0,0.0,0.0,0.0,0.0,0.0,0.0,0.0,0.0,0.0,0.0,0.0,0.0,0.0,0.0,0.0,0.0,0.0,0.0,0.0,0.0,0.0,0.0,0.0,0.0,0.0,0.0,0.0,0.0,0.0,0.0,0.0,0.0,0.0,0.0,0.0,0.0,0.0,2.3863,2.4544,2.4622,2.4601,0.0,0.0,2.4446,2.4338,2.4211,2.41,2.4026,0.0,0.0,0.0,0.0,0.0,0.0,0.0,0.0,0.0,0.0,0.0,0.0,0.0,0.0,0.0,0.0,0.0,0.0,0.0,0.0,0.0,0.0,0.0,0.0,0.0,0.0,0.0,0.0,0.0,0.0,0.0,0.0,0.0,0.0,0.0,0.0,0.0,0.0,0.0,0.0,0.0,0.0,0.0,0.0,0.0,0.0,0.0,0.0,0.0,0.0,0.0,0.0,0.0,3.2353,3.3239,3.4057,3.4902,3.5698,3.5737,3.5137,3.3886,3.3383,3.252,0.0,0.0,0.0,0.0,0.0,0.0,0.0,0.0,0.0,0.0,0.0,0.0,0.0,0.0,0.0,0.0,0.0,0.0,0.0,0.0,0.0,0.0,0.0,0.0,0.0,0.0,0.0,0.0,2.0292,2.0285,2.0238,0.0,0.0,0.0,0.0,0.0,0.0,0.0,0.0,0.0,0.0,2.4525,2.4771,2.4753,0.0,0.0,2.4566,2.4498,2.4465,2.4375,2.4284,2.4229,2.3914,0.0,0.0,0.0,0.0,0.0,0.0,0.0,0.0,0.0,0.0,0.0,0.0,0.0,0.0,0.0,0.0,0.0,0.0,0.0,0.0,0.0,0.0,0.0,0.0,0.0,0.0,0.0,0.0,0.0,0.0,0.0,0.0,0.0,0.0,0.0,0.0,0.0,0.0,0.0,0.0,0.0,0.0,0.0,0.0,0.0,0.0,0.0,0.0,0.0,0.0,0.0,0.0,3.2712,3.3558,3.4381,3.5088,3.5648,3.5676,3.5218,3.4311,3.3732,3.2868,0.0,0.0,0.0,0.0,0.0,0.0,0.0,0.0,0.0,0.0,0.0,0.0,0.0,0.0,0.0,0.0,0.0,0.0,0.0,0.0,0.0,0.0,0.0,0.0,0.0,0.0,0.0,0.0,2.0269,2.0249,2.0203,0.0,0.0,0.0,0.0,0.0,0.0,0.0,0.0,0.0,0.0,2.4903,2.4808,2.4749,2.4723,2.4698,2.4615,2.453,2.4498,2.4447,2.4358,2.4284,0.0,0.0,0.0,0.0,0.0,0.0,0.0,0.0,0.0,0.0,0.0,0.0,0.0,0.0,0.0,0.0,0.0,0.0,0.0,0.0,0.0,0.0,0.0,0.0,0.0,0.0,0.0,2.3052,0.0,0.0,2.2999,0.0,0.0,0.0,0.0,0.0,0.0,0.0,0.0,0.0,0.0,0.0,0.0,0.0,0.0,0.0,0.0,0.0,0.0,0.0,0.0,0.0,0.0,3.3558,3.4342,3.5134,3.5577,3.5601,3.5596,3.5162,3.427,3.4193,3.3384,3.1673,0.0,0.0,0.0,0.0,0.0,0.0,0.0,0.0,0.0,0.0,0.0,0.0,0.0,0.0,0.0,0.0,0.0,0.0,0.0,0.0,0.0,0.0,0.0,0.0,0.0,0.0,2.0271,2.0225,2.0255,0.0,0.0,0.0,0.0,0.0,0.0,0.0,0.0,0.0,0.0,2.5031,2.495,2.4808,2.4813,2.4787,2.4717,2.4631,2.4564,2.4512,2.4446,2.4413,0.0,0.0,0.0,0.0,0.0,0.0,0.0,0.0,0.0,0.0,0.0,0.0,0.0,0.0,0.0,0.0,0.0,0.0,0.0,0.0,0.0,0.0,0.0,0.0,0.0,0.0,0.0,2.3015,2.3042,0.0,0.0,0.0,0.0,0.0,0.0,0.0,0.0,0.0,0.0,0.0,2.7801,2.8612,0.0,0.0,0.0,0.0,0.0,0.0,0.0,0.0,0.0,0.0,0.0,0.0,3.4118,3.4353,3.5183,3.5584,3.5541,3.5528,3.5334,3.4937,3.4419,3.3302,3.1532,0.0,0.0,0.0,0.0,0.0,0.0,0.0,0.0,0.0,0.0,0.0,0.0,0.0,0.0,0.0,0.0,0.0,0.0,0.0,0.0,0.0,0.0,0.0,0.0,0.0,2.1853,0.0,0.0,0.0,0.0,0.0,0.0,0.0,0.0,0.0,0.0,0.0,2.4746,2.5,2.5037,2.495,2.4827,2.4813,2.4783,0.0,0.0,0.0,0.0,0.0,0.0,0.0,0.0,0.0,0.0,0.0,0.0,0.0,0.0,2.3896,2.3816,2.3795,2.3795,2.3795,0.0,0.0,0.0,0.0,0.0,0.0,0.0,0.0,0.0,0.0,0.0,0.0,0.0,0.0,2.4503,0.0,2.4457,0.0,0.0,0.0,0.0,0.0,0.0,0.0,0.0,2.7626,2.8067,2.8638,2.9465,2.9838,0.0,3.035,3.0485,0.0,0.0,0.0,0.0,0.0,0.0,0.0,0.0,3.4496,3.4725,3.5284,3.5528,3.5427,3.5427,3.5379,3.5285,3.4466,3.3483,3.2279,3.1645,3.1045,0.0,0.0,0.0,0.0,0.0,0.0,0.0,0.0,0.0,0.0,0.0,0.0,0.0,0.0,0.0,0.0,0.0,0.0,0.0,0.0,0.0,0.0,0.0,2.2612,0.0,0.0,0.0,0.0,0.0,0.0,0.0,0.0,0.0,2.3931,2.46,2.5089,2.5012,2.4985,2.495,2.4827,0.0,0.0,0.0,0.0,0.0,0.0,0.0,2.5354,2.5299,2.5263,2.5208,2.5095,2.5017,2.4955,2.4876,0.0,0.0,2.3987,2.3855,2.3837,2.3837,2.3816,2.3795,2.3795,2.3795,2.3813,0.0,0.0,0.0,0.0,0.0,0.0,0.0,0.0,2.6773,2.7234,0.0,2.7135,0.0,0.0,0.0,0.0,2.6904,2.6923,0.0,0.0,2.9,2.9408,2.9497,3.0331,3.0704,3.064,3.0701,3.1137,3.1854,3.1099,0.0,0.0,0.0,0.0,0.0,0.0,3.4713,3.5449,3.5493,3.5446,3.5315,3.53,3.5304,3.5258,3.4429,3.3906,3.3741,3.2245,3.1355,3.126,3.0419,0.0,0.0,0.0,0.0,0.0,0.0,0.0,0.0,0.0,0.0,0.0,0.0,0.0,0.0,0.0,0.0,0.0,0.0,0.0,0.0,2.2571,0.0,0.0,0.0,0.0,0.0,0.0,0.0,0.0,0.0,0.0,2.4052,2.4619,2.507,2.5012,0.0,0.0,0.0,0.0,2.6117,2.6038,2.6622,2.7075,2.7078,2.7027,2.6972,2.6988,0.0,0.0,2.67,2.662,2.6521,2.6512,2.6395,2.5914,2.4399,2.4119,2.4044,2.3971,2.3948,2.3852,2.3816,2.3834,2.3813,2.9392,0.0,0.0,0.0,0.0,2.7277,2.7354,2.7632,2.7638,2.7779,2.8008,2.7757,0.0,0.0,0.0,0.0,0.0,0.0,2.8204,2.9064,2.929,2.9691,3.028,3.1144,3.1562,3.1553,3.2106,3.2512,3.2743,3.2452,3.2441,3.2731,0.0,0.0,0.0,0.0,3.5257,3.5407,3.5398,3.5335,3.5308,3.5258,3.5209,3.5145,3.4845,3.441,3.3823,3.3239,3.239,3.1214,3.0842,0.0,0.0,0.0,0.0,0.0,0.0,0.0,0.0,0.0,0.0,0.0,0.0,0.0,0.0,0.0,0.0,0.0,0.0,0.0,2.4219,2.42,2.4219,0.0,0.0,0.0,0.0,0.0,0.0,0.0,0.0,0.0,2.4715,2.4886,2.5012,0.0,0.0,2.5758,2.5733,2.6437,2.6933,2.6883,2.7035,0.0,2.7115,2.7084,2.7065,2.7007,2.6898,2.68,2.678,2.6718,2.6657,2.6636,2.6576,2.6368,2.5988,2.5777,2.5512,2.4983,2.4816,2.4611,2.4083,2.3899,2.3876,3.112,2.9698,2.8732,2.8338,2.8335,2.8038,2.8126,2.8483,2.8521,2.8702,2.901,2.8672,2.8554,2.8559,2.8257,0.0,0.0,0.0,2.9062,2.9889,3.0238,3.0649,3.1155,3.199,3.2377,3.2396,3.2868,3.3272,3.3589,3.3516,3.3689,3.4029,0.0,0.0,3.4699,3.5205,3.5432,3.5369,3.5285,3.5258,3.5264,3.5196,3.5126,3.5075,3.5039,3.4774,3.4263,3.3828,3.311,3.2108,3.1374,3.079,0.0,0.0,0.0,0.0,0.0,0.0,0.0,0.0,0.0,0.0,0.0,2.4813,0.0,0.0,0.0,0.0,2.4783,2.4794,2.4828,2.4814,0.0,0.0,0.0,0.0,0.0,0.0,0.0,2.5018,2.505,2.5164,2.5435,2.5492,2.5479,2.5465,2.6143,2.6609,2.6563,0.0,2.7763,2.7674,2.7974,2.8181,2.8126,2.811,2.8072,2.7979,2.7902,2.7822,2.7801,2.7761,2.7717,2.7656,2.7632,2.7592,2.7555,2.7468,2.7035,2.596,2.5698,2.5491,2.5017,2.4923,2.4884,3.2809,3.2598,3.0349,2.9425,2.9325,2.8615,2.8771,2.9496,2.9574,3.0047,3.0733,2.996,2.9563,2.9464,2.8733,0.0,2.9602,2.966,3.0106,3.0834,3.1629,3.1988,3.2048,3.2832,3.3189,3.3194,3.3272,3.3674,3.4364,3.4327,3.47,3.5445,3.4777,3.4776,3.547,3.5494,3.5469,3.5503,3.5379,3.5272,3.5183,3.5129,3.5075,3.5001,3.4983,3.4946,3.4888,3.4131,3.3639,3.3468,3.2015,3.113,3.096,0.0,0.0,0.0,0.0,0.0,0.0,0.0,0.0,0.0,0.0,0.0,0.0,0.0,0.0,0.0,2.4707,0.0,2.467,2.4666,0.0,0.0,0.0,2.4787,2.4813,2.4856,2.4884,2.4884,0.0,0.0,2.6096,2.6304,2.6399,2.6399,2.7036,2.7478,2.7428,2.8096,2.859,2.8519,2.9176,2.9664,2.9514,2.9476,2.9401,2.9265,2.939,2.9293,2.9212,2.9209,2.9222,2.9042,2.9089,2.903,2.898,2.8865,2.8535,2.7021,2.6611,2.6498,2.6334,2.6279,2.6242,3.3345,3.2761,3.2217,3.1988,3.1968,3.185,3.1912,3.2085,3.2108,3.2276,3.2491,3.2297,3.1825,3.1207,3.1051,3.1108,3.1321,3.1997,3.2365,3.2512,3.2725,3.2813,3.2861,3.3624,3.4008,3.4055,3.4646,3.5027,3.5207,3.5207,3.5262,3.5441,3.5883,3.6195,3.6373,3.6274,3.6537,3.712,3.6455,3.5774,3.5076,3.502,3.5001,3.4927,3.4927,3.4907,3.4887,3.46,3.4144,3.354,3.3066,3.2256,3.0997,3.0734,0.0,0.0,0.0,0.0,0.0,0.0,0.0,0.0,0.0,2.4729,2.4729,0.0,2.4647,0.0,2.4596,2.4524,2.4463,2.4505,0.0,0.0,2.4687,2.4745,2.4787,2.4802,2.4832,2.4827,2.5408,2.5914,2.6103,2.7236,2.8032,2.8032,2.8202,2.8299,2.8301,2.8946,2.9401,2.9382,2.9551,2.9683,2.9683,2.9608,2.9514,2.9433,2.939,2.9407,2.9386,2.9344,2.9262,2.9197,2.9152,2.9067,2.9017,2.8975,2.8883,2.8439,2.793,2.7266,2.6698,2.6548,2.6487,3.4286,3.3915,3.3959,3.3964,3.3915,3.325,3.2967,3.2979,3.2986,3.301,3.3056,3.3056,3.2778,3.2336,3.2366,3.2376,3.2415,3.2899,3.3082,3.3072,3.3459,3.3641,3.3669,3.4488,3.4863,3.4851,3.5277,3.5502,3.5515,3.5858,3.6022,3.6008,3.6788,3.7367,3.7731,3.7283,3.7254,3.7678,3.6823,3.6083,3.5553,3.5154,3.4946,3.4907,3.4868,3.4848,3.4827,3.4747,3.4499,3.4005,3.3627,3.2987,3.2067,3.1316,3.0715,0.0,0.0,0.0,0.0,0.0,0.0,0.0,0.0,0.0,0.0,0.0,2.453,2.4515,2.4445,2.4391,2.4353,2.4391,2.4428,2.4502,2.4552,2.4582,2.4645,2.4695,2.4726,2.4753,2.5518,2.6208,2.6601,2.777,2.8734,2.9093,2.9113,2.9094,2.9113,2.9456,2.9701,2.9701,2.9701,2.9701,2.9701,2.9626,2.9514,2.9454,2.9429,2.9388,2.9388,2.9365,2.9304,2.9262,2.9178,2.9112,2.9062,2.9017,2.8975,2.8938,2.8668,2.8209,2.7787,2.7636,2.7614,3.5245,3.5277,3.5312,3.5308,3.52,3.378,3.325,3.3313,3.3301,3.3308,3.3323,3.3207,3.3169,3.3169,3.3169,3.3149,3.3169,3.3284,3.3323,3.3381,3.4113,3.4461,3.4499,3.536,3.5733,3.5676,3.5772,3.5823,3.5839,3.6522,3.6838,3.6876,3.7584,3.8338,3.9026,3.8362,3.7964,3.7832,3.7034,3.6463,3.6196,3.5456,3.5001,3.4906,3.4809,3.4768,3.4687,3.4706,3.4666,3.4586,3.3944,3.3513,3.3381,3.2009,3.1146,0.0,3.0302,0.0,0.0,0.0,0.0,0.0,0.0,0.0,0.0,2.5145,2.463,2.4542,2.4395,2.4284,2.4266,2.4284,2.4303,2.4358,2.4376,2.4411,2.4461,2.4549,2.4634,2.4823,2.5587,2.6465,2.7323,2.8171,2.9002,2.9568,2.9644,2.9625,2.9681,2.9682,2.9701,2.9701,2.9701,2.9701,2.9701,2.9645,2.957,2.9512,2.945,2.9388,2.9388,2.9388,2.9386,2.9323,2.924,2.9197,2.913,2.9062,2.9017,2.9017,2.898,2.892,2.8865,2.8847,2.8975,3.5209,3.5226,3.5277,3.5312,3.527,3.497,3.488,3.4946,3.5012,3.502,3.4976,3.4313,3.4075,3.4056,3.4056,3.4056,3.4094,3.4801,3.5109,3.5128,3.5263,3.536,3.5399,3.6203,3.6581,3.66,3.7228,3.7493,3.7448,3.7602,3.7632,3.7606,3.8431,3.8894,3.8975,0.0,0.0,0.0,3.8362,3.7561,3.6174,3.5966,3.5529,3.4846,3.4749,0.0,3.4687,3.4645,3.4623,3.4602,3.4451,0.0,0.0,0.0,0.0,0.0,0.0,0.0,0.0,0.0,0.0,0.0,2.8353,2.7475,2.6823,2.5913,2.5356,2.528,2.4633,2.419,2.4135,2.4134,2.4151,2.4168,2.4228,2.4266,2.4339,2.4393,2.4685,2.5435,2.6278,2.7138,2.7977,2.8802,2.9401,2.9589,2.9626,2.9645,2.9701,2.9683,2.9701,2.9701,2.9701,2.9701,2.9701,2.9683,2.9683,2.9569,2.947,2.9427,2.9448,2.9409,2.9386,2.9323,2.9302,2.928,2.9178,2.9112,2.9067,2.9085,2.904,2.8975,2.8975,2.8975,2.8975,3.6436,3.6436,3.6468,3.6485,0.0,3.6534,3.6546,3.6535,3.5777,3.5455,3.5457,3.5066,3.4892,3.4912,3.5297,3.547,3.5509,3.6388,3.6774,3.6793,3.6774,3.6793,3.6793,3.7194,3.7358,3.7358,3.7751,3.7932,3.792,3.8306,3.8484,3.845,3.9276,3.9642,3.9548,3.9869,3.9827,3.9347,3.8885,3.8239,3.7345,3.6451,3.5786,3.5369,3.4913,0.0,0.0,0.0,0.0,0.0,0.0,0.0,0.0,3.3625,0.0,3.2762,3.1954,3.1504,3.1466,3.0657,3.0187,3.0109,2.9302,2.8236,2.699,2.6431,2.6113,2.605,2.5621,2.5305,2.5252,2.5228,2.5241,2.5202,2.4899,2.4721,2.4778,2.4855,2.506,2.5613,2.6749,2.7679,2.8204,2.895,2.9435,2.9531,2.955,2.955,2.9589,2.9664,2.9701,2.9701,2.9701,2.9852,3.0189,3.0265,3.0434,3.0657,3.0411,3.0129,3.0048,2.9671,2.9388,2.9347,2.9323,2.9302,2.9262,2.9197,2.9156,2.9134,2.9112,2.9089,2.9089,2.904,2.8975,3.7699,3.768,3.7696,3.7695,3.7712,3.7766,3.7781,3.7715,3.64,0.0,0.0,3.5921,3.5921,3.5993,3.6608,3.6897,3.6969,3.768,3.8007,3.7973,3.7973,3.7973,3.7978,3.8082,3.8124,3.8108,3.8265,3.8328,3.8367,3.9004,3.9313,3.939,3.9966,4.0253,4.0157,4.0057,3.9954,3.9851,3.9164,3.8723,3.8512,3.7103,3.6246,3.6114,3.5412,3.4977,3.4827,3.4827,3.4752,3.4602,3.4602,3.4602,3.4583,3.3963,3.3625,3.3588,3.2799,3.2311,3.2311,3.15,3.0934,3.0798,3.0062,2.8938,2.7318,2.7056,2.6903,2.6835,2.6622,2.6454,2.6402,2.6388,2.6376,2.6358,2.5776,2.5436,2.5479,2.5541,2.5663,2.5986,2.7135,2.8098,2.8366,2.8962,2.9392,2.9451,2.9453,2.9492,2.9531,2.9607,2.9664,2.9683,2.9852,3.0189,3.0713,3.1033,3.1372,3.1839,3.1428,3.0977,3.0671,3.0104,2.9634,2.9409,2.9347,2.9323,2.9304,2.9262,2.9218,2.92,2.92,2.9218,2.9197,2.913,2.9062,3.7624,3.7605,3.7604,3.7642,3.7679,3.7717,3.775,3.7778,3.7609,3.7548,3.7574,3.7555,3.7571,3.7583,3.7679,3.7771,3.7815,3.793,3.7973,3.7928,3.7909,3.7913,3.7939,3.861,3.8939,3.8997,3.9687,4.0034,3.998,4.0077,4.0136,4.0119,4.0196,4.0157,4.0017,3.9954,3.9889,3.9826,3.969,3.9229,3.8441,3.8192,3.7675,3.6971,3.6821,3.6404,3.5747,3.5709,3.5353,3.4639,3.4602,3.4602,3.4583,3.4489,3.4433,3.4395,3.3663,3.3212,3.3193,3.2339,3.1507,3.073,3.0504,2.9996,2.8963,2.8239,2.7751,2.7625,2.6948,2.6425,2.6403,2.6368,2.6338,2.6278,2.6193,2.615,2.615,2.6217,2.6527,2.7177,2.7616,2.8162,2.8795,2.9104,2.9243,2.9286,2.933,2.9373,2.9472,2.9569,2.9608,2.972,3.0264,3.0733,3.1012,3.1532,3.1986,3.2066,3.206,3.1703,3.1085,3.0669,3.0215,2.9561,2.9425,2.9386,2.9368,2.9323,2.9302,2.9302,2.9243,2.9218,2.9215,2.9193,2.9156,3.8916,3.8916,3.8955,3.8975,3.8994,3.8995,3.9032,3.9107,3.9122,3.8657,3.7923,3.7904,3.7904,3.7939,3.8342,3.8569,3.8604,3.9084,3.9279,3.9262,3.9262,3.9262,3.9267,3.9576,3.9749,3.9787,4.0154,4.0346,4.0328,4.0328,4.0272,4.0234,4.0157,4.0038,3.9996,3.9892,3.9804,3.9735,3.9735,3.9561,3.9091,3.8597,3.8136,3.7756,3.7343,3.693,3.6573,3.6554,3.616,3.5334,3.5296,3.509,3.462,3.4602,3.4602,3.4583,3.4245,3.4036,3.3995,3.3119,3.2188,3.134,3.0835,3.0383,2.9884,2.9107,2.8599,2.8407,2.7944,2.7669,2.7652,2.7568,2.7513,2.7479,2.7127,2.685,2.6856,2.6921,2.71,2.7506,2.8004,2.8521,2.8929,2.9058,2.913,2.9175,2.9243,2.9328,2.9388,2.9451,2.9512,2.9608,3.0283,3.1012,3.1476,3.2264,3.2906,3.3362,3.3077,3.2681,3.2119,3.1514,3.0632,3.0178,2.9764,2.9427,2.9388,2.9368,2.9365,2.9365,2.9344,2.9304,2.9302,2.9304,2.9283,3.9954,3.9954,4.0015,4.0057,4.0058,4.0101,4.0139,4.0176,4.0158,3.9508,3.8489,3.8429,3.8427,3.852,3.9095,3.9363,3.9495,4.0109,4.0379,4.0379,4.0379,4.0381,4.0381,4.0326,4.0308,4.0327,4.031,4.0272,4.0291,4.0272,4.0215,4.0157,4.0038,3.9996,3.9975,3.9848,3.9777,3.9712,3.9708,3.9722,3.9631,3.8944,3.8601,3.8544,3.7981,3.7568,3.7361,3.7361,3.6986,3.6235,3.601,3.5578,3.494,3.4714,3.4602,3.4602,3.4583,3.4539,3.4435,3.3803,3.2985,3.2158,3.1507,3.1014,3.0641,2.9939,2.9318,2.8989,2.8803,2.8749,2.8651,2.8619,2.8612,2.8551,2.7994,2.759,2.7572,2.7615,2.7622,2.7707,2.833,2.8761,2.881,2.89,2.8994,2.9085,2.9197,2.9262,2.9283,2.9368,2.9414,2.9681,3.0355,3.1252,3.2032,3.2959,3.3794,3.4508,3.4057,3.3567,3.3114,3.2006,3.1048,3.0725,2.9954,2.9485,2.939,2.9388,2.9407,2.9386,2.9368,2.9368,2.9368,2.9368,2.9368,3.9758,3.9826,3.9845,3.9892,4.0015,4.0058,4.0078,4.0098,4.0098,4.0059,3.9833,4.0024,4.0022,4.0077,4.0116,4.0172,4.0245,4.036,4.0362,4.0326,4.0307,4.0308,4.031,4.0291,4.031,4.0291,4.031,4.0253,4.0215,4.0196,4.0157,4.0036,3.9996,3.9954,3.9911,3.9826,3.9781,3.9689,3.9698,3.9669,3.962,3.9526,3.9489,3.9464,3.9414,3.8976,3.8244,3.8188,3.7812,3.7024,3.631,3.5878,3.5691,3.5052,3.4602,3.4602,3.4539,3.445,3.434,3.4237,3.3785,3.3013,3.2767,3.2349,3.1565,3.0748,2.9908,2.9274,2.8983,2.8858,2.8804,2.8737,2.8662,2.8612,2.8453,2.8384,2.833,2.835,2.8324,2.8304,2.8471,2.863,2.8637,2.8761,2.8876,2.8994,2.913,2.924,2.9302,2.9326,2.9388,2.9671,3.0756,3.1731,3.216,3.3371,3.4205,3.4489,3.4508,3.417,3.351,3.2664,3.178,3.1066,3.0032,2.9468,2.9392,2.939,2.9388,2.9388,2.9388,2.9388,2.9388,2.9388,2.9368,3.9712,3.9735,3.9735,3.9781,3.9889,3.9916,3.9977,4.0036,4.0038,4.0058,4.0117,4.0157,4.0176,4.0196,4.0177,4.0215,4.0291,4.0291,4.0291,4.0291,4.031,4.0329,4.0291,4.0273,4.0234,4.0215,4.0215,4.0176,4.0137,4.0098,4.0057,3.9996,3.9954,3.9933,3.9889,3.9781,3.9735,3.9708,3.9656,3.962,3.962,3.962,3.962,3.962,3.962,3.947,3.9126,3.9051,3.8657,3.7868,3.7512,3.6892,3.5953,3.5559,3.5127,3.4614,3.445,3.434,3.4293,3.4269,3.4073,3.3714,3.3268,3.2794,3.236,3.156,3.0904,3.0417,2.9502,2.8863,2.8815,2.8743,2.8669,2.8612,2.8543,2.85,2.8458,2.8406,2.838,2.8362,2.8484,2.8536,2.8562,2.8687,2.8834,2.8929,2.9067,2.9175,2.924,2.9302,2.9365,2.9572,3.0804,3.1768,3.2075,3.3351,3.4248,3.4505,3.4524,3.4333,3.4054,3.291,3.197,3.1594,3.0392,2.9566,2.9412,2.9392,2.939,2.9388,2.9388,2.9388,2.9388,2.9388,2.9388,3.9665,3.9703,3.9708,3.9735,3.9781,3.9769,3.9832,3.9911,3.9914,3.9954,3.9994,3.9996,4.0015,4.0036,4.0096,4.0137,4.0176,4.0176,4.0196,4.0234,4.0234,4.0273,4.0234,4.0215,4.0176,4.0138,4.0118,4.0096,4.0057,4.0015,3.9975,3.9954,3.9933,3.9889,3.9867,3.9758,3.9708,3.9703,3.965,3.962,3.962,3.962,3.962,3.962,3.962,3.962,3.962,3.962,3.9339,3.8676,3.845,3.7793,3.6667,3.616,3.548,3.4585,3.4381,3.4311,3.4269,3.4221,3.4216,3.4141,3.3621,3.3276,3.3007,3.2391,3.1894,3.1648,3.0418,2.9551,2.9185,2.9107,2.8955,2.8674,2.8558,2.8482,2.8432,2.8406,2.8353,2.8327,2.8406,2.8484,2.8518,2.8687,2.881,2.8881,2.8998,2.913,2.9175,2.9259,2.9379,2.9681,3.0928,3.1718,3.1991,3.3287,3.4199,3.4416,3.4458,3.4517,3.443,3.3135,3.2123,3.1708,3.0488,2.9719,2.9548,2.9471,2.9412,2.939,2.9388,2.9388,2.9388,2.9388,2.9388,3.9645,3.9693,3.9708,3.9689,3.9712,3.9721,3.9702,3.9754,3.9727,3.9727,3.9754,3.9781,3.9826,3.9826,4.0015,4.0117,4.0098,4.0098,4.0117,4.0098,4.0117,4.0117,4.0117,4.0117,4.0117,4.0098,4.0077,4.0057,3.9996,3.9933,3.9911,3.9911,3.9911,3.9867,3.9804,3.9735,3.9703,3.9693,3.9645,3.962,3.962,3.962,3.962,3.962,3.962,3.962,3.962,3.962,3.9564,3.9521,3.877,3.8263,3.8037,3.6704,3.5435,3.4558,3.4358,3.4269,3.424,3.4197,3.4216,3.4197,3.4123,3.4056,3.382,3.3167,3.273,3.254,3.1806,3.0987,3.0239,3.0033,2.9594,2.8882,2.8619,2.8587,2.8492,2.8406,2.8327,2.83,2.8371,2.8476,2.8587,2.8712,2.8804,2.8834,2.8975,2.9089,2.9112,2.9218,2.9579,3.0305,3.1106,3.1793,3.1972,3.3202,3.4144,3.4344,3.4413,3.4514,3.3955,3.3358,3.261,3.1765,3.0527,2.9776,2.9625,2.9531,2.9472,2.9433,2.9429,2.9409,2.9429,2.9388,2.9409,3.962,3.9645,3.965,3.9656,3.9698,3.9703,3.9708,3.9708,3.9708,3.9708,3.9689,3.9735,3.9735,3.9735,3.9804,3.9911,4.0036,4.0036,4.0057,4.0096,4.0096,4.0096,4.0096,4.0057,4.0036,4.0036,3.9975,3.9954,3.9933,3.993,3.9889,3.9889,3.9889,3.9867,3.9804,3.9735,3.9703,3.9693,3.9645,3.962,3.962,3.962,3.962,3.962,3.962,3.962,3.962,3.962,3.962,3.962,3.9258,3.8863,3.8225,3.6691,3.5371,3.4521,3.4298,3.4221,3.4197,3.4216,3.4216,3.4216,3.4216,3.4148,3.4005,3.3739,3.3522,3.3319,3.3146,3.2566,3.1776,3.114,3.043,2.9635,2.9384,2.9072,2.8626,2.844,2.8406,2.838,2.8406,2.851,2.8587,2.8712,2.8804,2.881,2.8929,2.904,2.9108,2.9197,2.9573,3.0376,3.124,3.2005,3.2572,3.3449,3.4227,3.4298,3.4344,3.4427,3.4117,3.3053,3.2212,3.1897,3.0714,2.9795,2.9626,2.9551,2.9492,2.9472,2.9451,2.9431,2.9451,2.9431,2.947,3.9546,3.9546,3.9552,3.9577,3.9639,3.9669,3.9674,3.9661,3.9661,3.9661,3.9661,3.9684,3.9703,3.9703,3.9708,3.9758,3.9892,3.9933,3.9975,4.0036,4.0036,4.0036,4.0036,3.9975,3.9975,3.9973,3.9933,3.9889,3.9889,3.9889,3.9889,3.9889,3.9889,3.9867,3.9781,3.9731,3.9703,3.9669,3.9602,3.962,3.962,3.962,3.962,3.962,3.962,3.962,3.962,3.962,3.962,3.962,3.962,3.9183,3.83,3.6906,3.5717,3.4913,3.4423,3.4216,3.4216,3.4216,3.4216,3.4216,3.4197,3.4148,3.4023,3.3998,3.3947,3.386,3.3807,3.3532,3.3062,3.2403,3.1562,3.0567,3.0035,2.9621,2.9003,2.8699,2.8521,2.845,2.8476,2.8554,2.8612,2.8712,2.8804,2.8804,2.8923,2.8998,2.9062,2.9388,2.9861,3.0724,3.1621,3.2502,3.3133,3.39,3.4184,3.4213,3.4186,3.4288,3.3979,3.2842,3.2042,3.1783,3.1109,3.0133,2.9645,2.957,2.9551,2.9531,2.9492,2.9491,2.9491,2.9511,2.9511,3.9455,3.9548,3.9507,3.9589,3.9633,3.959,3.9596,3.9602,3.9602,3.962,3.9602,3.9669,3.9693,3.9693,3.9703,3.9689,3.9735,3.98,3.9845,3.9889,3.9911,3.9911,3.9911,3.9911,3.9911,3.9911,3.9911,3.9889,3.9889,3.9889,3.9889,3.9889,3.9889,3.9845,3.9712,3.9689,3.9661,3.9626,3.962,3.962,3.962,3.962,3.962,3.962,3.962,3.962,3.962,3.962,3.962,3.962,3.962,3.9183,3.8314,3.7317,3.6483,3.5605,3.4758,3.4253,3.4216,3.4216,3.4216,3.4216,3.4216,3.4148,3.4049,3.3998,3.3947,3.3842,3.3807,3.3752,3.3733,3.3532,3.2881,3.1521,3.0586,2.9981,2.9668,2.9039,2.8502,2.8531,2.8521,2.8528,2.8612,2.8737,2.881,2.8834,2.8905,2.8998,2.9053,2.9545,3.0498,3.1399,3.2024,3.2669,3.3467,3.4179,3.4141,3.4128,3.4064,3.4037,3.3612,3.2761,3.189,3.1463,3.0696,2.9777,2.9683,2.9626,2.9589,2.9589,2.9569,2.955,2.955,2.9569,2.955,4.0531,4.096,4.0464,4.0285,4.0173,3.9713,3.9451,3.9439,3.9458,3.9495,3.9539,3.9564,3.9596,3.9645,3.965,3.9674,3.9698,3.9703,3.975,3.9777,3.9804,3.9845,3.9826,3.9889,3.9889,3.9889,3.9889,3.9889,3.9889,3.9889,3.9889,3.9889,3.9889,3.9826,3.9712,3.9708,3.9679,3.962,3.962,3.962,3.962,3.962,3.962,3.962,3.962,3.962,3.962,3.962,3.962,3.962,3.962,3.9201,3.8332,3.7392,3.6545,3.5745,3.474,3.4216,3.4216,3.4216,3.4216,3.4216,3.4216,3.4173,3.4074,3.4023,3.3972,3.3876,3.3842,3.3807,3.3807,3.3788,3.3266,3.2243,3.1345,3.0545,2.9951,2.9221,2.8778,2.8717,2.8699,2.873,2.8743,2.8815,2.8858,2.8858,2.8929,2.9017,2.9072,2.9384,3.0116,3.1325,3.1969,3.2595,3.3287,3.3547,3.338,3.3361,3.3403,3.3408,3.3063,3.2474,3.1661,3.0974,3.0208,2.9814,2.972,2.9683,2.9664,2.9664,2.9664,2.9645,2.9645,2.9626,2.9626,4.0803,4.1194,4.0756,4.0354,4.0064,3.956,3.9391,3.9418,3.9418,3.9418,3.9469,3.9495,3.9527,3.9558,3.9602,3.962,3.9669,3.9669,3.965,3.9661,3.9735,3.9781,3.9804,3.9848,3.9889,3.9889,3.9889,3.9889,3.9889,3.9889,3.9889,3.9889,3.9889,3.9845,3.9735,3.9712,3.9679,3.9626,3.962,3.962,3.962,3.962,3.962,3.962,3.962,3.962,3.962,3.962,3.962,3.962,3.962,3.9295,3.8751,3.7641,3.6676,3.6035,3.4987,3.4216,3.4216,3.4216,3.4216,3.4216,3.4216,3.4173,3.4124,3.4049,3.4023,3.3921,3.3913,3.385,3.385,3.3834,3.3568,3.3057,3.2188,3.121,3.0221,2.9277,2.8858,2.8804,2.8791,2.8797,2.8821,2.8845,2.8905,2.8905,2.8994,2.904,2.9118,2.9425,3.0305,3.1034,3.1543,3.2219,3.2953,3.2915,3.26,3.2562,3.2562,3.2585,3.2441,3.1666,3.0891,3.0487,2.9852,2.9776,2.9701,2.97,2.9681,2.9719,2.9719,2.9719,2.9719,2.9719,2.9719,4.042,4.0467,4.0486,4.0067,3.9442,3.9384,3.9365,3.9376,3.9384,3.9354,3.938,3.9469,3.9483,3.9496,3.9558,3.962,3.962,3.962,3.962,3.9626,3.9679,3.9712,3.9804,3.9848,3.9889,3.9889,3.9889,3.9889,3.9889,3.9889,3.9889,3.9889,3.9889,3.9867,3.9781,3.9735,3.9703,3.9693,3.9645,3.962,3.962,3.962,3.962,3.962,3.962,3.962,3.962,3.9596,3.9596,3.962,3.962,3.9558,3.9233,3.7885,3.6876,3.6689,3.5168,3.4389,3.4216,3.4216,3.4216,3.4216,3.4197,3.4173,3.4105,3.4099,3.4074,3.4016,3.3991,3.3979,3.3935,3.3905,3.3815,3.3605,3.2698,3.1558,3.0154,2.9235,2.8949,2.8887,2.8837,2.8824,2.8874,2.891,2.8934,2.8975,2.9062,2.9108,2.9204,2.9562,3.0198,3.0746,3.1199,3.1727,3.2445,3.211,3.1793,3.1719,3.166,3.1563,3.1622,3.0958,3.0406,3.002,2.9795,2.9719,2.9718,2.9698,2.9716,2.9754,2.9773,2.9773,2.9792,2.9774,2.9792,4.0754,4.12,4.0671,4.03,4.0002,3.9472,3.9193,3.9193,3.9175,3.9221,3.9266,3.9391,3.9469,3.9495,3.9577,3.962,3.962,3.962,3.962,3.962,3.9626,3.9684,3.9781,3.9848,3.9889,3.9889,3.9889,3.9889,3.9889,3.9889,3.9889,3.9889,3.9889,3.9867,3.9804,3.9735,3.9703,3.9693,3.9626,3.962,3.962,3.962,3.962,3.962,3.962,3.962,3.9596,3.9546,3.9546,3.9602,3.962,3.9596,3.9333,3.7817,3.682,3.6515,3.5243,3.4216,3.4216,3.4216,3.4216,3.4216,3.4216,3.4179,3.4154,3.4124,3.4105,3.4062,3.4037,3.3979,3.3954,3.3895,3.3674,3.3075,3.2262,3.1195,2.9871,2.9242,2.909,2.9089,2.9056,2.9056,2.9075,2.9089,2.9112,2.9112,2.9156,2.9197,2.9292,2.9394,2.9903,3.0408,3.0878,3.1331,3.1598,3.1262,3.1001,3.0889,3.07,3.0435,3.0493,3.0309,2.998,2.9702,2.9738,2.97,2.9717,2.9734,2.977,2.9823,2.9823,2.9823,2.9806,2.9789,2.9825,4.0671,4.1051,4.0587,4.0197,3.9825,3.9305,3.9101,3.9101,3.9101,3.9147,3.9221,3.9365,3.9425,3.9502,3.9596,3.962,3.962,3.962,3.962,3.962,3.9631,3.9684,3.9777,3.9845,3.9889,3.9889,3.9889,3.9889,3.9889,3.9889,3.9889,3.9889,3.9889,3.9889,3.9845,3.9735,3.9708,3.9679,3.9626,3.962,3.962,3.962,3.962,3.962,3.962,3.9577,3.9533,3.9183,3.9083,3.9314,3.9208,3.8958,3.8777,3.7306,3.6403,3.6229,3.4976,3.4216,3.4216,3.4216,3.4216,3.4216,3.4216,3.4216,3.4197,3.4173,3.4154,3.4136,3.4105,3.3907,3.3524,3.3241,3.2667,3.1953,3.1417,3.0711,2.9754,2.9406,2.9245,2.9197,2.9203,2.9206,2.92,2.9218,2.9218,2.924,2.9243,2.9265,2.9307,2.937,2.9506,3.0029,3.0273,3.0576,3.0725,3.0463,3.0428,3.0297,3.0222,2.9846,2.9847,2.9886,2.9776,2.9664,2.9681,2.9717,2.977,2.9822,2.9853,2.9888,2.9888,2.9907,2.9907,2.9874,2.9891,4.0254,4.0253,4.0253,3.9825,3.9194,3.9101,3.9101,3.9101,3.9101,3.9137,3.921,3.9328,3.9432,3.9502,3.9577,3.962,3.962,3.962,3.962,3.9626,3.9661,3.9712,3.9735,3.9845,3.9889,3.9889,3.9889,3.9889,3.9889,3.9889,3.9889,3.9889,3.9889,3.9889,3.9867,3.9758,3.9689,3.9684,3.9631,3.962,3.962,3.962,3.962,3.9583,3.9376,3.9289,3.9052,3.8571,3.8328,3.9055,3.844,3.8085,3.781,3.6478,3.5819,3.5522,3.484,3.4221,3.4216,3.4216,3.4216,3.4216,3.4216,3.4216,3.4197,3.4216,3.4123,3.3918,3.4067,3.3616,3.2882,3.2071,3.1461,3.093,3.066,3.042,3.0224,2.9684,2.924,2.9243,2.9233,2.9233,2.9228,2.9262,2.9283,2.9349,2.937,2.9411,2.9433,2.9492,2.9531,2.9663,2.9738,2.9663,2.9719,2.97,2.9756,2.9756,2.9832,2.9701,2.9739,2.9739,2.9701,2.9682,2.9735,2.9787,2.9857,2.9907,2.9953,2.9988,3.0007,3.0038,3.0072,3.0022,3.0007,3.9352,3.9361,3.9361,3.9268,3.9101,3.9101,3.9101,3.9101,3.9101,3.9137,3.921,3.9328,3.9425,3.9483,3.9577,3.962,3.962,3.962,3.9645,3.9693,3.9703,3.9735,3.9781,3.9867,3.9889,3.9889,3.9889,3.9889,3.9889,3.9889,3.9889,3.9889,3.9889,3.9889,3.9867,3.9777,3.9708,3.9684,3.9631,3.962,3.962,3.9602,3.9583,3.9489,3.8957,3.8552,3.8265,3.7605,3.7237,3.7293,3.7268,3.7111,3.6969,3.6245,3.5675,3.5349,3.4772,3.4245,3.4221,3.4221,3.4197,3.4221,3.424,3.4216,3.4216,3.416,3.3844,3.3454,3.3297,3.298,3.221,3.1414,3.0861,3.0525,3.0147,2.9807,2.9694,2.9541,2.9429,2.9412,2.9415,2.9435,2.9433,2.9412,2.9433,2.9453,2.9491,2.9531,2.9589,2.9626,2.9626,2.9645,2.9682,2.9682,2.9682,2.9701,2.9701,2.9701,2.9681,2.97,2.9718,2.9736,2.9736,2.9753,2.9805,2.9874,2.9926,3.0007,3.0049,3.0087,3.0106,3.0117,3.0132,3.0113,2.9942,3.9027,3.9101,3.9101,3.9101,3.9101,3.9101,3.9101,3.9101,3.9101,3.9156,3.9301,3.9391,3.9444,3.9546,3.9577,3.962,3.962,3.962,3.9645,3.9693,3.9703,3.9735,3.9804,3.9848,3.9889,3.9889,3.9889,3.9889,3.9889,3.9889,3.9889,3.9889,3.9889,3.9889,3.9889,3.9758,3.9708,3.9684,3.9631,3.962,3.962,3.962,3.9295,3.9051,3.8501,3.8053,3.7549,3.6733,3.6335,3.6186,3.5973,3.6002,3.6166,3.561,3.5212,3.495,3.4689,3.4358,3.4293,3.4293,3.4293,3.4293,3.4293,3.4293,3.4162,3.3995,3.3562,3.3138,3.2747,3.2266,3.1477,3.063,3.0245,3.0152,2.987,2.9626,2.9608,2.9589,2.955,2.9551,2.9589,2.9589,2.9608,2.9589,2.9589,2.9608,2.9608,2.9645,2.9737,2.979,2.9789,2.9789,2.9827,2.9827,2.9825,2.9825,2.9827,2.9823,2.9817,2.982,2.9822,2.9822,2.9823,2.9857,2.9872,2.9924,3.0007,3.0068,3.0147,3.0161,3.0176,3.019,3.0166,3.0122,2.9817,3.9036,3.9101,3.9101,3.9101,3.9101,3.9101,3.9101,3.9101,3.9101,3.9202,3.9391,3.9418,3.9451,3.9577,3.962,3.962,3.962,3.962,3.9645,3.9698,3.9703,3.9735,3.9804,3.9867,3.9889,3.9889,3.9889,3.9889,3.9889,3.9889,3.9889,3.9889,3.9889,3.9889,3.9867,3.9777,3.9708,3.9708,3.965,3.962,3.962,3.9602,3.9201,3.8525,3.7826,3.7379,3.6689,3.5968,3.5459,3.5403,3.4797,3.4895,3.5123,3.4959,3.4495,3.4465,3.4446,3.4404,3.4363,3.4386,3.4386,3.4386,3.4386,3.4292,3.4087,3.3579,3.3075,3.2515,3.1995,3.1267,3.0588,3.0092,2.9758,2.9718,2.9719,2.9737,2.9773,2.9699,2.9663,2.9645,2.9701,2.9737,2.9737,2.9719,2.9718,2.9717,2.9735,2.977,2.9876,2.9926,2.9924,2.9943,2.9962,2.9972,2.9984,2.9978,2.9983,2.994,2.9927,2.9931,2.9918,2.9937,2.9956,2.994,2.9956,3.0003,3.0064,3.0157,3.0218,3.0213,3.0188,3.0144,3.0119,3.012,2.959,3.8989,3.9101,3.9101,3.9101,3.9101,3.9101,3.9101,3.9101,3.9101,3.9221,3.9391,3.9418,3.9451,3.9552,3.962,3.962,3.962,3.962,3.965,3.9703,3.9708,3.9758,3.9867,3.9889,3.9889,3.9889,3.9889,3.9889,3.9889,3.9889,3.9889,3.9889,3.9889,3.9889,3.9867,3.9777,3.9708,3.9708,3.965,3.962,3.962,3.947,3.9051,3.815,3.715,3.6354,3.5918,3.5184,3.4697,3.4678,3.4547,3.463,3.4764,3.4674,3.4558,3.4495,3.4495,3.4473,3.4431,3.4427,3.4386,3.4386,3.4353,3.4016,3.3601,3.3153,3.2409,3.142,3.0675,3.0058,2.9908,2.9795,2.9793,2.9771,2.9789,2.9808,2.9859,2.9876,2.9822,2.9789,2.9842,2.9876,2.9876,2.9876,2.9874,2.9907,2.9924,2.9921,2.9972,3.0019,3.0064,3.0083,3.0125,3.0123,3.0136,3.0147,3.0145,3.0083,3.0071,3.0056,3.006,3.0079,3.0045,2.984,2.9912,3.0052,3.0128,3.0112,2.9966,2.9736,2.9858,2.9986,2.9615,2.9243,2.8809,3.896,3.9064,3.9073,3.9101,3.9101,3.9101,3.9101,3.9101,3.9101,3.9175,3.9301,3.9373,3.9425,3.9546,3.9596,3.962,3.962,3.962,3.9631,3.9684,3.9731,3.9777,3.9889,3.9889,3.9889,3.9889,3.9889,3.9889,3.9889,3.9889,3.9889,3.9889,3.9889,3.9889,3.9867,3.9758,3.9731,3.9684,3.9631,3.962,3.9545,3.922,3.8488,3.7587,3.655,3.5679,3.5075,3.4791,3.4491,3.4514,3.4476,3.4539,3.458,3.4602,3.4583,3.4542,3.4539,3.4539,3.4517,3.4495,3.4517,3.4461,3.4139,3.3768,3.3168,3.2533,3.1558,3.0584,3.0077,2.9737,2.9775,2.9808,2.9857,2.9869,2.9869,2.9924,2.9975,2.9988,2.9988,2.9956,2.9991,3.0007,3.0003,3.0019,3.0034,3.0049,3.0083,3.0079,3.0094,3.0118,3.0161,3.0213,3.0237,3.0247,3.026,3.0272,3.0242,3.0213,3.0194,3.0194,3.018,3.018,2.9817,2.944,2.9639,2.9958,2.9652,2.9449,2.934,2.9193,2.9025,2.8864,2.8614,2.8288,2.7931,3.895,3.9036,3.9073,3.9101,3.9101,3.9101,3.9101,3.9101,3.9101,3.9129,3.921,3.9301,3.9399,3.9495,3.9571,3.962,3.962,3.962,3.965,3.9703,3.9708,3.9758,3.9848,3.9889,3.9889,3.9889,3.9889,3.9889,3.9889,3.9889,3.9889,3.9889,3.9889,3.9889,3.9867,3.9758,3.9712,3.9661,3.9631,3.962,3.9395,3.8582,3.7793,3.7024,3.6114,3.5192,3.4686,3.4532,3.4495,3.4517,3.4517,3.4539,3.4602,3.4602,3.4529,3.4417,3.4489,3.4526,3.4339,3.4301,3.4111,3.3832,3.3438,3.316,3.2559,3.1563,3.0546,2.9941,2.9806,2.9806,2.9823,2.9893,2.9956,2.9965,3.0,3.0038,3.0083,3.0113,3.0123,3.0109,3.0142,3.0142,3.0123,3.0138,3.0138,3.0152,3.0185,3.0226,3.0221,3.0228,3.0267,3.0318,3.033,3.034,3.0352,3.0355,3.0337,3.0299,3.0286,3.0292,3.0292,3.0292,2.9781,2.9289,2.9449,2.9634,2.9219,2.8778,2.8672,2.8456,2.8063,2.7813,2.7668,2.7514,2.7215,3.896,3.9101,3.9101,3.9101,3.9101,3.9101,3.9101,3.9101,3.9101,3.9129,3.9183,3.921,3.9328,3.9476,3.9552,3.962,3.962,3.962,3.9645,3.9698,3.9708,3.9735,3.9804,3.9889,3.9889,3.9889,3.9889,3.9889,3.9889,3.9889,3.9889,3.9889,3.9889,3.9889,3.9826,3.9735,3.9703,3.9674,3.9645,3.962,3.9357,3.8112,3.7343,3.6761,3.5709,3.4767,3.4599,3.458,3.458,3.458,3.4602,3.4602,3.4602,3.4602,3.4193,3.3987,3.4062,3.4301,3.3682,3.3552,3.3346,3.2935,3.2465,3.1977,3.1412,3.0751,3.0052,2.9883,2.9876,2.9891,2.9924,2.9988,3.0049,3.0079,3.0094,3.0142,3.0171,3.0245,3.024,3.0247,3.0247,3.0234,3.0234,3.0253,3.0266,3.0279,3.0292,3.033,3.0348,3.0352,3.0379,3.0429,3.0436,3.0441,3.0441,3.0447,3.0414,3.0394,3.0383,3.0379,3.0309,3.0175,2.969,2.9344,2.9348,2.8821,2.803,2.7715,2.7853,2.7671,2.7267,2.7017,2.6843,2.666,2.6486,3.8979,3.9045,3.9073,3.9101,3.9101,3.9101,3.9101,3.9101,3.9101,3.9129,3.9129,3.9193,3.9293,3.9495,3.9552,3.962,3.962,3.962,3.9645,3.9674,3.9703,3.9735,3.9804,3.9867,3.9889,3.9889,3.9889,3.9889,3.9889,3.9889,3.9889,3.9889,3.9889,3.9867,3.9804,3.9754,3.9703,3.9674,3.9626,3.962,3.9188,3.8099,3.7122,3.7047,3.5446,3.4752,3.4602,3.4602,3.4602,3.4602,3.4602,3.4339,3.406,3.3853,3.3556,3.286,3.3031,3.3068,3.2824,3.2767,3.2523,3.2222,3.177,3.1185,3.0521,3.0156,2.9926,2.9978,3.001,3.0022,3.0019,3.0098,3.0123,3.0152,3.0199,3.0226,3.0253,3.0305,3.033,3.0367,3.0371,3.0359,3.0359,3.0359,3.039,3.039,3.0402,3.0417,3.043,3.0432,3.0479,3.0543,3.0549,3.054,3.054,3.054,3.0509,3.049,3.0462,3.0422,3.0274,3.0021,2.9432,2.8623,2.8067,2.745,2.6756,2.6785,2.7036,2.6786,2.6458,2.6294,2.6131,2.5938,2.5793,3.9007,3.9036,3.9092,3.9101,3.9101,3.9101,3.9101,3.9101,3.9101,3.9101,3.9147,3.923,3.9339,3.9469,3.9552,3.962,3.962,3.962,3.9645,3.9674,3.9703,3.9731,3.9781,3.9826,3.9889,3.9889,3.9889,3.9889,3.9889,3.9889,3.9889,3.9889,3.9889,3.9826,3.9781,3.9735,3.9684,3.965,3.962,3.962,3.932,3.7943,3.731,3.661,3.5653,3.4602,3.4602,3.4602,3.4602,3.4583,3.4301,3.3944,3.3571,3.3235,3.2729,3.2147,3.2091,3.192,3.1789,3.1751,3.1826,3.1562,3.1258,3.0555,3.0186,3.0007,3.0038,3.0072,3.0117,3.0132,3.0128,3.0171,3.0207,3.0247,3.0292,3.0318,3.0349,3.0398,3.0433,3.0436,3.0469,3.05,3.0481,3.0481,3.049,3.0509,3.0519,3.053,3.052,3.0519,3.054,3.0588,3.0588,3.0585,3.0582,3.0585,3.0568,3.054,3.053,3.0289,3.0037,2.9553,2.8935,2.8039,2.7113,2.6583,2.6169,2.6207,2.6216,2.6053,2.5889,2.564,2.5447,2.5322,2.5313,3.9036,3.9101,3.9101,3.9101,3.9101,3.9101,3.9101,3.9101,3.9101,3.9101,3.9129,3.9275,3.9391,3.9444,3.9546,3.962,3.962,3.962,3.962,3.965,3.9679,3.9689,3.9758,3.9826,3.9889,3.9889,3.9889,3.9889,3.9889,3.9889,3.9889,3.9889,3.9889,3.9804,3.9735,3.9689,3.9661,3.9626,3.962,3.9577,3.9126,3.8094,3.7136,3.6723,3.5597,3.4602,3.4602,3.4602,3.4489,3.4451,3.3963,3.3364,3.2972,3.256,3.194,3.1373,3.1201,3.0972,3.0707,3.0841,3.073,3.0347,3.0151,3.0181,3.0072,3.0068,3.0083,3.0117,3.0176,3.0185,3.0199,3.024,3.0292,3.033,3.0355,3.039,3.0414,3.0466,3.0499,3.05,3.054,3.0588,3.0595,3.0576,3.0549,3.0559,3.0586,3.0593,3.0602,3.0591,3.0591,3.0613,3.0604,3.0599,3.061,3.0614,3.0613,3.0597,3.0577,3.0095,2.9583,2.9023,2.8473,2.7547,2.6648,2.6118,2.5704,2.5781,2.5762,2.555,2.5387,2.5379,2.5361,2.5341,2.5351,3.9073,3.9101,3.9101,3.9101,3.9101,3.9101,3.9101,3.9101,3.9101,3.9101,3.9082,3.932,3.9418,3.9444,3.9546,3.962,3.962,3.962,3.962,3.9669,3.9703,3.9712,3.9781,3.9826,3.9889,3.9889,3.9889,3.9889,3.9889,3.9889,3.9889,3.9889,3.9889,3.9804,3.9735,3.9661,3.9631,3.9626,3.9596,3.9577,3.9189,3.7971,3.7009,3.6831,3.5398,3.4633,3.4539,3.4561,3.432,3.3926,3.3552,3.2898,3.2184,3.1714,3.1184,3.0576,3.0513,3.03,3.0108,3.0262,3.0224,3.0181,3.0057,3.0068,3.0113,3.0128,3.0157,3.0185,3.0232,3.0253,3.0253,3.0305,3.0355,3.0379,3.0414,3.0447,3.049,3.052,3.055,3.0569,3.0615,3.0676,3.0673,3.0649,3.0626,3.061,3.0642,3.0664,3.0656,3.0664,3.0637,3.0637,3.0649,3.0649,3.0639,3.0656,3.0684,3.064,3.0604,2.9977,2.934,2.8616,2.7989,2.7061,2.6298,2.5854,2.5556,2.5462,2.5415,2.5406,2.5369,2.537,2.5361,2.5351,2.537,3.9101,3.9101,3.9101,3.9101,3.9101,3.9101,3.9101,3.9101,3.9101,3.9129,3.9129,3.932,3.9418,3.9469,3.9527,3.962,3.962,3.962,3.9626,3.9674,3.9703,3.9735,3.9804,3.9848,3.9889,3.9889,3.9889,3.9889,3.9889,3.9889,3.9889,3.9889,3.9889,3.9823,3.9731,3.9631,3.962,3.962,3.9571,3.9571,3.927,3.7879,3.6962,3.6689,3.5329,3.457,3.4383,3.4277,3.3904,3.3419,3.2859,3.209,3.1374,3.0788,3.0444,3.0154,2.9975,2.9988,3.0003,3.0038,3.0053,3.0068,3.0083,3.0094,3.0138,3.0166,3.0199,3.0221,3.0292,3.0337,3.0337,3.0386,3.0455,3.0477,3.0499,3.054,3.055,3.0577,3.0606,3.0634,3.0676,3.0695,3.0704,3.0678,3.0665,3.0651,3.0658,3.0691,3.0698,3.0678,3.0678,3.0678,3.0678,3.0685,3.0704,3.0697,3.0688,3.068,3.049,2.9818,2.9162,2.8438,2.7492,2.6431,2.5824,2.5561,2.5456,2.5412,2.5395,2.5397,2.5379,2.537,2.537,2.537,2.5388,3.9101,3.9101,3.9101,3.9101,3.9101,3.9101,3.9101,3.9082,3.911,3.9137,3.9229,3.9346,3.9444,3.9476,3.9571,3.962,3.962,3.962,3.9645,3.9674,3.9703,3.9754,3.9823,3.9867,3.9889,3.9889,3.9889,3.9889,3.9889,3.9889,3.9889,3.9889,3.9889,3.9823,3.9708,3.965,3.962,3.9596,3.9546,3.9495,3.9114,3.781,3.7038,3.6509,3.5282,3.4446,3.4379,3.3858,3.3489,3.31,3.1995,3.128,3.0883,3.0332,3.0078,3.0029,2.9988,3.0019,3.0087,3.0102,3.0098,3.0109,3.0123,3.0138,3.0194,3.0221,3.0234,3.0273,3.0343,3.0374,3.0417,3.0483,3.0528,3.0559,3.0579,3.0597,3.0604,3.0621,3.0649,3.0665,3.0676,3.0711,3.0697,3.0695,3.0709,3.0703,3.0703,3.0703,3.0709,3.0709,3.0734,3.0728,3.0728,3.0734,3.0728,3.0704,3.0697,3.0697,3.0431,2.98,2.9078,2.8338,2.7257,2.5964,2.5569,2.5492,2.5437,2.5401,2.5385,2.5378,2.5388,2.5379,2.5388,2.5397,2.5395,3.9101,3.9101,3.9101,3.9101,3.9101,3.9101,3.9101,3.911,3.9127,3.9245,3.9328,3.9444,3.9469,3.952,3.9571,3.962,3.962,3.962,3.9626,3.9684,3.9708,3.9777,3.9845,3.9889,3.9889,3.9889,3.9889,3.9889,3.9889,3.9889,3.9889,3.9889,3.9867,3.9781,3.9731,3.9674,3.9645,3.9596,3.9546,3.9432,3.9219,3.7797,3.6795,3.667,3.5155,3.44,3.4319,3.3593,3.3037,3.2536,3.1356,3.0771,3.041,2.9931,2.9994,3.0003,3.0034,3.0075,3.0138,3.0166,3.0166,3.0166,3.0161,3.0194,3.0247,3.0254,3.0299,3.0355,3.039,3.0433,3.0475,3.0528,3.0579,3.0598,3.0616,3.0649,3.0653,3.0668,3.0695,3.071,3.0717,3.0748,3.0755,3.0745,3.074,3.0735,3.0735,3.0755,3.076,3.0765,3.0765,3.0774,3.0769,3.0755,3.075,3.0748,3.0724,3.0711,3.0425,2.9899,2.9121,2.8252,2.7144,2.5921,2.5669,2.5488,2.5453,2.5418,2.5393,2.5395,2.5406,2.5406,2.5387,2.5395,2.5421,3.9101,3.9082,3.9129,3.9147,3.9147,3.912,3.9147,3.9221,3.9242,3.9313,3.9406,3.9469,3.952,3.9546,3.9596,3.962,3.962,3.9645,3.965,3.9708,3.9735,3.9804,3.9848,3.9889,3.9889,3.9889,3.9889,3.9889,3.9889,3.9889,3.9889,3.9889,3.9867,3.9804,3.9754,3.9703,3.9669,3.9596,3.9527,3.9289,3.867,3.7667,3.6658,3.6081,3.5136,3.4228,3.3885,3.3294,3.2512,3.1768,3.1017,3.041,3.0011,2.9926,3.0007,3.0034,3.0075,3.0133,3.0174,3.0221,3.0234,3.0228,3.0228,3.0247,3.0286,3.0311,3.0348,3.0402,3.0417,3.0477,3.0537,3.0579,3.0597,3.0625,3.0649,3.0676,3.069,3.0697,3.0717,3.073,3.0748,3.0779,3.0802,3.079,3.0771,3.0786,3.0782,3.0802,3.0786,3.0786,3.0786,3.0802,3.0793,3.0774,3.0789,3.0774,3.0753,3.073,3.0426,3.0043,2.8974,2.8067,2.698,2.6008,2.5711,2.549,2.5476,2.5461,2.5445,2.5437,2.5429,2.5421,2.5404,2.5421,2.5445,3.9101,3.9129,3.9183,3.921,3.9202,3.923,3.9295,3.9394,3.9408,3.9433,3.9476,3.9495,3.9546,3.9596,3.962,3.962,3.962,3.9669,3.9679,3.9731,3.9758,3.9826,3.9889,3.9911,3.9911,3.9911,3.993,3.9933,3.9911,3.9911,3.9911,3.9911,3.9889,3.9826,3.9777,3.975,3.9717,3.9626,3.9514,3.9108,3.8384,3.7405,3.6541,3.5813,3.4918,3.4083,3.3496,3.2716,3.1916,3.113,3.0337,3.005,2.9893,2.9959,3.0022,3.0098,3.0147,3.0174,3.0215,3.026,3.0299,3.0292,3.0311,3.0311,3.0323,3.0359,3.0414,3.0447,3.046,3.0528,3.0588,3.0598,3.0623,3.0657,3.0683,3.0704,3.0691,3.071,3.0753,3.0769,3.0784,3.0802,3.0794,3.0801,3.0804,3.0785,3.0801,3.0801,3.0801,3.0798,3.0801,3.0801,3.0794,3.079,3.0802,3.0798,3.0784,3.0769,3.0631,3.0211,2.9065,2.7958,2.7052,2.6275,2.5738,2.5511,2.5498,2.549,2.551,2.5495,2.5468,2.5461,2.5434,2.5461,2.5495,3.9301,3.932,3.9328,3.9346,3.9346,3.9402,3.9447,3.9481,3.9471,3.9521,3.9571,3.9571,3.9596,3.962,3.962,3.962,3.9645,3.965,3.9679,3.9731,3.9781,3.9826,3.987,3.9954,3.9935,3.9975,4.0015,4.0036,4.0036,4.0015,3.9975,3.9954,3.9951,3.9889,3.9845,3.9823,3.9796,3.9684,3.9588,3.8957,3.8214,3.7355,3.6507,3.5624,3.4857,3.4039,3.3222,3.2533,3.1768,3.096,3.0259,2.9914,2.9907,3.0007,3.0083,3.0166,3.0188,3.0215,3.0267,3.0323,3.0367,3.0383,3.0394,3.0394,3.0406,3.0417,3.0469,3.049,3.052,3.0569,3.0608,3.0634,3.0657,3.0676,3.0704,3.0698,3.0716,3.0753,3.0774,3.0774,3.0786,3.0817,3.0807,3.081,3.0813,3.0794,3.0794,3.0813,3.0833,3.081,3.0807,3.081,3.081,3.0824,3.0801,3.0798,3.079,3.0778,3.0667,3.0244,2.904,2.7993,2.7179,2.6448,2.5751,2.5538,2.5518,2.5511,2.5538,2.5511,2.5505,2.5478,2.5498,2.5505,2.5531,3.9418,3.9418,3.9418,3.9451,3.9495,3.9514,3.9558,3.952,3.9539,3.9583,3.962,3.962,3.962,3.962,3.962,3.962,3.9626,3.9679,3.9708,3.9777,3.9804,3.987,3.9914,3.9975,4.0015,4.0057,4.0077,4.0096,4.0077,4.0077,4.0036,4.0036,3.9994,3.9973,3.9954,3.9994,3.9975,3.9889,3.963,3.8954,3.8131,3.731,3.6498,3.548,3.4708,3.4014,3.3043,3.2351,3.1694,3.0789,3.0026,2.9962,2.9972,3.0083,3.0128,3.0194,3.0228,3.0267,3.0336,3.0371,3.0425,3.0439,3.0479,3.049,3.049,3.049,3.053,3.055,3.0578,3.0616,3.0643,3.0668,3.0688,3.0704,3.0698,3.0697,3.0734,3.0774,3.0798,3.0794,3.0804,3.0833,3.0838,3.0841,3.0841,3.0838,3.0858,3.0858,3.0855,3.0855,3.0855,3.0855,3.0855,3.0855,3.0813,3.0794,3.0807,3.0804,3.0762,3.0147,2.8981,2.8067,2.7318,2.6486,2.5648,2.5554,2.5543,2.555,2.557,2.555,2.5531,2.5544,2.5544,2.555,2.5562,3.9418,3.9418,3.9514,3.9546,3.9596,3.9596,3.9596,3.962,3.9602,3.962,3.962,3.962,3.962,3.962,3.962,3.9645,3.9674,3.9703,3.9712,3.9804,3.9848,3.9892,3.9975,3.9996,4.0057,4.0077,4.0137,4.0157,4.0137,4.0117,4.0117,4.0117,4.0117,4.0077,4.0078,4.0157,4.0177,4.0138,3.983,3.9275,3.7959,3.7158,3.6568,3.517,3.4582,3.4089,3.2826,3.2053,3.158,3.0516,2.994,2.9988,3.0083,3.0157,3.0199,3.024,3.0286,3.0304,3.0371,3.0406,3.0458,3.049,3.051,3.053,3.055,3.054,3.055,3.0568,3.0595,3.064,3.0684,3.0692,3.0695,3.0717,3.0722,3.0734,3.0769,3.0789,3.081,3.0824,3.0852,3.0877,3.0884,3.0866,3.0866,3.0884,3.0882,3.0884,3.0884,3.0882,3.0886,3.0886,3.0868,3.0868,3.0847,3.0827,3.0825,3.0821,3.0801,3.0342,2.937,2.8408,2.7445,2.6517,2.5628,2.56,2.5591,2.5595,2.559,2.5576,2.5576,2.559,2.559,2.5595,2.5615,3.9571,3.9571,3.9571,3.9596,3.962,3.962,3.962,3.962,3.962,3.962,3.962,3.962,3.962,3.962,3.962,3.9645,3.9674,3.9703,3.9735,3.9804,3.9867,3.9933,3.9996,4.0057,4.0098,4.0176,4.0196,4.0234,4.0215,4.0196,4.0177,4.0196,4.0196,4.0196,4.0177,4.0289,4.0362,4.0342,4.0226,3.941,3.8002,3.7357,3.6711,3.5514,3.4775,3.4092,3.3067,3.2386,3.1455,3.0314,3.0114,3.0083,3.0176,3.0245,3.0279,3.0286,3.0343,3.0383,3.0398,3.0449,3.051,3.0559,3.0578,3.0586,3.0576,3.0586,3.0586,3.0613,3.0629,3.0673,3.0695,3.0703,3.0717,3.071,3.0745,3.0774,3.0799,3.0802,3.0824,3.0852,3.0877,3.0903,3.0909,3.0911,3.0911,3.0911,3.0912,3.0912,3.0912,3.0913,3.0897,3.0878,3.0878,3.0878,3.0857,3.0857,3.0857,3.0834,3.0831,3.0316,2.9684,2.8566,2.7435,2.6429,2.5678,2.5652,2.5621,2.5593,2.5609,2.5613,2.5632,2.5628,2.5652,2.5656,2.5671,3.9014,3.9051,3.9451,3.962,3.962,3.962,3.962,3.962,3.962,3.962,3.962,3.962,3.962,3.962,3.962,3.965,3.9698,3.9708,3.9777,3.9845,3.9889,3.9954,4.0017,4.0077,4.0157,4.0215,4.0272,4.0291,4.0291,4.0309,4.029,4.0289,4.029,4.0307,4.0304,4.0408,4.0492,4.0489,4.0579,3.976,3.8351,3.7846,3.6865,3.5701,3.4939,3.426,3.356,3.2839,3.1848,3.0871,3.0443,3.0223,3.0259,3.0324,3.0356,3.0381,3.0398,3.0447,3.0451,3.0501,3.055,3.0597,3.0615,3.0593,3.0637,3.0649,3.0645,3.0661,3.0661,3.0703,3.0704,3.0698,3.073,3.0753,3.0765,3.0782,3.0786,3.0798,3.083,3.0894,3.0901,3.0907,3.0912,3.0917,3.0917,3.0917,3.0917,3.0918,3.0918,3.0898,3.0878,3.0877,3.0877,3.0896,3.0895,3.0896,3.0897,3.0879,3.0858,3.0075,2.9293,2.8372,2.7373,2.6412,2.58,2.5693,2.5668,2.5642,2.5636,2.5655,2.5655,2.5655,2.5681,2.5704,2.5701,3.8413,3.8582,3.9276,3.962,3.962,3.962,3.962,3.962,3.962,3.962,3.962,3.962,3.962,3.962,3.962,3.9656,3.9684,3.9712,3.9781,3.9867,3.9889,3.9975,4.0036,4.0117,4.0176,4.0253,4.029,4.0326,4.0326,4.0362,4.0396,4.0394,4.0427,4.0422,4.0469,4.0545,4.0602,4.0662,4.0597,4.0289,3.941,3.8485,3.7153,3.6111,3.5353,3.4894,3.4064,3.3346,3.2502,3.1525,3.0733,3.042,3.033,3.0367,3.0386,3.0429,3.0466,3.051,3.0511,3.0549,3.0586,3.0604,3.0621,3.0645,3.0688,3.0703,3.0697,3.0723,3.0723,3.0711,3.071,3.0722,3.0753,3.0774,3.0782,3.0801,3.0804,3.081,3.0858,3.0923,3.0911,3.0914,3.0917,3.0918,3.0918,3.0918,3.0917,3.0913,3.0911,3.0871,3.0849,3.0847,3.0847,3.0862,3.0897,3.0882,3.0888,3.087,3.0699,2.9822,2.9002,2.8378,2.7539,2.6444,2.5973,2.5793,2.5709,2.5685,2.5681,2.5701,2.5681,2.5683,2.5685,2.5707,2.5701,3.8713,3.9352,3.9521,3.962,3.962,3.962,3.962,3.962,3.962,3.962,3.962,3.962,3.962,3.962,3.9669,3.9698,3.9689,3.9717,3.9804,3.9889,3.9911,3.9975,4.0057,4.0137,4.0196,4.0252,4.0326,4.0344,4.0377,4.0411,4.0425,4.0473,4.0523,4.0583,4.064,4.0688,4.0706,4.0773,4.0722,4.0461,3.9615,3.8666,3.7721,3.6759,3.5913,3.5133,3.441,3.4064,3.3038,3.191,3.0891,3.0498,3.0394,3.0436,3.0455,3.0466,3.0519,3.0559,3.0576,3.0604,3.0621,3.0665,3.0661,3.0683,3.0704,3.0698,3.073,3.0755,3.0755,3.0742,3.0753,3.0759,3.0789,3.0774,3.0798,3.0804,3.0807,3.0843,3.0891,3.0917,3.0917,3.0917,3.0917,3.0915,3.0915,3.0915,3.0915,3.0911,3.0909,3.0862,3.083,3.083,3.081,3.0804,3.0817,3.0827,3.0836,3.0816,3.0677,3.0016,2.9355,2.8689,2.7798,2.6715,2.6093,2.582,2.5761,2.5702,2.5702,2.5701,2.5699,2.5699,2.57,2.57,2.5698]},{"header":{"parameterUnit":"m.s-1","parameterCategory":1,"la1":31.0,"la2":29.5877,"lo1":-88.7671,"lo2":-86.6584,"dy":0.0162,"dx":0.0185,"nx":115,"ny":88,"refTime":"2023-05-20T06:00:00:Z","depth":0,"parameterNumber":3,"parameterNumberName":"V-component_of_WINDS"},"data":[0.0,0.0,0.0,0.0,0.0,0.0,0.0,0.0,0.0,0.0,0.0,0.0,0.0,0.0,0.0,0.0,0.0,0.0,0.0,0.0,0.0,0.0,0.0,0.0,0.0,0.0,0.0,0.0,0.0,0.0,0.0,0.0,0.0,0.0,0.0,0.0,0.0,0.0,0.0,0.0,0.0,0.0,0.0,0.0,0.0,0.0,0.0,0.0,0.0,0.0,0.0,0.0,0.0,0.0,0.0,0.0,0.0,0.0,0.0,0.0,0.0,0.0,0.0,0.0,0.0,0.0,0.0,0.0,0.0,0.0,0.0,0.0,0.0,0.0,0.0,0.0,0.0,0.0,0.0,0.0,0.0,0.0,0.0,0.0,0.0,0.0,0.0,0.0,0.0,0.0,0.0,0.0,0.0,0.0,0.0,0.0,0.0,0.0,0.0,0.0,0.0,0.0,0.0,0.0,0.0,0.0,0.0,0.0,0.0,0.0,0.0,0.0,0.0,0.0,0.0,0.0,0.0,0.0,0.0,0.0,0.0,0.0,0.0,0.0,0.0,0.0,0.0,0.0,0.0,0.0,0.0,0.0,0.0,0.0,0.0,0.0,0.0,0.0,0.0,0.0,0.0,0.0,0.0,0.0,0.0,0.0,0.0,0.0,0.0,0.0,0.0,0.0,0.0,0.0,0.0,0.0,0.0,0.0,0.0,0.0,0.0,0.0,0.0,0.0,0.0,0.0,0.0,0.0,0.0,0.0,0.0,0.0,0.0,0.0,0.0,0.0,0.0,0.0,0.0,0.0,0.0,0.0,0.0,0.0,0.0,0.0,0.0,0.0,0.0,0.0,0.0,0.0,0.0,0.0,0.0,0.0,0.0,0.0,0.0,0.0,0.0,0.0,0.0,0.0,0.0,0.0,0.0,0.0,0.0,0.0,0.0,0.0,0.0,0.0,0.0,0.0,0.0,0.0,0.0,0.0,0.0,0.0,0.0,0.0,0.0,0.0,0.0,0.0,0.0,0.0,0.0,0.0,0.0,0.0,0.0,0.0,0.0,0.0,0.0,0.0,0.0,0.0,0.0,0.0,0.0,0.0,0.0,0.0,0.0,0.0,0.0,0.0,0.0,0.0,0.0,0.0,0.0,0.0,0.0,0.0,0.0,0.0,0.0,0.0,0.0,0.0,0.0,0.0,0.0,0.0,0.0,0.0,0.0,0.0,0.0,0.0,0.0,0.0,0.0,0.0,0.0,0.0,0.0,0.0,0.0,0.0,0.0,0.0,0.0,0.0,0.0,0.0,0.0,0.0,0.0,0.0,0.0,0.0,0.0,0.0,0.0,0.0,0.0,0.0,0.0,0.0,0.0,0.0,0.0,0.0,0.0,0.0,0.0,0.0,0.0,0.0,0.0,0.0,0.0,0.0,0.0,0.0,0.0,0.0,0.0,0.0,0.0,0.0,0.0,0.0,0.0,0.0,0.0,0.0,0.0,0.0,0.0,0.0,0.0,0.0,0.0,0.0,0.0,0.0,0.0,0.0,0.0,0.0,0.0,0.0,0.0,0.0,0.0,0.0,0.0,0.0,0.0,0.0,0.0,0.0,0.0,0.0,0.0,0.0,0.0,0.0,0.0,0.0,0.0,0.0,0.0,0.0,0.0,0.0,0.0,0.0,0.0,0.0,0.0,0.0,0.0,0.0,0.0,0.0,0.0,0.0,0.0,0.0,0.0,0.0,0.0,0.0,0.0,0.0,0.0,0.0,0.0,0.0,0.0,0.0,0.0,0.0,0.0,0.0,0.0,0.0,0.0,0.0,0.0,0.0,0.0,0.0,0.0,0.0,0.0,0.0,0.0,0.0,0.0,0.0,0.0,0.0,0.0,0.0,0.0,0.0,0.0,0.0,0.0,0.0,0.0,0.0,0.0,0.0,0.0,0.0,0.0,0.0,0.0,0.0,0.0,0.0,0.0,0.0,0.0,0.0,0.0,0.0,0.0,0.0,0.0,0.0,0.0,0.0,0.0,0.0,0.0,0.0,0.0,0.0,0.0,0.0,0.0,0.0,0.0,0.0,0.0,0.0,0.0,0.0,0.0,0.0,0.0,0.0,0.0,0.0,0.0,0.0,0.0,0.0,0.0,0.0,0.0,0.0,0.0,0.0,0.0,0.0,0.0,0.0,0.0,0.0,0.0,0.0,0.0,0.0,0.0,0.0,0.0,0.0,0.0,0.0,0.0,0.0,0.0,0.0,0.0,0.0,0.0,0.0,0.0,0.0,0.0,0.0,0.0,0.0,0.0,0.0,0.0,0.0,0.0,0.0,0.0,0.0,0.0,0.0,0.0,0.0,0.0,0.0,0.0,0.0,0.0,0.0,0.0,0.0,0.0,0.0,0.0,0.0,0.0,0.0,0.0,0.0,0.0,0.0,0.0,0.0,0.0,0.0,0.0,0.0,0.0,0.0,0.0,0.0,0.0,0.0,0.0,0.0,0.0,0.0,0.0,0.0,0.0,0.0,0.0,0.0,0.0,0.0,0.0,0.0,0.0,0.0,0.0,0.0,0.0,0.0,0.0,0.0,0.0,0.0,0.0,0.0,0.0,0.0,0.0,0.0,0.0,0.0,0.0,0.0,0.0,0.0,0.0,0.0,0.0,0.0,0.0,0.0,0.0,0.0,0.0,0.0,0.0,0.0,0.0,0.0,0.0,0.0,0.0,0.0,0.0,0.0,0.0,0.0,0.0,0.0,0.0,0.0,0.0,0.0,0.0,0.0,0.0,0.0,0.0,0.0,0.0,0.0,0.0,0.0,0.0,0.0,0.0,0.0,0.0,0.0,0.0,0.0,0.0,0.0,0.0,0.0,0.0,0.0,0.0,0.0,0.0,0.0,0.0,0.0,0.0,0.0,0.0,0.0,0.0,0.0,0.0,0.0,0.0,0.0,0.0,0.0,0.0,0.0,0.0,0.0,0.0,0.0,0.0,0.0,0.0,0.0,0.0,0.0,0.0,0.0,0.0,0.0,0.0,0.0,0.0,0.0,0.0,0.0,0.0,0.0,0.0,0.0,0.0,0.0,0.0,0.0,0.0,0.0,0.0,0.0,0.0,0.0,0.0,0.0,0.0,0.0,0.0,0.0,0.0,0.0,0.0,0.0,0.0,0.0,0.0,0.0,0.0,0.0,0.0,0.0,0.0,0.0,0.0,0.0,0.0,0.0,0.0,0.0,0.0,0.0,0.0,0.0,0.0,0.0,0.0,0.0,0.0,0.0,0.0,0.0,0.0,0.0,0.0,0.0,0.0,0.0,0.0,0.0,0.0,0.0,0.0,0.0,0.0,0.0,0.0,0.0,0.0,0.0,0.0,0.0,0.0,0.0,0.0,0.0,0.0,0.0,0.0,0.0,0.0,0.0,0.0,0.0,0.0,0.0,0.0,0.0,0.0,0.0,0.0,0.0,0.0,0.0,0.0,0.0,0.0,0.0,0.0,0.0,0.0,0.0,0.0,0.0,0.0,0.0,0.0,0.0,0.0,0.0,0.0,0.0,0.0,0.0,0.0,0.0,0.0,0.0,0.0,0.0,0.0,0.0,0.0,0.0,0.0,0.0,0.0,0.0,0.0,0.0,0.0,0.0,0.0,0.0,0.0,0.0,0.0,0.0,0.0,0.0,0.0,0.0,0.0,0.0,0.0,0.0,0.0,0.0,0.0,0.0,0.0,0.0,0.0,0.0,0.0,0.0,0.0,0.0,0.0,0.0,0.0,0.0,0.0,0.0,0.0,0.0,0.0,0.0,0.0,0.0,0.0,0.0,0.0,0.0,0.0,0.0,0.0,0.0,0.0,0.0,0.0,0.0,0.0,0.0,0.0,0.0,0.0,0.0,0.0,0.0,0.0,0.0,0.0,0.0,0.0,0.0,0.0,0.0,0.0,0.0,0.0,0.0,0.0,0.0,0.0,0.0,0.0,0.0,0.0,0.0,0.0,0.0,0.0,0.0,0.0,0.0,0.0,0.0,0.0,0.0,0.0,0.0,0.0,0.0,0.0,0.0,0.0,0.0,0.0,0.0,0.0,0.0,0.0,0.0,0.0,0.0,0.0,0.0,0.0,0.0,0.0,0.0,0.0,0.0,0.0,0.0,0.0,0.0,0.0,0.0,0.0,0.0,0.0,0.0,0.0,0.0,0.0,0.0,0.0,0.0,0.0,0.0,0.0,0.0,0.0,0.0,0.0,0.0,0.0,0.0,0.0,0.0,0.0,0.0,0.0,0.0,0.0,0.0,0.0,0.0,-0.1165,0.0,0.0,0.0,0.0,0.0,0.0,0.0,0.0,0.0,0.0,0.0,0.0,0.0,0.0,0.0,0.0,0.0,0.0,0.0,0.0,0.0,0.0,0.0,0.0,0.0,0.0,0.0,0.0,0.0,0.0,0.0,0.0,0.0,0.0,0.0,0.0,0.0,0.0,0.0,0.0,0.0,0.0,0.0,0.0,0.0,0.0,0.0,0.0,0.0,0.0,0.0,0.0,0.0,0.0,0.0,0.0,0.0,0.0,0.0,0.0,0.0,0.0,0.0,0.0,0.0,0.0,0.0,0.0,0.0,0.0,0.0,0.0,0.0,0.0,0.0,0.0,0.0,0.0,0.0,0.0,0.0,0.0,0.0,0.0,0.0,0.0,0.0,0.0,0.0,0.0,0.0,0.0,0.0,0.0,0.0,0.0,0.0,0.0,0.0,0.0,0.0,0.0,0.0,0.0,0.0,0.0,0.0,0.0,0.0,0.0,-0.112,-0.112,-0.112,-0.112,-0.112,0.0,0.0,0.0,0.0,0.0,0.0,0.0,0.0,0.0,0.0,0.0,0.0,0.0,0.0,0.0,0.0,0.0,0.0,0.0,0.0,0.0,0.0,0.0,0.0,0.0,0.0,0.0,0.0,0.0,0.0,0.0,0.0,0.0,0.0,0.0,0.0,0.0,0.0,0.0,0.0,0.0,0.0,0.0,0.0,0.0,0.0,0.0,0.0,0.0,0.0,0.0,0.0,0.0,0.0,0.0,0.0,0.0,0.0,0.0,0.0,0.0,0.0,0.0,0.0,0.0,0.0,0.0,0.0,0.0,0.0,0.0,0.0,0.0,0.0,0.0,0.0,0.0,0.0,0.0,0.0,0.0,0.0,0.0,0.0,0.0,0.0,0.0,0.0,0.0,0.0,0.0,0.0,0.0,0.0,0.0,0.0,0.0,0.0,0.0,0.0,0.0,0.0,0.0,0.0,0.0,0.0,0.0,0.0,0.0,0.0,0.0,0.0,-0.0986,-0.0986,-0.0986,0.0,0.0,0.0,0.0,0.0,0.0,0.0,0.0,0.0,0.0,0.0,0.0,0.0,0.0,0.0,0.0,0.0,0.0,0.0,0.0,0.0,0.0,0.0,0.0,0.0,0.0,0.0,0.0,0.0,0.0,0.0,0.0,0.0,0.0,0.0,0.0,0.0,0.0,0.0,0.0,0.0,0.0,0.0,0.0,0.0,0.0,0.0,0.0,0.0,0.0,0.0,0.0,0.0,0.0,0.0,0.0,0.0,0.0,0.0,0.0,0.0,0.0,0.0,0.0,0.0,0.0,0.0,0.0,0.0,0.0,0.0,0.0,0.0,0.0,0.0,0.0,0.0,0.0,0.0,0.0,0.0,0.0,0.0,0.0,0.0,0.0,0.0,0.0,0.0,0.0,0.0,0.0,0.0,0.0,0.0,0.0,0.0,0.0,0.0,0.0,0.0,0.0,0.0,0.0,0.0,0.0,0.0,0.0,0.0,0.0,-0.0764,-0.0719,-0.0719,0.0,-0.0764,0.0,0.0,0.0,0.0,0.0,0.0,0.0,0.0,0.0,0.0,0.0,0.0,0.0,0.0,0.0,0.0,0.0,0.0,0.0,0.0,0.0,0.0,0.0,0.0,0.0,0.0,0.0,0.0,0.0,0.0,0.0,0.0,0.0,0.0,0.0,0.0,0.0,0.0,0.0,0.0,0.0,0.0,0.0,0.0,0.0,0.0,0.0,0.0,0.0,0.0,0.0,0.0,0.0,0.0,0.0,0.0,0.0,0.0,0.0,0.0,0.0,0.0,0.0,0.0,0.0,0.0,0.0,0.0,0.0,0.0,0.0,0.0,0.0,0.0,0.0,0.0,0.0,0.0,0.0,0.0,0.0,0.0,0.0,0.0,0.0,0.0,0.0,0.0,0.0,0.0,0.0,0.0,0.0,0.0,0.0,0.0,0.0,0.0,0.0,0.0,0.0,0.0,0.0,0.0,0.0,0.0,0.0,0.0,0.0,0.0,-0.0719,-0.0719,-0.0719,-0.0719,0.0,0.0,0.0,0.0,0.0,0.0,0.0,0.0,0.0,0.0,0.0,0.0,0.0,0.0,0.0,0.0,0.0,0.0,0.0,0.0,0.0,0.0,0.0,0.0,0.0,0.0,0.0,0.0,0.0,0.0,0.0,0.0,0.0,0.0,0.0,0.0,0.0,0.0,0.0,0.0,0.0,0.0,0.0,0.0,0.0,0.0,0.0,0.0,0.0,0.0,0.0,0.0,0.0,0.0,0.0,0.0,0.0,0.0,0.0,0.0,0.0,0.0,0.0,0.0,0.0,0.0,0.0,0.0,0.0,0.0,0.0,0.0,0.0,0.0,0.0,0.0,0.0,0.0,0.0,0.0,0.0,0.0,0.0,0.0,0.0,0.0,0.0,0.0,0.0,0.0,0.0,0.0,0.0,0.0,0.0,0.0,0.0,0.0,0.0,0.0,0.0,0.0,0.0,0.0,0.0,0.0,0.0,0.0,0.0,0.0,-0.065,-0.0648,-0.0595,-0.0595,-0.0637,-0.063,0.0,0.0,0.0,0.0,0.0,0.0,0.0,0.0,0.0,0.0,0.0,0.0,0.0,0.0,0.0,0.0,0.0,0.0,0.0,0.0,0.0,0.0,0.0,0.0,0.0,0.0,0.0,0.0,0.0,0.0,0.0,0.0,0.0,0.0,0.0,0.0,0.0,0.0,0.0,0.0,0.0,0.0,0.0,0.0,0.0,0.0,0.0,0.0,0.0,0.0,0.0,0.0,0.0,0.0,0.0,0.0,0.0,0.0,0.0,0.0,0.0,0.0,0.0,0.0,0.0,0.0,0.0,0.0,0.0,0.0,0.0,0.0,0.0,0.0,0.0,0.0,0.0,0.0,0.0,0.0,0.0,0.0,0.0,0.0,0.0,0.0,0.0,0.0,0.0,0.0,0.0,0.0,0.0,0.0,0.0,0.0,0.0,0.0,0.0,0.0,0.0,0.0,0.0,0.0,0.0,0.0,0.0,0.0,-0.0801,-0.0551,-0.0395,-0.0429,-0.0429,-0.0421,0.0,0.0,0.0,0.0,0.0,0.0,0.0,0.0,0.0,0.0,0.0,0.0,0.0,0.0,0.0,0.0,0.0,0.0,0.0,0.0,0.0,0.0,0.0,0.0,0.0,0.0,0.0,0.0,0.0,0.0,0.0,0.0,0.0,0.0,0.0,0.0,0.0,0.0,0.0,0.0,0.0,0.0,0.0,0.0,0.0,0.0,0.0,0.0,0.0,0.0,0.0,0.0,0.0,0.0,0.0,0.0,0.0,0.0,0.0,0.0,0.0,0.0,0.0,0.0,0.0,0.0,0.0,0.0,0.0,0.0,0.0,0.0,0.0,0.0,0.0,0.0,0.0,0.0,0.0,0.0,0.0,0.0,0.0,0.0,0.0,0.0,0.0,0.0,0.0,0.0,0.0,0.0,0.0,0.0,0.0,0.0,0.0,0.0,0.0,0.0,0.0,0.0,0.0,0.0,0.0,0.0,0.0,0.0,0.0,-0.0706,-0.0353,-0.0151,-0.0149,0.0248,0.0389,0.0,0.0,0.0,0.0,0.0,0.0,0.0,0.0,0.0,0.0,0.0,0.0,0.0,0.0,0.0,0.0,0.0,0.0,0.0,0.0,0.0,0.0,0.0,0.0,0.0,0.0,0.0,0.0,0.0,0.0,0.0,0.0,0.0,0.0,0.0,0.0,0.0,0.0,0.0,0.0,0.0,0.0,0.0,0.0,0.0,0.0,0.0,0.0,0.0,0.0,0.0,0.0,0.0,0.0,0.0,0.0,0.0,0.0,0.0,0.0,0.0,0.0,0.0,0.0,0.0,0.0,0.0,0.0,0.0,0.0,0.0,0.0,0.0,0.0,0.0,0.0,0.0,0.0,0.0,0.0,0.0,0.0,0.0,0.0,0.0,0.0,0.0,0.0,0.0,0.0,0.0,0.0,0.0,0.0,0.0,0.0,0.0,0.0,0.0,0.0,0.0,0.0,0.0,0.0,0.0,0.0,0.0,0.0,0.0,-0.047,0.0,0.0104,0.0309,0.0668,0.0858,0.0,0.0,0.0,0.0,0.0,0.0,0.0,0.0,0.0,0.0,0.0,0.0,0.0,0.0,0.0,0.0,0.0,0.0,0.0,0.0,0.0,0.0,0.0,0.0,0.0,0.0,0.0,0.0,0.0,0.0,0.0,0.0,0.0,0.0,0.0,0.0,0.0,0.0,0.0,0.0,0.0,0.0,0.0,0.0,0.0,0.0,0.0,0.0,0.0,0.0,0.0,0.0,0.0,0.0,0.0,0.0,0.0,0.0,0.0,0.0,0.0,0.0,0.0,0.0,0.0,0.0,0.0,0.0,0.0,0.0,0.0,0.0,0.0,0.0,0.0,0.0,0.0,0.0,0.0,0.0,0.0,0.0,0.0,0.0,0.0,0.0,0.0,0.0,0.0,0.0,0.0,0.0,0.0,0.0,0.0,0.0,0.0,0.0,0.0,0.0,0.0,0.0,0.0,0.0,0.0,0.0,0.0,0.0,-0.0596,-0.0056,0.0,0.033,0.0853,0.0906,0.089,0.0,0.0,0.0,0.0,0.0,0.0,0.0,0.0,0.0,0.0,0.0,0.0,0.0,0.0,0.0,0.0,0.0,0.0,0.0,0.0,0.0,0.0,0.0,0.0,0.0,0.0,0.0,0.0,0.0,0.0,0.0,0.0,0.0,0.0,0.0,0.0,0.0,0.0,0.0,0.0,0.0,0.0,0.0,0.0,0.0,0.0,0.0,0.0,0.0,0.0,0.0,0.0,0.0,0.0,0.0,0.0,0.0,0.0,0.0,0.0,0.0,0.0,0.0,0.0,0.0,0.0,0.0,0.0,0.0,0.0,0.0,0.0,0.0,0.0,0.0,0.0,0.0,0.0,0.0,0.0,0.0,0.0,0.0,0.0,0.0,0.0,0.0,0.0,0.0,0.0,0.0,0.0,0.0,0.0,0.0,0.0,0.0,0.0,0.0,0.0,0.0,0.0,0.0,0.0,0.0,0.0,0.0,0.0,0.0,-0.0,0.0393,0.0725,0.0884,0.0883,0.0869,0.0,0.0,0.0,0.0,0.0,0.0,0.0,0.0,0.0,0.0,0.0,0.0,0.0,0.0,0.0,0.0,0.0,0.0,0.0,0.0,0.0,0.0,0.0,0.0,0.0,0.0,0.0,0.0,0.0,0.0,0.0,0.0,0.0,0.0,0.0,0.0,0.0,0.0,0.0,0.0,0.0,0.0,0.0,0.0,0.0,0.0,0.0,0.0,0.0,0.0,0.0,0.0,0.0,0.0,0.0,0.0,0.0,0.0,0.0,0.0,0.0,0.0,0.0,0.0,0.0,0.0,0.0,0.0,0.0,0.0,0.0,0.0,0.0,0.0,0.0,0.0,0.0,0.0,0.0,0.0,0.0,0.0,0.0,0.0,0.0,0.0,0.0,0.0,0.0,0.0,0.0,0.0,0.0,0.0,0.0,0.0,0.0,0.0,0.0,0.0,0.0,0.0,0.0,0.0,0.0,0.0,0.0,0.0,0.0,0.0407,0.0747,0.0857,0.0857,0.0903,0.0889,0.087,0.0,0.0,0.0,0.0,0.0,0.0,0.0,0.0,0.0,0.0,0.0,0.0,0.0,0.0,0.0,0.0,0.0,0.0,0.0,0.0,0.0,0.0,0.0,0.0,0.0,0.0,0.0,0.0,0.0,0.0,0.0,0.0,0.0,0.0,0.0,0.0,0.0,0.0,0.0,0.0,0.0,0.0,0.0,0.0,0.0,0.0,0.0,0.0,0.0,0.0,0.0,0.0,0.0,0.0,0.0,0.0,0.0,0.0,0.0,0.0,0.0,0.0,0.0,0.0,0.0,0.0,0.0,0.0,0.0,0.0,0.0,0.0,0.0,0.0,0.0,0.0,0.0,0.0,0.0,0.0,0.0,0.0,0.0,0.0,0.0,0.0,0.0,0.0,0.0,0.0,0.0,0.0,0.0,0.0,0.0,0.0,0.0,0.0,0.0,0.0,0.0,0.0,0.0,0.0,0.0,0.0,0.0,0.0,0.1117,0.0964,0.0888,0.0886,0.0916,0.09,0.0,0.0,0.0,0.0,0.0,0.0,0.0,0.0,0.0,0.0,0.0,0.0,0.0,0.0,0.0,0.0,0.0,0.0,0.0,0.0,0.0,0.0,0.0,0.0,0.0,0.0,0.0,0.0,0.0,0.0,0.0,0.0,0.0,0.0,0.0,0.0,0.0,0.0,0.0,0.0,0.0,0.0,0.0,0.0,0.0,0.0,0.0,0.0,0.0,0.0,0.0,0.0,0.0,0.0,0.0,0.0,0.0,0.0,0.0,0.0,0.0,0.0,0.0,0.0,0.0,0.0,0.0,0.0,0.0,0.0,0.0,0.0,0.0,0.0,0.0,0.0,0.0,0.0,0.0,0.0,0.0,0.0,0.0,0.0,0.0,0.0,0.0,0.0,0.0,0.0,0.0,0.0,0.0,0.0,0.0,0.0,0.0,0.0,0.0,0.0,0.0,0.0,0.0,0.0,0.0,0.0,0.0,0.0,0.0,0.1119,0.1026,0.0999,0.0977,0.0888,0.0872,0.0,0.0,0.0,0.0,0.0,0.0,0.0,0.0,0.0,0.0,0.0,0.0,0.0,0.0,0.0,0.0,0.0,0.0,0.0,0.0,0.0,0.0,0.0,0.0,0.0,0.0,0.0,0.0,0.0,0.0,0.0,0.0,0.0,0.0,0.0,0.0,0.0,0.0,0.0,0.0,0.0,0.0,0.0,0.0,0.0,0.0,0.0,0.0,0.0,0.0,0.0,0.0,0.0,0.0,0.0,0.0,0.0,0.0,0.0,0.0,0.0,0.0,0.0,0.0,0.0,0.0,0.0,0.0,0.0,0.0,0.0,0.0,0.0,0.0,0.0,0.0,0.0,0.0,0.0,0.0,0.0,0.0,0.0,0.0,0.0,0.0,0.0,0.0,0.0,0.0,0.0,0.0,0.0,0.0,0.0,0.0,0.0,0.0,0.0,0.0,0.0,0.0,0.0,0.0,0.0,0.0,0.0,0.0,0.0928,0.1078,0.1062,0.1044,0.1025,0.0984,0.0896,0.0,0.0,0.0,0.0,0.0,0.0,0.0,0.0,0.0,0.0,0.0,0.0,0.0,0.0,0.0,0.0,0.0,0.0,0.0,0.0,0.0,0.0,0.0,0.0,0.0,0.0,0.0,0.0,0.0,0.0,0.0,0.0,0.0,0.0,0.0,0.0,0.0,0.0,0.0,0.0,0.0,0.0,0.0,0.0,0.0,0.0,0.0,0.0,0.0,0.0,0.0,0.0,0.0,0.0,0.0,0.0,0.0,0.0,0.0,0.0,0.0,0.0,0.0,0.0,0.0,0.0,0.0,0.0,0.0,0.0,0.0,0.0,0.0,0.0,0.0,0.0,0.0,0.0,0.0,0.0,0.0,0.0,0.0,0.0,0.0,0.0,0.0,0.0,0.0,0.0,0.0,0.0,0.0,0.0,0.0,0.0,0.0,0.0,0.0,0.0,0.0,0.0,0.0,0.0,0.0,0.0,0.0,0.0,0.0742,0.108,0.1078,0.1078,0.1074,0.1022,0.0979,0.0,0.0,0.0,0.0,0.0,0.0,0.0,0.0,0.0,0.0,0.0,0.0,0.0,0.0,0.0,0.0,0.0,0.0,0.0,0.0,0.0,0.0,0.0,0.0,0.0,0.0,0.0,0.0,0.0,0.0,0.0,0.0,0.0,0.0,0.0,0.0,0.0,0.0,0.0,0.0,0.0,0.0,0.0,0.0,0.0,0.0,0.0,0.0,0.0,0.0,0.0,0.0,0.0,0.0,0.0,0.0,0.0,0.0,0.0,0.0,0.0,0.0,0.0,0.0,0.0,0.0,0.0,0.0,0.0,0.0,0.0,0.0,0.0,0.0,0.0,0.0,0.0,0.0,0.0,0.0,0.0,0.0,0.0,0.0,0.0,0.0,0.0,0.0,0.0,0.0,0.0,0.0,0.0,0.0,0.0,0.0,0.0,0.0,0.0,0.0,0.0,0.0,0.0,0.0,0.0,0.0,0.0,0.0,0.1012,0.1079,0.1078,0.1076,0.1076,0.1042,0.1073,0.0,0.0,0.0,0.0,0.0,0.0,0.0,0.0,0.0,0.0,0.0,0.0,0.0,0.0,0.0,0.0,0.0,0.0,0.0,0.0,0.0,0.0,0.0,0.0,0.0,0.0,0.0,0.0,0.0,0.0,0.0,0.0,0.0,0.0,0.0,0.0,0.0,0.0,0.0,0.0,0.0,0.0,0.0,0.0,0.0,0.0,0.0,0.0,0.6764,0.0,0.0,0.0,0.0,0.0,0.0,0.0,0.0,0.0,0.0,0.0,0.0,0.0,0.0,0.0,0.0,0.0,0.0,0.0,0.0,0.0,0.0,0.0,0.0,0.0,0.0,0.0,0.0,0.0,0.0,0.0,0.0,0.0,0.0,0.0,0.0,0.0,0.0,0.0,0.0,0.0,0.0,0.0,0.0,0.0,0.0,0.0,0.0,0.0,0.0,0.0,0.0,0.0,0.0,0.0,0.0,0.0,0.0,0.0,0.1078,0.1078,0.1076,0.1143,0.1209,0.1128,0.1169,0.0,0.0,0.0,0.0,0.0,0.0,0.0,0.0,0.0,0.0,0.0,0.0,0.0,0.0,0.0,0.0,0.0,0.0,0.0,0.0,0.0,0.0,0.0,0.0,0.0,0.0,0.0,0.0,0.0,0.0,0.0,0.0,0.0,0.0,0.0,0.0,0.0,0.0,0.0,0.0,0.0,0.0,0.0,0.0,0.0,0.0,0.0,0.0,0.0,0.0,0.0,0.0,0.0,0.0,0.0,0.0,0.0,0.0,0.0,0.0,0.0,0.0,0.0,0.0,0.0,0.0,0.0,0.0,0.0,0.0,0.0,0.0,0.0,0.0,0.0,0.0,0.0,0.0,0.0,0.0,0.0,0.0,0.0,0.0,0.0,0.0,0.0,0.0,0.0,0.0,0.0,0.0,0.0,0.0,0.0,0.0,0.0,0.0,0.0,0.0,0.0,0.0,0.0,0.0,0.0,0.0,0.0,0.108,0.1082,0.115,0.115,0.1218,0.1354,0.1347,0.133,0.1427,0.0,0.0,0.0,0.0,0.0,0.0,0.0,0.0,0.0,0.0,0.0,0.0,0.0,0.0,0.0,0.0,0.0,0.0,0.0,0.0,0.0,0.0,0.0,0.0,0.0,0.0,0.0,0.0,0.0,0.0,0.0,0.0,0.0,0.0,0.0,0.0,0.0,0.0,0.4316,0.4845,0.0,0.0,0.0,0.0,0.0,0.0,0.0,0.0,0.6963,0.0,0.0,0.0,0.0,0.0,0.0,0.0,0.0,0.0,0.0,0.0,0.0,0.0,0.0,0.0,0.0,0.0,0.0,0.0,0.0,0.0,0.0,0.0,0.0,0.0,0.0,0.0,0.0,0.0,0.0,0.0,0.0,0.0,0.0,0.0,0.0,0.0,0.0,0.0,0.0,0.0,0.0,0.0,0.0,0.0,0.0,0.0,0.0,0.0,0.0,0.0,0.0,0.0,0.0,0.0,0.0,0.1076,0.11,0.1183,0.1323,0.1323,0.1463,0.1601,0.1565,0.1611,0.1801,0.0,0.0,0.0,0.0,0.0,0.0,0.0,0.0,0.0,0.0,0.0,0.0,0.0,0.0,0.0,0.0,0.0,0.0,0.0,0.0,0.0,0.0,0.0,0.0,0.0,0.0,0.0,0.0,0.0,0.0,0.0,0.0,0.0,0.0,0.0,0.0,0.0,0.0,0.0,0.4932,0.5236,0.0,0.0,0.0,0.0,0.0,0.0,0.0,0.0,0.7112,0.0,0.0,0.0,0.0,0.0,0.0,0.0,0.0,0.0,0.0,0.0,0.0,0.0,0.0,0.0,0.0,0.0,0.0,0.0,0.0,0.0,0.0,0.0,0.0,0.0,0.0,0.0,0.0,0.0,0.0,0.0,0.0,0.0,0.0,0.0,0.0,0.0,0.0,0.0,0.0,0.0,0.0,0.0,0.0,0.0,0.0,0.0,0.0,0.0,0.0,0.0,0.0,0.0,0.0,0.0,0.1443,0.1392,0.1482,0.1645,0.1574,0.1707,0.1824,0.1868,0.1981,0.0,0.0,0.0,0.0,0.0,0.0,0.0,0.0,0.0,0.0,0.0,0.0,0.0,0.0,0.0,0.0,0.0,0.0,0.0,0.0,0.0,0.0,0.0,0.0,0.0,0.0,0.0,0.0,0.0,0.0,0.0,0.0,0.0,0.0,0.0,0.0,0.0,0.0,0.0,0.0,0.4888,0.5154,0.5285,0.0,0.0,0.0,0.0,0.0,0.0,0.7043,0.7294,0.0,0.0,0.0,0.0,0.0,0.0,0.0,0.0,0.0,0.0,0.0,0.0,0.0,0.0,0.0,0.0,0.0,0.0,0.0,0.0,0.0,0.0,0.0,0.0,0.0,0.0,0.0,0.0,0.0,0.0,0.0,0.0,0.0,0.0,0.0,0.0,0.0,0.0,0.0,0.0,0.0,0.0,0.0,0.0,0.0,0.0,0.0,0.0,0.0,0.0,0.0,0.0,0.0,0.0,0.0,0.168,0.1692,0.1789,0.1908,0.191,0.2032,0.2192,0.2249,0.2354,0.0,0.0,0.0,0.0,0.0,0.0,0.0,0.0,0.0,0.0,0.0,0.0,0.0,0.0,0.0,0.0,0.0,0.0,0.0,0.0,0.0,0.0,0.0,0.0,0.0,0.0,0.0,0.0,0.0,0.0,0.0,0.0,0.0,0.0,0.0,0.0,0.0,0.0,0.0,0.0,0.0,0.5149,0.5415,0.6021,0.0,0.0,0.0,0.0,0.7086,0.7328,0.0,0.0,0.0,0.0,0.0,0.0,0.0,0.0,0.0,0.0,0.0,0.0,0.0,0.0,0.0,0.0,0.0,0.0,0.0,0.0,0.0,0.0,0.0,0.0,0.0,0.0,0.0,0.0,0.0,0.0,0.0,0.0,0.0,0.0,0.0,0.0,0.0,0.0,0.0,0.0,0.0,0.0,0.0,0.0,0.0,0.0,0.0,0.0,0.0,0.0,0.0,0.0,0.0,0.0,0.0,0.0,0.1681,0.1721,0.1983,0.2406,0.2334,0.2456,0.2758,0.2765,0.2766,0.0,0.0,0.0,0.0,0.0,0.0,0.0,0.0,0.0,0.0,0.0,0.0,0.0,0.0,0.0,0.0,0.0,0.0,0.0,0.0,0.0,0.0,0.0,0.0,0.0,0.0,0.0,0.0,0.0,0.0,0.0,0.0,0.0,0.0,0.0,0.0,0.0,0.0,0.0,0.0,0.0,0.5418,0.5846,0.6368,0.6769,0.0,0.0,0.7583,0.7821,0.7842,0.0,0.0,0.0,0.0,0.0,0.0,0.0,0.0,0.0,0.0,0.0,0.0,0.0,0.0,0.0,0.0,0.0,0.0,0.0,0.0,0.0,0.0,0.0,0.0,0.0,0.0,0.0,0.0,0.0,0.0,0.0,0.0,0.0,0.0,0.0,0.0,0.0,0.0,0.0,0.0,0.0,0.0,0.0,0.0,0.0,0.0,0.0,0.0,0.0,0.0,0.0,0.0,0.0,0.0,0.0,0.2265,0.236,0.2391,0.2526,0.2854,0.2781,0.2882,0.3061,0.3099,0.3163,0.0,0.0,0.0,0.0,0.0,0.0,0.0,0.0,0.0,0.0,0.0,0.0,0.0,0.0,0.0,0.0,0.0,0.0,0.0,0.0,0.0,0.0,0.0,0.0,0.0,0.0,0.0,0.0,0.0,0.0,0.0,0.0,0.0,0.0,0.0,0.0,0.0,0.0,0.0,0.0,0.0,0.0,0.5941,0.6602,0.0,0.0,0.0,0.7917,0.7914,0.0,0.0,0.0,0.0,0.0,0.0,0.0,0.0,0.0,0.0,0.0,0.0,0.0,0.0,0.0,0.0,0.0,0.0,0.0,0.0,0.0,0.0,0.0,0.0,0.0,0.0,0.0,0.0,0.0,0.0,0.0,0.0,0.0,0.0,0.0,0.0,0.0,0.0,0.0,0.0,0.0,0.0,0.0,0.0,0.0,0.0,0.0,0.0,0.0,0.0,0.0,0.0,0.0,0.0,0.0,0.0,0.0,0.2909,0.3004,0.3081,0.329,0.3374,0.3373,0.3503,0.357,0.0,0.0,0.0,0.0,0.0,0.0,0.0,0.0,0.0,0.0,0.0,0.0,0.0,0.0,0.0,0.0,0.0,0.0,0.0,0.0,0.0,0.0,0.0,0.0,0.0,0.0,0.0,0.335,0.0,0.0,0.0,0.0,0.0,0.0,0.0,0.0,0.0,0.0,0.0,0.0,0.0,0.0,0.5947,0.6157,0.677,0.7195,0.0,0.0,0.81,0.7992,0.8101,0.8233,0.0,0.0,0.0,0.0,0.0,0.0,0.0,0.0,0.0,0.0,0.0,0.0,0.0,0.0,0.0,0.0,0.0,0.0,0.0,0.0,0.0,0.0,0.0,0.0,0.0,0.0,0.0,0.0,0.0,0.0,0.0,0.0,0.0,0.0,0.0,0.0,0.0,0.0,0.0,0.0,0.0,0.0,0.0,0.0,0.0,0.0,0.0,0.0,0.0,0.0,0.0,0.0,0.0,0.0,0.0,0.2913,0.3204,0.351,0.3759,0.3921,0.406,0.4222,0.4212,0.4325,0.0,0.0,0.0,0.0,0.0,0.0,0.0,0.0,0.0,0.0,0.0,0.0,0.0,0.0,0.0,0.0,0.0,0.0,0.0,0.0,0.0,0.0,0.0,0.0,0.0,0.0,0.0,0.0,0.0,0.0,0.0,0.0,0.0,0.0,0.0,0.0,0.0,0.0,0.0,0.0,0.0,0.6171,0.6577,0.6886,0.7171,0.0,0.0,0.8002,0.8143,0.8396,0.8593,0.8567,0.0,0.0,0.0,0.0,0.0,0.0,0.0,0.0,0.0,0.0,0.0,0.0,0.0,0.0,0.0,0.0,0.0,0.0,0.0,0.0,0.0,0.0,0.0,0.0,0.0,0.0,0.0,0.0,0.0,0.0,0.0,0.0,0.0,0.0,0.0,0.0,0.0,0.0,0.0,0.0,0.0,0.0,0.0,0.0,0.0,0.0,0.0,0.0,0.0,0.0,0.0,0.0,0.0,0.3472,0.364,0.388,0.4054,0.4304,0.4467,0.4548,0.4762,0.4692,0.4788,0.0,0.0,0.0,0.0,0.0,0.0,0.0,0.0,0.0,0.0,0.0,0.0,0.0,0.0,0.0,0.0,0.0,0.0,0.0,0.0,0.0,0.0,0.0,0.0,0.0,0.0,0.0,0.0,0.3578,0.3622,0.366,0.0,0.0,0.0,0.0,0.0,0.0,0.0,0.0,0.0,0.0,0.6343,0.6637,0.6923,0.0,0.0,0.7628,0.7842,0.8008,0.8215,0.8421,0.858,0.8704,0.0,0.0,0.0,0.0,0.0,0.0,0.0,0.0,0.0,0.0,0.0,0.0,0.0,0.0,0.0,0.0,0.0,0.0,0.0,0.0,0.0,0.0,0.0,0.0,0.0,0.0,0.0,0.0,0.0,0.0,0.0,0.0,0.0,0.0,0.0,0.0,0.0,0.0,0.0,0.0,0.0,0.0,0.0,0.0,0.0,0.0,0.0,0.0,0.0,0.0,0.0,0.0,0.3944,0.4269,0.445,0.4619,0.4851,0.4935,0.5106,0.5358,0.5267,0.5353,0.0,0.0,0.0,0.0,0.0,0.0,0.0,0.0,0.0,0.0,0.0,0.0,0.0,0.0,0.0,0.0,0.0,0.0,0.0,0.0,0.0,0.0,0.0,0.0,0.0,0.0,0.0,0.0,0.3711,0.3707,0.3744,0.0,0.0,0.0,0.0,0.0,0.0,0.0,0.0,0.0,0.0,0.644,0.6647,0.6864,0.7031,0.7257,0.7467,0.7676,0.7842,0.8062,0.8268,0.8421,0.0,0.0,0.0,0.0,0.0,0.0,0.0,0.0,0.0,0.0,0.0,0.0,0.0,0.0,0.0,0.0,0.0,0.0,0.0,0.0,0.0,0.0,0.0,0.0,0.0,0.0,0.0,0.2067,0.0,0.0,0.176,0.0,0.0,0.0,0.0,0.0,0.0,0.0,0.0,0.0,0.0,0.0,0.0,0.0,0.0,0.0,0.0,0.0,0.0,0.0,0.0,0.0,0.0,0.4269,0.4597,0.486,0.5079,0.5321,0.5479,0.5726,0.5966,0.5952,0.6037,0.6157,0.0,0.0,0.0,0.0,0.0,0.0,0.0,0.0,0.0,0.0,0.0,0.0,0.0,0.0,0.0,0.0,0.0,0.0,0.0,0.0,0.0,0.0,0.0,0.0,0.0,0.0,0.3803,0.384,0.3891,0.0,0.0,0.0,0.0,0.0,0.0,0.0,0.0,0.0,0.0,0.6009,0.6337,0.6647,0.6707,0.6874,0.7263,0.7413,0.7568,0.767,0.8002,0.8228,0.0,0.0,0.0,0.0,0.0,0.0,0.0,0.0,0.0,0.0,0.0,0.0,0.0,0.0,0.0,0.0,0.0,0.0,0.0,0.0,0.0,0.0,0.0,0.0,0.0,0.0,0.0,0.2622,0.2371,0.0,0.0,0.0,0.0,0.0,0.0,0.0,0.0,0.0,0.0,0.0,0.2677,0.3007,0.0,0.0,0.0,0.0,0.0,0.0,0.0,0.0,0.0,0.0,0.0,0.0,0.4795,0.5211,0.5337,0.5556,0.5948,0.6025,0.623,0.6554,0.6457,0.6473,0.6559,0.0,0.0,0.0,0.0,0.0,0.0,0.0,0.0,0.0,0.0,0.0,0.0,0.0,0.0,0.0,0.0,0.0,0.0,0.0,0.0,0.0,0.0,0.0,0.0,0.0,0.3952,0.0,0.0,0.0,0.0,0.0,0.0,0.0,0.0,0.0,0.0,0.0,0.577,0.5887,0.6069,0.6337,0.6652,0.6707,0.6815,0.0,0.0,0.0,0.0,0.0,0.0,0.0,0.0,0.0,0.0,0.0,0.0,0.0,0.0,0.9413,0.9562,0.9614,0.9614,0.9614,0.0,0.0,0.0,0.0,0.0,0.0,0.0,0.0,0.0,0.0,0.0,0.0,0.0,0.0,0.3009,0.0,0.2733,0.0,0.0,0.0,0.0,0.0,0.0,0.0,0.0,0.266,0.2764,0.2947,0.3292,0.3466,0.0,0.3794,0.3811,0.0,0.0,0.0,0.0,0.0,0.0,0.0,0.0,0.5309,0.5733,0.5825,0.6025,0.6486,0.6486,0.6637,0.7019,0.6934,0.6964,0.7082,0.7233,0.731,0.0,0.0,0.0,0.0,0.0,0.0,0.0,0.0,0.0,0.0,0.0,0.0,0.0,0.0,0.0,0.0,0.0,0.0,0.0,0.0,0.0,0.0,0.0,0.4652,0.0,0.0,0.0,0.0,0.0,0.0,0.0,0.0,0.0,0.5305,0.5623,0.585,0.6005,0.6114,0.6337,0.6652,0.0,0.0,0.0,0.0,0.0,0.0,0.0,0.8116,0.8159,0.8331,0.8557,0.8825,0.9044,0.9268,0.9425,0.0,0.0,0.9449,0.9517,0.951,0.951,0.9562,0.9614,0.9614,0.9614,0.9621,0.0,0.0,0.0,0.0,0.0,0.0,0.0,0.0,0.3584,0.3525,0.0,0.3212,0.0,0.0,0.0,0.0,0.2413,0.2415,0.0,0.0,0.2856,0.3091,0.3361,0.3456,0.3634,0.383,0.3974,0.4099,0.4194,0.4094,0.0,0.0,0.0,0.0,0.0,0.0,0.5809,0.6251,0.6338,0.649,0.6865,0.6942,0.7022,0.7253,0.7397,0.7594,0.779,0.7667,0.7528,0.7505,0.7655,0.0,0.0,0.0,0.0,0.0,0.0,0.0,0.0,0.0,0.0,0.0,0.0,0.0,0.0,0.0,0.0,0.0,0.0,0.0,0.0,0.5628,0.0,0.0,0.0,0.0,0.0,0.0,0.0,0.0,0.0,0.0,0.5387,0.5627,0.5845,0.6005,0.0,0.0,0.0,0.0,0.712,0.7405,0.7634,0.7828,0.7957,0.8263,0.844,0.8122,0.0,0.0,0.9324,0.9492,0.9653,0.9846,0.9935,0.9883,0.9305,0.9379,0.9411,0.9382,0.9494,0.9577,0.9562,0.9569,0.9621,0.5913,0.0,0.0,0.0,0.0,0.432,0.421,0.4068,0.3884,0.3719,0.3625,0.3593,0.0,0.0,0.0,0.0,0.0,0.0,0.2964,0.3183,0.3272,0.3383,0.3718,0.3893,0.4015,0.4084,0.4512,0.4714,0.4748,0.485,0.4921,0.4965,0.0,0.0,0.0,0.0,0.6217,0.6483,0.6641,0.6868,0.7103,0.7253,0.7484,0.7872,0.8045,0.8103,0.8042,0.821,0.8226,0.7855,0.8048,0.0,0.0,0.0,0.0,0.0,0.0,0.0,0.0,0.0,0.0,0.0,0.0,0.0,0.0,0.0,0.0,0.0,0.0,0.0,0.6039,0.6034,0.6039,0.0,0.0,0.0,0.0,0.0,0.0,0.0,0.0,0.0,0.582,0.586,0.6005,0.0,0.0,0.6722,0.6895,0.7208,0.7469,0.7645,0.7752,0.0,0.7968,0.8475,0.8664,0.8193,0.861,0.9032,0.9091,0.933,0.9505,0.9563,0.9673,0.9728,0.9459,0.9638,0.9729,0.9528,0.9526,0.9571,0.9365,0.9354,0.9465,0.6331,0.5773,0.552,0.5188,0.4869,0.4629,0.4455,0.432,0.4199,0.4034,0.3948,0.3966,0.3823,0.3633,0.3532,0.0,0.0,0.0,0.3375,0.3538,0.3579,0.3763,0.3963,0.4211,0.4406,0.4553,0.4839,0.5047,0.517,0.5383,0.5411,0.539,0.0,0.0,0.6118,0.6287,0.6567,0.6795,0.7019,0.7253,0.7415,0.7642,0.7868,0.8178,0.8331,0.8429,0.8463,0.8591,0.864,0.8379,0.8407,0.8322,0.0,0.0,0.0,0.0,0.0,0.0,0.0,0.0,0.0,0.0,0.0,0.6707,0.0,0.0,0.0,0.0,0.6815,0.6701,0.6421,0.6475,0.0,0.0,0.0,0.0,0.0,0.0,0.0,0.6064,0.6014,0.6041,0.6165,0.6179,0.6235,0.629,0.6639,0.6944,0.7118,0.0,0.7765,0.7935,0.8021,0.8081,0.8198,0.8527,0.8717,0.8621,0.8932,0.9242,0.9302,0.9423,0.9611,0.9726,0.9853,0.9906,0.9893,1.0133,1.0175,0.9706,0.9736,0.9785,0.9603,0.963,0.9677,0.675,0.641,0.5693,0.5321,0.5105,0.4853,0.475,0.4672,0.4552,0.4424,0.4319,0.4344,0.4221,0.3944,0.3655,0.0,0.3635,0.3642,0.3697,0.3854,0.3954,0.4069,0.4219,0.4395,0.4664,0.5035,0.5047,0.5258,0.552,0.5744,0.5885,0.5931,0.5898,0.6132,0.6574,0.6659,0.6894,0.7223,0.7439,0.7658,0.788,0.803,0.8178,0.8403,0.8479,0.8632,0.8941,0.8827,0.8856,0.8968,0.8803,0.8633,0.8659,0.0,0.0,0.0,0.0,0.0,0.0,0.0,0.0,0.0,0.0,0.0,0.0,0.0,0.0,0.0,0.7085,0.0,0.6784,0.7015,0.0,0.0,0.0,0.6874,0.6707,0.6544,0.6436,0.6436,0.0,0.0,0.6506,0.6558,0.6582,0.6582,0.6929,0.717,0.7285,0.766,0.7996,0.8178,0.8366,0.8506,0.8463,0.8522,0.8709,0.9157,0.9408,0.9518,0.9703,0.9773,0.9919,1.0142,1.0301,1.0351,1.0548,1.0577,1.0456,1.0103,1.0082,1.0105,1.0043,1.0022,1.0008,0.686,0.6591,0.6117,0.5856,0.5637,0.5401,0.5269,0.5297,0.5157,0.4968,0.4856,0.4827,0.4685,0.4316,0.4157,0.4026,0.4054,0.4,0.4046,0.428,0.4308,0.4393,0.4618,0.48,0.5007,0.509,0.5487,0.5704,0.5813,0.605,0.6297,0.6409,0.6489,0.6627,0.6741,0.7051,0.7433,0.789,0.7915,0.8013,0.8259,0.8327,0.8403,0.8627,0.8789,0.8946,0.9022,0.9271,0.9309,0.9223,0.9325,0.9173,0.8815,0.8813,0.0,0.0,0.0,0.0,0.0,0.0,0.0,0.0,0.0,0.7149,0.7149,0.0,0.7359,0.0,0.7461,0.7498,0.7362,0.7492,0.0,0.0,0.743,0.7095,0.6874,0.682,0.6712,0.6652,0.6749,0.6823,0.6872,0.7171,0.7446,0.7446,0.7491,0.7583,0.7649,0.8028,0.8361,0.8425,0.8474,0.8511,0.8511,0.849,0.8672,0.921,0.9408,0.9484,0.9548,0.9676,0.9862,1.0053,1.018,1.0364,1.0561,1.0618,1.0584,1.0492,1.0235,1.0059,0.9849,0.986,0.9969,0.7131,0.69,0.6678,0.6448,0.6286,0.5788,0.5591,0.5519,0.5594,0.545,0.5162,0.5162,0.5045,0.4833,0.4765,0.4694,0.47,0.4624,0.4723,0.4795,0.4851,0.4953,0.5032,0.5231,0.5366,0.5442,0.5745,0.5941,0.6103,0.6404,0.6595,0.6674,0.7068,0.7263,0.7334,0.7585,0.7918,0.8267,0.8332,0.8497,0.87,0.8684,0.8713,0.8865,0.9018,0.9175,0.9251,0.9473,0.9567,0.9591,0.9563,0.9459,0.9195,0.898,0.8807,0.0,0.0,0.0,0.0,0.0,0.0,0.0,0.0,0.0,0.0,0.0,0.7676,0.7788,0.7943,0.7984,0.7972,0.7984,0.7996,0.802,0.78,0.7574,0.73,0.7198,0.709,0.6923,0.7017,0.7084,0.7128,0.7441,0.7767,0.7863,0.7937,0.7932,0.7937,0.8238,0.8517,0.8517,0.8517,0.8517,0.8517,0.8495,0.8672,0.9075,0.935,0.9478,0.9478,0.9612,0.9734,0.9862,1.0047,1.0238,1.0434,1.0561,1.0618,1.0604,1.0434,1.0267,1.0114,1.0127,1.0187,0.7411,0.7257,0.7184,0.7103,0.6842,0.6261,0.5788,0.5649,0.5947,0.5798,0.5352,0.5334,0.5328,0.5328,0.5328,0.5324,0.5328,0.5346,0.5352,0.5362,0.5479,0.5535,0.5541,0.56,0.574,0.597,0.5986,0.6155,0.64,0.6687,0.6911,0.6918,0.7476,0.7887,0.8029,0.8154,0.833,0.8474,0.872,0.8922,0.9025,0.9005,0.9052,0.9027,0.9246,0.9397,0.962,0.9625,0.9695,0.9836,0.9733,0.961,0.9572,0.9254,0.9005,0.0,0.8689,0.0,0.0,0.0,0.0,0.0,0.0,0.0,0.0,0.7868,0.7943,0.8271,0.84,0.848,0.8533,0.848,0.8427,0.8328,0.8275,0.8109,0.783,0.7681,0.7473,0.7177,0.7277,0.7402,0.7449,0.768,0.7975,0.827,0.8291,0.8285,0.8231,0.8371,0.8517,0.8517,0.8517,0.8517,0.8517,0.8501,0.8619,0.8952,0.9285,0.9478,0.9478,0.9478,0.9548,0.974,0.9926,1.0053,1.0244,1.0434,1.0561,1.0561,1.0548,1.0598,1.0577,1.0571,1.0618,0.7484,0.7407,0.7257,0.7184,0.7096,0.6798,0.6543,0.6398,0.6252,0.6096,0.5775,0.5588,0.5473,0.547,0.547,0.547,0.5476,0.5512,0.5561,0.5564,0.5585,0.56,0.5607,0.5896,0.6122,0.6125,0.6397,0.6695,0.6941,0.6969,0.723,0.7566,0.7819,0.809,0.8462,0.0,0.0,0.0,0.9298,0.9365,0.9271,0.9218,0.9271,0.9256,0.9392,0.0,0.962,0.9771,0.9846,0.9922,0.9879,0.0,0.0,0.0,0.0,0.0,0.0,0.0,0.0,0.0,0.0,0.0,0.8736,0.8597,0.8393,0.8419,0.8546,0.8828,0.8784,0.8745,0.8725,0.8844,0.891,0.8976,0.8699,0.8474,0.8262,0.8162,0.7961,0.7655,0.7971,0.8232,0.8221,0.8532,0.8709,0.8694,0.8705,0.8641,0.8447,0.8511,0.8517,0.8517,0.8517,0.8517,0.8517,0.8511,0.8582,0.8829,0.9221,0.942,0.9356,0.9414,0.9548,0.974,0.9804,0.9868,1.0047,1.0238,1.0364,1.0371,1.0498,1.0618,1.0618,1.0618,1.0618,0.7911,0.7911,0.7668,0.7589,0.0,0.735,0.7187,0.6936,0.6631,0.6331,0.6093,0.5947,0.5917,0.5921,0.5986,0.6015,0.6022,0.6089,0.6154,0.6157,0.6154,0.6157,0.6157,0.6475,0.6671,0.6671,0.6912,0.7116,0.7285,0.7446,0.7655,0.7823,0.817,0.8426,0.8767,0.9205,0.947,0.9628,0.9785,0.9711,0.9658,0.9682,0.9673,0.9643,0.9682,0.0,0.0,0.0,0.0,0.0,0.0,0.0,0.0,0.9642,0.0,0.9394,0.9163,0.9034,0.9023,0.9008,0.9013,0.9205,0.9169,0.9106,0.877,0.8844,0.8991,0.9289,0.9325,0.9336,0.9254,0.9432,0.9563,0.9611,0.9309,0.9059,0.8957,0.8802,0.8507,0.8137,0.8498,0.886,0.8555,0.892,0.9069,0.8958,0.8894,0.8894,0.8765,0.8576,0.8517,0.8517,0.8517,0.856,0.8799,0.8607,0.8655,0.9008,0.9081,0.9139,0.9402,0.9427,0.9478,0.9606,0.974,0.9804,0.9862,1.0053,1.011,1.0174,1.0238,1.0301,1.0301,1.0498,1.0618,0.8444,0.844,0.8185,0.8098,0.8016,0.7855,0.7687,0.7417,0.6911,0.0,0.0,0.6496,0.6496,0.6428,0.6537,0.6589,0.6519,0.6644,0.6702,0.6781,0.6781,0.6781,0.6867,0.7058,0.7152,0.7235,0.7351,0.7537,0.7545,0.7847,0.8088,0.8103,0.8495,0.8832,0.9087,0.9432,0.9777,1.0028,1.0037,1.0105,1.0139,1.0115,1.0137,1.01,1.0071,1.003,0.9986,0.9986,0.9965,0.9922,0.9922,0.9922,0.9916,0.9739,0.9642,0.9631,0.9405,0.9265,0.9265,0.9256,0.931,0.9489,0.9551,0.9472,0.9207,0.925,0.9395,0.9701,0.9887,0.9891,0.9806,1.0064,1.0257,1.025,1.0024,0.9764,0.9653,0.9486,0.9151,0.8695,0.9079,0.9401,0.9148,0.9271,0.9338,0.9215,0.9145,0.9017,0.8958,0.877,0.8576,0.8511,0.856,0.8728,0.9025,0.9045,0.8996,0.928,0.9086,0.8956,0.9304,0.9419,0.9415,0.9414,0.9606,0.974,0.9734,0.9862,0.9989,0.9983,0.9983,0.9989,1.0053,1.0244,1.0434,0.8686,0.8682,0.8595,0.8518,0.8353,0.8362,0.8024,0.76,0.714,0.7044,0.7219,0.7215,0.7133,0.6966,0.6983,0.6915,0.6668,0.6688,0.6781,0.703,0.7026,0.7112,0.7289,0.7418,0.7569,0.758,0.7714,0.7872,0.8043,0.8154,0.8257,0.8528,0.8727,0.9087,0.9515,0.9777,1.0038,1.0207,1.0265,1.0328,1.048,1.0502,1.0537,1.0514,1.0471,1.0439,1.025,1.0239,1.0137,0.9933,0.9922,0.9922,0.9916,0.989,0.9873,0.9863,0.9653,0.9523,0.9518,0.9656,0.9708,0.9837,0.9838,0.9819,0.9832,0.9655,0.9691,0.9987,1.0075,1.0077,1.0135,1.0387,1.0775,1.1222,1.0716,1.0301,1.0301,1.0129,0.9918,0.9557,0.9779,1.0111,1.0197,1.0021,0.9856,0.9728,0.953,0.9332,0.9081,0.8829,0.87,0.8592,0.875,0.8958,0.9186,0.949,0.9475,0.927,0.9497,0.9466,0.9282,0.9376,0.9454,0.9321,0.949,0.9548,0.9542,0.974,0.9804,0.9804,0.9856,0.9989,1.006,1.0123,1.011,0.9164,0.9164,0.9083,0.8998,0.8913,0.8645,0.8475,0.8312,0.8048,0.7689,0.7371,0.7368,0.7368,0.7289,0.7366,0.7323,0.7242,0.7332,0.7457,0.7543,0.7543,0.7543,0.7722,0.7872,0.7906,0.7914,0.8169,0.83,0.8388,0.8388,0.856,0.8736,0.9087,0.9428,0.9602,0.9946,1.0294,1.0554,1.0554,1.06,1.0841,1.0795,1.0845,1.0826,1.0708,1.0589,1.0487,1.0482,1.0369,1.0132,1.0121,1.0062,0.9927,0.9922,0.9922,0.9916,0.982,0.984,0.9909,1.0047,1.0149,1.0107,1.0019,1.0019,1.0217,0.9952,0.9987,1.0409,1.0587,1.076,1.0962,1.1068,1.1256,1.1593,1.1167,1.0916,1.085,1.074,1.0607,1.0421,1.054,1.0664,1.0744,1.0504,1.0244,1.0117,0.9856,0.96,0.9478,0.9215,0.8952,0.863,0.8827,0.9186,0.9473,0.9634,0.9669,0.9567,0.9641,0.9603,0.9438,0.9485,0.9365,0.9443,0.9456,0.942,0.9478,0.9542,0.9612,0.9612,0.9676,0.9734,0.9804,0.9734,0.9798,0.9777,0.9777,0.9607,0.9432,0.934,0.889,0.8807,0.8999,0.8811,0.8398,0.7831,0.7731,0.7644,0.7575,0.7688,0.7741,0.7677,0.7796,0.794,0.794,0.794,0.8032,0.8032,0.8204,0.8292,0.8296,0.8476,0.8652,0.8656,0.8652,0.8823,0.9087,0.9428,0.9602,0.9689,1.012,1.0472,1.0641,1.0733,1.0829,1.1084,1.1075,1.1069,1.1052,1.0891,1.0772,1.0713,1.0713,1.0606,1.039,1.0326,1.0202,1.0019,0.9954,0.9922,0.9922,0.9916,1.0067,1.0282,1.0415,1.0479,1.0371,1.0161,1.0227,1.0476,1.0236,1.0238,1.0694,1.0912,1.1108,1.1358,1.149,1.156,1.1608,1.1524,1.1428,1.1421,1.1368,1.13,1.1194,1.116,1.1185,1.1059,1.0877,1.0624,1.0371,1.0053,0.9862,0.9798,0.9542,0.9204,0.8933,0.9064,0.9406,0.9793,0.9763,0.969,0.9895,0.9766,0.9704,0.9652,0.9405,0.927,0.9394,0.9373,0.9367,0.9408,0.9478,0.9484,0.9548,0.9542,0.9542,0.9542,0.9542,0.9542,1.0467,1.0207,1.0212,0.9946,0.9607,0.934,0.9253,0.9257,0.9257,0.9248,0.9013,0.869,0.8325,0.8154,0.8162,0.8082,0.7914,0.7937,0.8028,0.8204,0.8201,0.8292,0.8476,0.8564,0.8568,0.8564,0.8568,0.874,0.8823,0.8911,0.9087,0.9519,0.9602,0.9777,0.9951,1.0207,1.0381,1.0727,1.0916,1.1094,1.1267,1.1241,1.123,1.1316,1.1209,1.1176,1.0966,1.095,1.0842,1.0616,1.0412,1.0288,1.0234,1.0051,0.9922,0.9922,1.0067,1.0368,1.0663,1.0795,1.0733,1.0647,1.0647,1.0667,1.0792,1.0587,1.0444,1.0655,1.0764,1.0933,1.1129,1.1247,1.1435,1.156,1.164,1.1757,1.1735,1.1888,1.195,1.1796,1.1648,1.1567,1.1498,1.1185,1.094,1.0624,1.0244,0.9926,0.9804,0.967,0.9478,0.9427,0.9624,0.9777,0.9909,0.9885,0.9889,0.989,0.9895,0.9798,0.9688,0.9521,0.9414,0.9276,0.9254,0.9291,0.9338,0.9408,0.9478,0.9478,0.9478,0.9478,0.9478,0.9478,0.9542,1.0641,1.0554,1.0554,1.0381,1.0038,0.9767,0.9598,0.9519,0.9428,0.934,0.9262,0.9087,0.8999,0.8819,0.8815,0.8732,0.8472,0.8472,0.8472,0.8472,0.8476,0.848,0.8564,0.8744,0.8736,0.8823,0.8915,0.8999,0.9174,0.9257,0.9432,0.9602,0.9777,0.9864,1.0038,1.0381,1.0554,1.0733,1.0997,1.1267,1.1267,1.1267,1.1267,1.1267,1.1267,1.1225,1.1219,1.1198,1.1085,1.0859,1.0756,1.0579,1.0309,1.0196,1.0073,1.0089,1.0368,1.0663,1.0812,1.0887,1.0989,1.0954,1.081,1.0814,1.1064,1.0867,1.0792,1.0996,1.0884,1.0863,1.0989,1.1178,1.1365,1.156,1.1677,1.1732,1.1934,1.2058,1.212,1.2112,1.1872,1.1747,1.1685,1.1373,1.0996,1.0744,1.0364,1.0117,0.9926,0.9804,0.9612,0.9608,0.986,1.0245,1.0499,1.0356,1.0226,0.9976,0.9981,1.0007,0.9845,0.9515,0.9319,0.9284,0.9147,0.911,0.9274,0.9338,0.9408,0.9478,0.9478,0.9478,0.9478,0.9478,0.9478,1.0814,1.0824,1.0733,1.0554,1.0381,1.0193,1.0024,0.9951,0.9859,0.9777,0.9694,0.9602,0.9607,0.9519,0.9349,0.9174,0.8999,0.8999,0.8911,0.8828,0.8828,0.8744,0.8828,0.8915,0.8999,0.9082,0.917,0.9349,0.9432,0.9607,0.9689,0.9777,0.9864,1.0038,1.0125,1.0467,1.0733,1.0824,1.1089,1.1267,1.1267,1.1267,1.1267,1.1267,1.1267,1.1267,1.1267,1.1267,1.1187,1.109,1.1025,1.0837,1.0514,1.0369,1.0258,1.0327,1.0594,1.0818,1.0887,1.1037,1.1117,1.1093,1.0924,1.0973,1.1285,1.1153,1.1216,1.1441,1.1222,1.0975,1.0839,1.11,1.1333,1.1512,1.1538,1.1725,1.1996,1.2058,1.2182,1.2243,1.2058,1.1872,1.174,1.1373,1.1059,1.087,1.0555,1.0244,1.0117,0.9932,0.9759,0.9716,1.0049,1.0459,1.0937,1.0816,1.0456,1.0276,1.0207,1.0143,0.9954,0.958,0.9211,0.9242,0.8959,0.8874,0.9034,0.9151,0.9274,0.9408,0.9478,0.9478,0.9478,0.9478,0.9478,1.1181,1.1008,1.0733,1.0727,1.0641,1.0458,1.0453,1.0559,1.0738,1.0738,1.0559,1.0381,1.0207,1.0207,0.9607,0.9262,0.9257,0.9257,0.9262,0.9257,0.9262,0.9262,0.9262,0.9262,0.9262,0.9257,0.9345,0.9432,0.9602,0.9864,0.9951,0.9951,0.9951,1.0125,1.0294,1.0554,1.0824,1.1008,1.1181,1.1267,1.1267,1.1267,1.1267,1.1267,1.1267,1.1267,1.1267,1.1267,1.1251,1.1332,1.1117,1.0972,1.0907,1.0525,1.0412,1.0483,1.0669,1.0887,1.1043,1.1111,1.1117,1.1111,1.1087,1.123,1.1563,1.142,1.143,1.1844,1.1577,1.1202,1.0857,1.108,1.136,1.1304,1.149,1.1622,1.1802,1.2058,1.2243,1.2305,1.2189,1.1941,1.1622,1.131,1.1129,1.0996,1.0618,1.0301,1.0238,0.9989,0.9897,1.0067,1.0257,1.0484,1.0931,1.0948,1.0765,1.0582,1.0357,1.0223,0.9977,0.9723,0.9428,0.9184,0.8898,0.882,0.8846,0.8958,0.9081,0.921,0.935,0.9414,0.935,0.9478,0.9414,1.1267,1.1181,1.1089,1.0997,1.0916,1.0824,1.0733,1.0733,1.0733,1.0733,1.0727,1.0554,1.0554,1.0554,1.0294,0.9951,0.9519,0.9519,0.9432,0.9349,0.9349,0.9349,0.9349,0.9432,0.9519,0.9519,0.9689,0.9777,0.9864,0.9956,1.0038,1.0038,1.0038,1.0125,1.0294,1.0554,1.0824,1.1008,1.1181,1.1267,1.1267,1.1267,1.1267,1.1267,1.1267,1.1267,1.1267,1.1267,1.1267,1.1267,1.1257,1.1144,1.0961,1.0781,1.0561,1.0472,1.0732,1.1037,1.1111,1.1117,1.1117,1.1117,1.1117,1.126,1.1626,1.1617,1.1707,1.2045,1.2064,1.1773,1.1487,1.118,1.1076,1.1524,1.1575,1.1672,1.1784,1.1926,1.2058,1.212,1.2058,1.1809,1.1622,1.131,1.1129,1.1059,1.0744,1.0498,1.0308,1.0053,1.0039,1.0164,1.0226,1.0399,1.0741,1.0949,1.0956,1.0732,1.0582,1.0443,1.0187,0.9791,0.9465,0.9222,0.8952,0.8685,0.8705,0.8823,0.9017,0.9081,0.9215,0.928,0.9215,0.928,0.9221,1.1527,1.1527,1.1435,1.1348,1.1273,1.1094,1.1003,1.0906,1.0906,1.0906,1.0906,1.0819,1.0824,1.0824,1.0733,1.0467,0.9946,0.9864,0.9689,0.9519,0.9519,0.9519,0.9519,0.9689,0.9689,0.9781,0.9864,1.0038,1.0038,1.0038,1.0038,1.0038,1.0038,1.0125,1.0381,1.0646,1.0824,1.1094,1.1262,1.1267,1.1267,1.1267,1.1267,1.1267,1.1267,1.1267,1.1267,1.1267,1.1267,1.1267,1.1267,1.1235,1.0982,1.102,1.0835,1.0591,1.0854,1.1117,1.1117,1.1117,1.1117,1.1117,1.1111,1.126,1.1632,1.1706,1.1855,1.2157,1.2305,1.2204,1.1952,1.1475,1.1332,1.1657,1.168,1.1668,1.1792,1.1814,1.1887,1.2003,1.1941,1.1755,1.156,1.131,1.1129,1.1129,1.0814,1.0555,1.0434,1.0335,1.0282,1.0355,1.0504,1.0639,1.0846,1.1015,1.1025,1.087,1.0697,1.0565,1.0307,0.9884,0.9491,0.9264,0.8994,0.8712,0.8641,0.8759,0.8823,0.8888,0.9017,0.9087,0.9087,0.9022,0.9022,1.1969,1.1997,1.1796,1.1727,1.1646,1.1446,1.1354,1.1262,1.1262,1.1267,1.1262,1.1094,1.1008,1.1008,1.0824,1.0727,1.0554,1.0386,1.0212,1.0038,0.9951,0.9951,0.9951,0.9951,0.9951,0.9951,0.9951,1.0038,1.0038,1.0038,1.0038,1.0038,1.0038,1.0212,1.0641,1.0727,1.0906,1.1176,1.1267,1.1267,1.1267,1.1267,1.1267,1.1267,1.1267,1.1267,1.1267,1.1267,1.1267,1.1267,1.1267,1.1235,1.1077,1.1142,1.1067,1.0801,1.0959,1.1129,1.1117,1.1117,1.1117,1.1117,1.1117,1.126,1.1558,1.1706,1.1855,1.215,1.2305,1.2285,1.2278,1.2204,1.2049,1.1785,1.1664,1.1659,1.1761,1.1806,1.1879,1.1964,1.1887,1.1817,1.156,1.1247,1.1059,1.0996,1.0807,1.0555,1.0575,1.0535,1.0651,1.0735,1.0715,1.0694,1.0955,1.1105,1.1093,1.1007,1.0822,1.065,1.0437,1.0016,0.9522,0.9245,0.8874,0.8609,0.8582,0.8635,0.8694,0.8765,0.8829,0.8894,0.8894,0.8829,0.8894,1.2392,1.2523,1.2275,1.2124,1.2091,1.1858,1.178,1.1682,1.1688,1.1699,1.1618,1.1532,1.1354,1.1181,1.1089,1.1003,1.0916,1.0824,1.0651,1.0472,1.0294,1.0212,1.0207,1.0038,1.0038,1.0038,1.0038,1.0038,1.0038,1.0038,1.0038,1.0038,1.0038,1.0207,1.0641,1.0733,1.0911,1.1267,1.1267,1.1267,1.1267,1.1267,1.1267,1.1267,1.1267,1.1267,1.1267,1.1267,1.1267,1.1267,1.1267,1.1241,1.1082,1.1165,1.0999,1.0673,1.0953,1.1117,1.1117,1.1117,1.1117,1.1117,1.1117,1.1186,1.1484,1.1632,1.1781,1.1996,1.215,1.2305,1.2305,1.2298,1.219,1.1975,1.1642,1.1496,1.1572,1.151,1.1409,1.1457,1.145,1.1317,1.1178,1.0989,1.0933,1.0933,1.0744,1.0561,1.0581,1.0405,1.0443,1.071,1.0697,1.0669,1.0816,1.09,1.0846,1.084,1.0773,1.0694,1.0425,1.0084,0.9604,0.9175,0.8733,0.8549,0.8522,0.8511,0.8506,0.8506,0.8576,0.8641,0.8641,0.8705,0.8705,1.2767,1.289,1.2655,1.2434,1.2249,1.2095,1.2043,1.1957,1.1957,1.1957,1.1785,1.1699,1.1521,1.1343,1.1262,1.1267,1.1094,1.1094,1.1089,1.0906,1.0554,1.0381,1.0294,1.012,1.0038,1.0038,1.0038,1.0038,1.0038,1.0038,1.0038,1.0038,1.0038,1.0212,1.0554,1.0641,1.0911,1.1176,1.1267,1.1267,1.1267,1.1267,1.1267,1.1267,1.1267,1.1267,1.1267,1.1267,1.1267,1.1267,1.1267,1.1268,1.1112,1.115,1.1038,1.0931,1.0948,1.1117,1.1117,1.1117,1.1117,1.1117,1.1117,1.1186,1.1335,1.1558,1.1632,1.1929,1.2009,1.207,1.207,1.2231,1.2218,1.2195,1.1954,1.1669,1.1525,1.1312,1.115,1.1129,1.1052,1.0982,1.0919,1.0856,1.0807,1.0807,1.0624,1.0498,1.0454,1.0348,1.0435,1.0535,1.0554,1.0624,1.0707,1.0695,1.0592,1.058,1.058,1.0509,1.0384,0.9984,0.9518,0.9031,0.856,0.8468,0.8376,0.8306,0.8231,0.8312,0.8382,0.8382,0.8382,0.8382,0.8382,1.3133,1.3051,1.2862,1.2633,1.2342,1.2135,1.2129,1.2227,1.2135,1.2032,1.1946,1.1785,1.1602,1.1419,1.1343,1.1267,1.1267,1.1267,1.1267,1.1176,1.0911,1.0641,1.0294,1.012,1.0038,1.0038,1.0038,1.0038,1.0038,1.0038,1.0038,1.0038,1.0038,1.0125,1.0381,1.0554,1.0824,1.1008,1.1181,1.1267,1.1267,1.1267,1.1267,1.1267,1.1267,1.1267,1.1267,1.1354,1.1354,1.1267,1.1267,1.1343,1.1343,1.1222,1.1186,1.1129,1.1089,1.1091,1.1117,1.1117,1.1117,1.1117,1.1111,1.1186,1.1329,1.1409,1.1484,1.1713,1.1787,1.17,1.1768,1.209,1.2224,1.2231,1.1982,1.1799,1.1424,1.1149,1.0968,1.08,1.071,1.0634,1.0724,1.0737,1.0674,1.0618,1.0434,1.0308,1.027,1.0251,1.0324,1.0288,1.0288,1.0309,1.0308,1.0201,1.0101,1.0077,1.0134,1.0179,1.0122,0.9761,0.9369,0.8821,0.8473,0.8382,0.8242,0.8166,0.8102,0.8112,0.8117,0.8117,0.8122,0.8187,0.8122,1.3242,1.3387,1.3117,1.2997,1.2901,1.2635,1.2546,1.2546,1.254,1.246,1.2381,1.2043,1.1785,1.1699,1.1348,1.1267,1.1267,1.1267,1.1267,1.1267,1.1176,1.0819,1.0381,1.012,1.0038,1.0038,1.0038,1.0038,1.0038,1.0038,1.0038,1.0038,1.0038,1.0125,1.0294,1.0554,1.0824,1.1008,1.1176,1.1267,1.1267,1.1267,1.1267,1.1267,1.1267,1.1267,1.1354,1.1527,1.1527,1.1262,1.1267,1.1354,1.1558,1.1381,1.1169,1.1164,1.1112,1.1117,1.1117,1.1117,1.1117,1.1117,1.1117,1.1105,1.118,1.1335,1.1329,1.1397,1.1471,1.17,1.1774,1.2003,1.1924,1.1389,1.1346,1.12,1.0725,1.0571,1.0588,1.0301,1.0218,1.0218,1.0225,1.0301,1.0238,1.0238,1.011,1.0053,1.0015,0.9835,0.9788,0.988,0.9884,0.9879,0.9811,0.9707,0.9626,0.9591,0.9606,0.9669,0.9614,0.9484,0.9023,0.8587,0.8387,0.8306,0.8172,0.8037,0.7977,0.7852,0.7852,0.7852,0.7917,0.7982,0.7922,1.3117,1.3338,1.3188,1.3061,1.294,1.2771,1.2705,1.2705,1.2705,1.2625,1.246,1.2129,1.1866,1.1607,1.1354,1.1267,1.1267,1.1267,1.1267,1.1267,1.1084,1.0819,1.0472,1.0212,1.0038,1.0038,1.0038,1.0038,1.0038,1.0038,1.0038,1.0038,1.0038,1.0038,1.0212,1.0554,1.0733,1.0911,1.1176,1.1267,1.1267,1.1267,1.1267,1.1267,1.1267,1.1348,1.1429,1.1514,1.1577,1.1552,1.1428,1.1448,1.1578,1.1317,1.113,1.1163,1.1112,1.1117,1.1117,1.1117,1.1117,1.1117,1.1117,1.1117,1.1111,1.1186,1.118,1.1174,1.1329,1.1428,1.1462,1.1446,1.101,1.0305,1.0436,1.0575,1.0173,1.0341,1.0213,1.0053,0.9913,0.9843,0.9983,0.9989,0.9989,0.9926,0.9856,0.9792,0.9664,0.9472,0.9303,0.9396,0.94,0.9348,0.9394,0.9314,0.923,0.919,0.9168,0.9196,0.9125,0.9066,0.882,0.8506,0.8301,0.8172,0.7977,0.7782,0.7582,0.7521,0.7521,0.7526,0.7526,0.7657,0.7591,1.2885,1.3079,1.3079,1.294,1.2735,1.2705,1.2705,1.2705,1.2705,1.2528,1.2363,1.2118,1.1774,1.1327,1.1348,1.1267,1.1267,1.1267,1.1267,1.1176,1.0906,1.0641,1.0554,1.0212,1.0038,1.0038,1.0038,1.0038,1.0038,1.0038,1.0038,1.0038,1.0038,1.0038,1.0125,1.0467,1.0727,1.0819,1.1084,1.1267,1.1267,1.1267,1.1267,1.1257,1.1198,1.1359,1.1475,1.1517,1.1444,1.194,1.1478,1.1372,1.147,1.1152,1.1036,1.12,1.1153,1.1037,1.1117,1.1117,1.1117,1.1117,1.1117,1.1117,1.1111,1.1117,1.1087,1.1021,1.1069,1.1004,1.0922,1.0575,0.992,0.9456,0.9667,1.0031,1.0186,1.0076,0.9926,0.9856,0.964,0.964,0.9779,0.9862,0.9798,0.9536,0.9472,0.9344,0.921,0.9017,0.8888,0.8857,0.8879,0.8857,0.8874,0.8868,0.8885,0.8885,0.8837,0.8798,0.8668,0.8598,0.8517,0.8371,0.8107,0.7912,0.7722,0.7526,0.726,0.7199,0.7204,0.7073,0.7012,0.7138,0.7204,1.2691,1.2789,1.2789,1.2759,1.2705,1.2705,1.2705,1.2705,1.2705,1.2528,1.2363,1.2118,1.1866,1.1602,1.1348,1.1267,1.1267,1.1267,1.1181,1.1008,1.0824,1.0554,1.0381,1.0125,1.0038,1.0038,1.0038,1.0038,1.0038,1.0038,1.0038,1.0038,1.0038,1.0038,1.0125,1.0472,1.0733,1.0819,1.1084,1.1267,1.1267,1.1262,1.1257,1.123,1.1171,1.1237,1.1517,1.1407,1.1473,1.1491,1.1305,1.1081,1.1214,1.0909,1.0907,1.123,1.1047,1.0962,1.1037,1.1037,1.1111,1.1037,1.1043,1.1117,1.1117,1.1099,1.0997,1.087,1.0658,1.0557,1.0466,0.9679,0.9215,0.9042,0.9145,0.9255,0.9291,0.9385,0.935,0.9274,0.9134,0.9069,0.921,0.9274,0.921,0.9145,0.9087,0.8958,0.8765,0.8565,0.8495,0.8431,0.8441,0.8441,0.8371,0.8376,0.8447,0.8376,0.8301,0.8306,0.8242,0.8177,0.8177,0.8042,0.7847,0.7657,0.7531,0.7204,0.6937,0.6946,0.6951,0.6815,0.6749,0.6745,0.6706,1.2869,1.2705,1.2705,1.2705,1.2705,1.2705,1.2705,1.2705,1.2705,1.2534,1.2203,1.2043,1.1871,1.1527,1.1348,1.1267,1.1267,1.1267,1.1181,1.1008,1.0824,1.0554,1.0294,1.012,1.0038,1.0038,1.0038,1.0038,1.0038,1.0038,1.0038,1.0038,1.0038,1.0038,1.0038,1.0467,1.0733,1.0819,1.1084,1.1267,1.1267,1.1267,1.1268,1.1198,1.1131,1.1272,1.139,1.1318,1.1282,1.1236,1.0998,1.0835,1.0971,1.0717,1.0682,1.0936,1.0854,1.0669,1.0812,1.0812,1.0812,1.0812,1.0812,1.0812,1.0771,1.0718,1.0663,1.0448,1.0325,1.0096,1.0,0.9438,0.8887,0.8575,0.8706,0.8705,0.863,0.8694,0.8894,0.8823,0.8694,0.8694,0.87,0.8694,0.8694,0.863,0.856,0.8501,0.8247,0.8052,0.7982,0.7982,0.7992,0.7992,0.7922,0.7922,0.7992,0.7852,0.7642,0.7712,0.7782,0.7782,0.7852,0.7722,0.7587,0.7461,0.7204,0.6942,0.6683,0.6618,0.6552,0.6486,0.6412,0.6334,0.627,1.2966,1.2705,1.2705,1.2705,1.2705,1.2705,1.2705,1.2705,1.2705,1.2454,1.2043,1.1957,1.178,1.1348,1.1267,1.1267,1.1267,1.1267,1.1181,1.0916,1.0824,1.0554,1.0294,1.0125,1.0038,1.0038,1.0038,1.0038,1.0038,1.0038,1.0038,1.0038,1.0038,1.0038,1.0125,1.0472,1.0733,1.0733,1.1089,1.1267,1.1267,1.1262,1.1241,1.1047,1.0936,1.1072,1.1129,1.1082,1.101,1.0993,1.0638,1.0585,1.0571,1.0438,1.0218,1.0455,1.0449,1.0519,1.0588,1.0513,1.0513,1.0513,1.0513,1.0484,1.0421,1.0346,1.0191,1.0018,0.9782,0.9559,0.9571,0.9057,0.8533,0.8242,0.8312,0.8247,0.8117,0.8236,0.8366,0.8571,0.8376,0.8247,0.8247,0.8312,0.8242,0.8172,0.8107,0.7977,0.7727,0.7531,0.7461,0.7466,0.747,0.7265,0.7129,0.7405,0.7545,0.7396,0.7116,0.7186,0.7321,0.7326,0.733,0.7396,0.733,0.7134,0.6872,0.6548,0.6354,0.6284,0.621,0.6133,0.6059,0.5855,0.5819,1.3045,1.2705,1.2705,1.2705,1.2705,1.2705,1.2705,1.2705,1.2705,1.246,1.2043,1.1957,1.178,1.1435,1.1267,1.1267,1.1267,1.1267,1.1089,1.0824,1.0733,1.0467,1.0125,1.0038,1.0038,1.0038,1.0038,1.0038,1.0038,1.0038,1.0038,1.0038,1.0038,1.0038,1.0125,1.0472,1.0733,1.0733,1.1089,1.1267,1.1267,1.1225,1.1198,1.0939,1.074,1.0682,1.0639,1.0505,1.036,1.0355,1.0315,1.0176,1.0133,1.0024,1.0073,1.0218,1.0218,1.0293,1.0363,1.0443,1.0513,1.0513,1.0421,1.0319,1.0273,1.0136,0.9831,0.9456,0.9086,0.8761,0.8717,0.8403,0.8192,0.8047,0.7982,0.7987,0.7792,0.7727,0.7782,0.7982,0.7857,0.7727,0.7727,0.7727,0.7657,0.7526,0.7461,0.7391,0.7265,0.7068,0.6872,0.6876,0.6955,0.6609,0.6268,0.6683,0.6959,0.6876,0.6666,0.6732,0.6802,0.6806,0.6868,0.6889,0.6837,0.6662,0.6404,0.6195,0.6029,0.5982,0.5871,0.5829,0.5689,0.5552,0.5535,1.313,1.2881,1.279,1.2705,1.2705,1.2705,1.2705,1.2705,1.2705,1.254,1.2203,1.2037,1.1866,1.1527,1.1354,1.1267,1.1267,1.1267,1.1084,1.0819,1.0646,1.0472,1.0038,1.0038,1.0038,1.0038,1.0038,1.0038,1.0038,1.0038,1.0038,1.0038,1.0038,1.0038,1.0125,1.0467,1.0646,1.0819,1.1084,1.1267,1.1246,1.1246,1.1036,1.0778,1.0567,1.0484,1.039,1.0388,1.0299,1.0223,1.0212,1.0067,0.9997,0.9922,0.9916,0.9986,1.0067,1.0067,1.0143,1.0218,1.0143,1.0126,1.0112,0.9922,0.9746,0.9482,0.9198,0.877,0.8553,0.8247,0.8257,0.7987,0.7722,0.7517,0.7517,0.7461,0.7335,0.7199,0.7199,0.733,0.7269,0.7204,0.7134,0.7068,0.7003,0.6937,0.6876,0.6806,0.6741,0.6539,0.6342,0.6284,0.6358,0.6017,0.5745,0.609,0.6428,0.6284,0.628,0.628,0.6346,0.6346,0.627,0.6258,0.6165,0.6163,0.61,0.5925,0.577,0.5608,0.5445,0.535,0.5303,0.5243,0.524,1.3222,1.2966,1.279,1.2705,1.2705,1.2705,1.2705,1.2705,1.2705,1.2619,1.2363,1.2203,1.1952,1.1699,1.144,1.1267,1.1267,1.1267,1.1089,1.0824,1.0733,1.0467,1.012,1.0038,1.0038,1.0038,1.0038,1.0038,1.0038,1.0038,1.0038,1.0038,1.0038,1.0038,1.0125,1.0467,1.0641,1.0906,1.1084,1.1267,1.1203,1.1063,1.0837,1.0616,1.0526,1.0341,1.0192,1.0229,1.0218,1.0143,1.0143,1.0067,0.9922,0.9922,0.982,0.9788,0.989,0.99,0.9846,0.9836,0.9862,0.9701,0.9588,0.9352,0.9106,0.8753,0.8399,0.8093,0.7917,0.7917,0.7852,0.7661,0.733,0.7125,0.7064,0.7073,0.6876,0.6745,0.6609,0.6675,0.6613,0.6613,0.6609,0.6544,0.6544,0.6478,0.6416,0.6218,0.6148,0.6013,0.5815,0.5756,0.569,0.5418,0.5352,0.5557,0.576,0.5752,0.5818,0.5888,0.5888,0.5888,0.5856,0.5826,0.5724,0.5693,0.568,0.5594,0.5314,0.5082,0.4948,0.4904,0.4941,0.4913,0.4921,1.313,1.2705,1.2705,1.2705,1.2705,1.2705,1.2705,1.2705,1.2705,1.2619,1.2448,1.2363,1.2118,1.1693,1.1435,1.1267,1.1267,1.1267,1.1181,1.0916,1.0733,1.0554,1.0294,1.0038,1.0038,1.0038,1.0038,1.0038,1.0038,1.0038,1.0038,1.0038,1.0038,1.0038,1.0207,1.0554,1.0824,1.1003,1.1181,1.1267,1.1193,1.0929,1.0708,1.0541,1.0239,1.0052,1.0003,0.9997,0.9997,0.9997,0.9922,0.9922,0.9922,0.9922,0.9644,0.9585,0.9606,0.9836,0.9658,0.9542,0.9483,0.9211,0.908,0.8868,0.849,0.824,0.7982,0.8007,0.7727,0.7591,0.7461,0.7199,0.6937,0.6806,0.6741,0.6613,0.6482,0.6222,0.6152,0.6017,0.6017,0.6083,0.6083,0.6086,0.602,0.5954,0.5888,0.569,0.5488,0.5352,0.5425,0.5365,0.5093,0.4821,0.4821,0.5027,0.5226,0.5223,0.5289,0.5425,0.5481,0.5456,0.5503,0.5439,0.5307,0.5147,0.5132,0.5012,0.4786,0.4693,0.4624,0.4582,0.4552,0.4581,0.467,1.3137,1.2875,1.279,1.2705,1.2705,1.2705,1.2705,1.2705,1.2705,1.2619,1.2619,1.2546,1.2295,1.1699,1.1435,1.1267,1.1267,1.1267,1.1181,1.1003,1.0824,1.0554,1.0294,1.0125,1.0038,1.0038,1.0038,1.0038,1.0038,1.0038,1.0038,1.0038,1.0038,1.0125,1.0294,1.0559,1.0824,1.1003,1.1176,1.1267,1.1145,1.0835,1.0557,1.0536,1.0164,0.9965,0.9922,0.9922,0.9922,0.9922,0.9922,0.9846,0.9686,0.9627,0.9385,0.919,0.916,0.9171,0.9103,0.9087,0.8943,0.886,0.8662,0.8356,0.7964,0.7659,0.7531,0.7405,0.7274,0.7138,0.7068,0.6811,0.6609,0.6478,0.635,0.6218,0.6086,0.5822,0.569,0.5491,0.5355,0.5422,0.5422,0.5422,0.5359,0.5359,0.5292,0.509,0.4888,0.4752,0.4827,0.5043,0.4634,0.4292,0.4292,0.4428,0.4764,0.4761,0.4688,0.4818,0.4998,0.5091,0.5057,0.4918,0.4697,0.4594,0.4598,0.4542,0.4464,0.4422,0.4368,0.44,0.4431,0.4515,0.4548,1.3052,1.2966,1.2796,1.2705,1.2705,1.2705,1.2705,1.2705,1.2705,1.2705,1.2625,1.2558,1.2215,1.1785,1.1435,1.1267,1.1267,1.1267,1.1181,1.1003,1.0824,1.0646,1.0381,1.0207,1.0038,1.0038,1.0038,1.0038,1.0038,1.0038,1.0038,1.0038,1.0038,1.0207,1.0381,1.0554,1.0819,1.1089,1.1267,1.1267,1.1182,1.088,1.061,1.0498,1.0223,0.9922,0.9922,0.9922,0.9922,0.9916,0.9836,0.9733,0.9547,0.9373,0.9077,0.884,0.8674,0.8478,0.8518,0.8508,0.8528,0.8383,0.8157,0.7831,0.7456,0.7204,0.7073,0.7012,0.6815,0.6749,0.6679,0.6482,0.6214,0.6017,0.5888,0.5756,0.5693,0.5428,0.5229,0.5093,0.4894,0.4694,0.4691,0.4691,0.4761,0.4764,0.4697,0.4495,0.4289,0.4154,0.4292,0.4503,0.4367,0.3959,0.3823,0.3959,0.4228,0.4428,0.4359,0.4392,0.4623,0.4681,0.4712,0.4504,0.4234,0.421,0.4321,0.4209,0.4152,0.4185,0.4216,0.4291,0.4373,0.4408,0.4463,1.2966,1.2705,1.2705,1.2705,1.2705,1.2705,1.2705,1.2705,1.2705,1.2705,1.2619,1.2289,1.2043,1.1871,1.1527,1.1267,1.1267,1.1267,1.1267,1.1089,1.0911,1.0727,1.0467,1.0207,1.0038,1.0038,1.0038,1.0038,1.0038,1.0038,1.0038,1.0038,1.0038,1.0294,1.0554,1.0727,1.0906,1.1176,1.1267,1.1348,1.1219,1.0923,1.0649,1.053,1.0207,0.9922,0.9922,0.9922,0.989,0.9879,0.9739,0.9488,0.9299,0.903,0.8708,0.8333,0.8142,0.7938,0.787,0.7976,0.8091,0.7778,0.7518,0.7315,0.7012,0.6942,0.6876,0.6815,0.6552,0.6416,0.635,0.6152,0.5888,0.569,0.5557,0.5359,0.5226,0.503,0.4831,0.4694,0.4428,0.4231,0.4028,0.4025,0.4225,0.4295,0.4095,0.3892,0.3825,0.3756,0.3756,0.3894,0.3961,0.3689,0.342,0.3556,0.3894,0.4164,0.4161,0.423,0.4355,0.4402,0.4382,0.424,0.4042,0.402,0.4014,0.4026,0.4023,0.399,0.4021,0.419,0.4301,0.4411,0.4356,1.279,1.2705,1.2705,1.2705,1.2705,1.2705,1.2705,1.2705,1.2705,1.2705,1.2699,1.2209,1.1957,1.1871,1.1527,1.1267,1.1267,1.1267,1.1267,1.1094,1.0824,1.0641,1.0381,1.0207,1.0038,1.0038,1.0038,1.0038,1.0038,1.0038,1.0038,1.0038,1.0038,1.0294,1.0554,1.0906,1.1084,1.1176,1.1354,1.1348,1.1423,1.1067,1.0875,1.0997,1.0401,1.0095,1.0067,0.9992,0.9841,0.9728,0.9542,0.9201,0.8925,0.8646,0.8283,0.7907,0.7679,0.7485,0.7367,0.7475,0.7466,0.7315,0.7077,0.6942,0.6745,0.6679,0.6548,0.6416,0.6288,0.6086,0.6086,0.5822,0.5557,0.5425,0.5226,0.5027,0.4761,0.4561,0.4498,0.4364,0.403,0.3699,0.3563,0.3424,0.3625,0.3758,0.3491,0.3291,0.3357,0.3291,0.3355,0.3355,0.3424,0.3424,0.3153,0.3357,0.3632,0.383,0.3961,0.408,0.4124,0.4085,0.4058,0.3924,0.3872,0.3806,0.3819,0.3919,0.3968,0.4024,0.4132,0.4245,0.4301,0.4356,0.4245,1.2705,1.2705,1.2705,1.2705,1.2705,1.2705,1.2705,1.2705,1.2705,1.2619,1.2619,1.2209,1.1957,1.1785,1.1521,1.1267,1.1267,1.1267,1.1176,1.1003,1.0824,1.0554,1.0294,1.012,1.0038,1.0038,1.0038,1.0038,1.0038,1.0038,1.0038,1.0038,1.0038,1.0299,1.0646,1.1084,1.1267,1.1267,1.144,1.144,1.1632,1.131,1.1036,1.1129,1.0633,1.024,1.0185,0.9991,0.9802,0.9583,0.9267,0.8899,0.8554,0.8178,0.7873,0.7588,0.7335,0.7199,0.7134,0.7073,0.7007,0.6942,0.6876,0.6741,0.6544,0.6412,0.635,0.6148,0.5888,0.576,0.576,0.5495,0.5096,0.4964,0.4831,0.4564,0.4361,0.4161,0.4097,0.4033,0.3699,0.3362,0.3092,0.2954,0.3088,0.3222,0.3155,0.3023,0.2956,0.2954,0.2954,0.2954,0.2954,0.2887,0.2889,0.3159,0.3429,0.3496,0.3609,0.3793,0.3839,0.3807,0.3803,0.3773,0.3744,0.3649,0.3691,0.3855,0.3965,0.4079,0.419,0.4245,0.4245,0.4245,0.4135,1.2705,1.2705,1.2705,1.2705,1.2705,1.2705,1.2705,1.2699,1.2613,1.2528,1.2369,1.2123,1.1871,1.1693,1.144,1.1267,1.1267,1.1267,1.1181,1.1003,1.0824,1.0559,1.0299,1.0125,1.0038,1.0038,1.0038,1.0038,1.0038,1.0038,1.0038,1.0038,1.0038,1.0299,1.0733,1.1089,1.1267,1.1354,1.1527,1.1699,1.1679,1.147,1.1324,1.1249,1.0787,1.0449,1.0265,1.0029,0.9761,0.9491,0.8948,0.8601,0.8275,0.7915,0.7569,0.7279,0.7199,0.7068,0.6946,0.6881,0.6811,0.6675,0.6609,0.6544,0.628,0.6148,0.6083,0.5885,0.5624,0.5561,0.5432,0.5169,0.4767,0.4567,0.4434,0.4164,0.3961,0.3828,0.3763,0.3629,0.336,0.3025,0.2753,0.2551,0.2619,0.2686,0.2686,0.2686,0.2619,0.2619,0.2554,0.2621,0.2621,0.2554,0.2621,0.2889,0.3159,0.3159,0.3266,0.3461,0.357,0.3668,0.3649,0.3591,0.3593,0.3583,0.3688,0.3796,0.3907,0.4076,0.4135,0.419,0.4135,0.4079,0.3965,1.2705,1.2705,1.2705,1.2705,1.2705,1.2705,1.2705,1.2613,1.2431,1.2186,1.2118,1.1871,1.1785,1.1613,1.144,1.1267,1.1267,1.1267,1.1176,1.0819,1.0733,1.0472,1.0212,1.0038,1.0038,1.0038,1.0038,1.0038,1.0038,1.0038,1.0038,1.0038,1.0125,1.0381,1.0646,1.1003,1.1181,1.1354,1.1527,1.1774,1.1804,1.1646,1.1513,1.165,1.1,1.0599,1.0329,1.003,0.9708,0.933,0.8696,0.8317,0.8077,0.7671,0.7339,0.7134,0.7003,0.6736,0.6544,0.6412,0.6412,0.6412,0.6342,0.628,0.6017,0.5881,0.5752,0.5557,0.5359,0.5229,0.51,0.4767,0.4434,0.43,0.4167,0.3763,0.356,0.3426,0.3362,0.3228,0.2958,0.2622,0.2285,0.215,0.2217,0.2284,0.2284,0.2285,0.2218,0.2151,0.2151,0.2287,0.2354,0.2285,0.2353,0.2622,0.2891,0.3025,0.3131,0.3275,0.3382,0.3406,0.3453,0.347,0.3436,0.3469,0.3577,0.3685,0.3852,0.3965,0.4024,0.4024,0.4021,0.3965,0.3799,1.2705,1.2699,1.2619,1.2625,1.2625,1.2711,1.2625,1.246,1.1997,1.1832,1.186,1.1785,1.1613,1.1527,1.1354,1.1267,1.1267,1.1181,1.1089,1.0733,1.0554,1.0294,1.012,1.0038,1.0038,1.0038,1.0038,1.0038,1.0038,1.0038,1.0038,1.0038,1.0125,1.0294,1.0559,1.0824,1.1094,1.1354,1.1521,1.1638,1.173,1.1606,1.1558,1.1376,1.0994,1.0628,1.0279,0.9941,0.9553,0.9034,0.8529,0.8077,0.7831,0.7531,0.7204,0.7003,0.6736,0.6474,0.6276,0.6148,0.6083,0.6013,0.6013,0.6017,0.5818,0.5686,0.5488,0.5292,0.509,0.4964,0.4837,0.4434,0.4164,0.41,0.3763,0.336,0.3226,0.3159,0.2958,0.2824,0.2622,0.222,0.1884,0.1748,0.1747,0.1816,0.1883,0.1884,0.1816,0.1816,0.1816,0.1884,0.2018,0.2017,0.2085,0.2287,0.2555,0.2824,0.293,0.3025,0.3109,0.3136,0.3193,0.3251,0.3271,0.3299,0.3411,0.3522,0.3633,0.3688,0.3744,0.3799,0.391,0.3799,0.3633,1.2705,1.2619,1.2448,1.2363,1.2454,1.2558,1.2484,1.2232,1.158,1.1494,1.1693,1.1699,1.1527,1.1354,1.1267,1.1267,1.1267,1.1094,1.0911,1.0646,1.0467,1.0207,1.0038,0.9951,0.9951,0.9951,0.9956,0.9864,0.9951,0.9951,0.9951,0.9951,1.0038,1.0207,1.0472,1.0651,1.0921,1.1176,1.1424,1.1492,1.1461,1.1525,1.1346,1.112,1.0842,1.0502,1.0081,0.9691,0.9227,0.8706,0.82,0.7912,0.7661,0.74,0.7138,0.6811,0.6408,0.6276,0.6079,0.5951,0.5752,0.5683,0.5686,0.5686,0.562,0.5422,0.5226,0.5027,0.4824,0.4767,0.464,0.43,0.3964,0.3696,0.3293,0.3092,0.3023,0.2822,0.2555,0.2354,0.2153,0.1884,0.1681,0.1547,0.148,0.1479,0.1547,0.1547,0.1547,0.1614,0.1547,0.1547,0.1681,0.1748,0.1884,0.1951,0.2153,0.2354,0.2613,0.271,0.2799,0.2877,0.2903,0.2994,0.3046,0.3132,0.3244,0.3299,0.3302,0.3413,0.3466,0.3522,0.3574,0.3522,0.3413,1.2203,1.2209,1.2118,1.2123,1.2123,1.2141,1.206,1.1882,1.1505,1.1332,1.144,1.144,1.1354,1.1267,1.1267,1.1267,1.1181,1.1089,1.0911,1.0646,1.0381,1.0207,1.0033,0.9777,0.9772,0.9689,0.9607,0.9519,0.9519,0.9607,0.9689,0.9777,0.9868,1.0038,1.0212,1.0299,1.0477,1.0819,1.1165,1.1171,1.1138,1.1154,1.0987,1.0806,1.0574,1.0244,0.9841,0.9482,0.9034,0.8586,0.8037,0.7736,0.7526,0.7204,0.6876,0.6412,0.621,0.6079,0.5815,0.562,0.5491,0.5289,0.5223,0.5223,0.5156,0.509,0.4894,0.4761,0.4561,0.45,0.437,0.4033,0.3696,0.336,0.3092,0.2956,0.2755,0.2555,0.2287,0.2017,0.1816,0.1615,0.1412,0.1345,0.1278,0.1277,0.1277,0.1278,0.1279,0.1345,0.1412,0.1345,0.1345,0.1481,0.1547,0.1614,0.1748,0.195,0.2144,0.2314,0.2413,0.2511,0.2617,0.2663,0.2763,0.291,0.3077,0.3132,0.3079,0.3132,0.3188,0.3241,0.3244,0.3188,0.3135,1.1957,1.1957,1.1957,1.178,1.1699,1.1705,1.1624,1.1613,1.1338,1.1257,1.1267,1.1267,1.1267,1.1267,1.1267,1.1267,1.1176,1.0911,1.0733,1.0472,1.0294,1.0033,0.9859,0.9689,0.9607,0.9432,0.9345,0.9349,0.9345,0.9345,0.9519,0.9519,0.9694,0.9781,0.9777,0.9694,0.9689,1.0038,1.0341,1.0529,1.0575,1.061,1.0466,1.0258,1.0116,0.9914,0.9475,0.9124,0.879,0.825,0.7695,0.747,0.7265,0.6876,0.6679,0.628,0.6013,0.5815,0.5554,0.5355,0.516,0.4957,0.4827,0.4761,0.4761,0.4761,0.4631,0.4498,0.4298,0.4167,0.3966,0.3766,0.3429,0.3092,0.2956,0.2753,0.2554,0.2287,0.1951,0.1681,0.148,0.1279,0.1144,0.1077,0.1077,0.1144,0.1145,0.1145,0.1212,0.1212,0.1212,0.1212,0.1212,0.1212,0.1278,0.1277,0.1412,0.148,0.1545,0.1712,0.1899,0.2086,0.215,0.2259,0.2413,0.2573,0.2685,0.2798,0.28,0.2798,0.2796,0.2854,0.2854,0.2798,0.2687,1.1957,1.1957,1.1705,1.1527,1.1354,1.1354,1.1354,1.1267,1.1262,1.1267,1.1267,1.1267,1.1267,1.1267,1.1267,1.1181,1.1003,1.0824,1.0641,1.0294,1.012,0.9946,0.9689,0.9602,0.9432,0.9345,0.9174,0.9087,0.9174,0.9262,0.9262,0.9262,0.9262,0.9345,0.9253,0.8995,0.8907,0.899,0.9287,0.9429,0.9464,0.9523,0.9542,0.9177,0.9185,0.9214,0.8796,0.8514,0.8314,0.775,0.7396,0.7199,0.6876,0.6548,0.635,0.6152,0.5818,0.5617,0.5355,0.5156,0.496,0.4761,0.4628,0.4495,0.4361,0.4428,0.4361,0.4228,0.4028,0.383,0.3632,0.3565,0.3362,0.2958,0.2688,0.2554,0.2354,0.2085,0.1749,0.1481,0.128,0.1146,0.0944,0.0876,0.0876,0.0944,0.1011,0.0944,0.0944,0.1011,0.0876,0.0876,0.0808,0.0808,0.0875,0.0875,0.0942,0.1076,0.1076,0.1325,0.1603,0.1675,0.1739,0.1854,0.1961,0.2071,0.2183,0.2352,0.2408,0.235,0.235,0.2408,0.2408,0.2352,0.2354,1.144,1.144,1.144,1.1354,1.1267,1.1267,1.1267,1.1267,1.1267,1.1267,1.1267,1.1267,1.1267,1.1267,1.1267,1.1181,1.1003,1.0824,1.0554,1.0294,1.0125,0.9864,0.9602,0.9432,0.9257,0.8999,0.8911,0.8828,0.8823,0.8911,0.8907,0.8819,0.8819,0.8819,0.8723,0.8288,0.8028,0.8025,0.791,0.8197,0.8338,0.8625,0.8813,0.8526,0.8509,0.8421,0.8092,0.8,0.7697,0.7348,0.7091,0.6876,0.6552,0.6222,0.5954,0.5818,0.5624,0.5289,0.5087,0.4891,0.4628,0.4431,0.4298,0.4095,0.4025,0.4095,0.4095,0.3894,0.3761,0.3563,0.3362,0.3295,0.3161,0.2822,0.242,0.2287,0.2221,0.1884,0.1481,0.128,0.1146,0.0944,0.0742,0.0674,0.0674,0.0674,0.0607,0.0607,0.0607,0.054,0.0337,0.0269,0.0269,0.0269,0.0337,0.0337,0.0404,0.0605,0.074,0.0992,0.1166,0.1247,0.1198,0.1385,0.1514,0.1625,0.1792,0.1902,0.1959,0.1903,0.1905,0.1961,0.1906,0.185,0.1908,1.1187,1.1198,1.1219,1.1267,1.1267,1.1267,1.1267,1.1267,1.1267,1.1267,1.1267,1.1267,1.1267,1.1267,1.1267,1.1089,1.0916,1.0733,1.0472,1.0212,1.0038,0.9777,0.9515,0.9345,0.9087,0.8823,0.856,0.8472,0.8472,0.8384,0.838,0.8288,0.838,0.8201,0.8017,0.758,0.7231,0.7139,0.6609,0.6653,0.7108,0.7357,0.7584,0.7426,0.7347,0.7439,0.744,0.7355,0.7133,0.6844,0.661,0.6424,0.6156,0.5826,0.5763,0.5631,0.5428,0.5027,0.4755,0.4558,0.4361,0.4164,0.403,0.3892,0.3694,0.3763,0.3627,0.3493,0.3493,0.3295,0.3092,0.2956,0.2824,0.2555,0.2151,0.1883,0.1816,0.1614,0.1346,0.1214,0.1012,0.0809,0.0607,0.027,0.027,0.027,0.027,0.0,0.0067,0.0067,-0.0202,-0.0337,-0.0337,-0.0404,-0.0472,-0.0404,-0.027,-0.0,0.0269,0.0394,0.0447,0.0619,0.0717,0.0865,0.1014,0.1234,0.1345,0.1456,0.1568,0.1569,0.1569,0.1569,0.1458,0.1403,0.1459,1.1015,1.1063,1.1262,1.1267,1.1267,1.1267,1.1267,1.1267,1.1267,1.1267,1.1267,1.1267,1.1267,1.1267,1.1267,1.0997,1.0819,1.0641,1.0381,1.0125,1.0038,0.9689,0.9519,0.9262,0.8999,0.8648,0.838,0.8204,0.8204,0.8028,0.7852,0.776,0.7584,0.7401,0.7136,0.6694,0.634,0.6077,0.5706,0.5215,0.5451,0.5838,0.6134,0.6205,0.6234,0.6467,0.6544,0.6557,0.6391,0.6199,0.5974,0.5844,0.569,0.5491,0.5495,0.5365,0.503,0.4628,0.4356,0.4225,0.4095,0.3961,0.3828,0.3627,0.3429,0.3295,0.3159,0.3094,0.3094,0.3025,0.2822,0.2688,0.2555,0.2287,0.1883,0.1547,0.148,0.1345,0.1145,0.0945,0.0674,0.0472,0.027,-0.0,-0.0067,-0.0067,-0.0202,-0.054,-0.0674,-0.0674,-0.0808,-0.0875,-0.0875,-0.101,-0.1146,-0.1011,-0.0809,-0.0741,-0.0469,-0.039,-0.0316,-0.0248,-0.006,0.0288,0.0453,0.0619,0.0842,0.0953,0.1065,0.1066,0.1065,0.1009,0.0953,0.0898,0.1066,1.1101,1.1284,1.1332,1.1267,1.1267,1.1267,1.1267,1.1267,1.1267,1.1267,1.1267,1.1267,1.1267,1.1267,1.1094,1.0916,1.0727,1.0549,1.0294,1.0038,0.9951,0.9689,0.9432,0.9174,0.8819,0.8464,0.8204,0.8116,0.7848,0.7672,0.7492,0.7228,0.7054,0.67,0.6346,0.5899,0.563,0.5277,0.473,0.4253,0.4076,0.4491,0.4966,0.5084,0.5207,0.5407,0.5604,0.5777,0.5751,0.5627,0.5447,0.5309,0.5223,0.5093,0.5096,0.503,0.4697,0.4295,0.4025,0.3961,0.3828,0.3629,0.3493,0.3293,0.3092,0.2956,0.2824,0.2758,0.2758,0.269,0.2555,0.2488,0.2356,0.2017,0.1614,0.148,0.1412,0.101,0.0674,0.0202,-0.027,-0.027,-0.027,-0.0405,-0.0405,-0.0405,-0.0405,-0.0674,-0.0742,-0.101,-0.1346,-0.1346,-0.1345,-0.148,-0.1615,-0.1413,-0.1212,-0.1211,-0.1272,-0.1179,-0.1089,-0.1127,-0.091,-0.0466,-0.0228,-0.0056,0.0112,0.028,0.028,0.0336,0.0449,0.0449,0.0393,0.0393,0.0505]}]]